Time,TemperatureF,DewpointF,PressureIn,WindDirection,WindDirectionDegrees,WindSpeedMPH,WindSpeedGustMPH,Humidity,HourlyPrecipIn,Conditions,Clouds,dailyrainin,SoftwareType,DateUTC
2013-02-18 00:00:00,50.7,26.0,30.35,WNW,288,1.0,8.0,38,0.00,,---,0.00,VWS V14.01,2013-02-18 05:00:00,
2013-02-18 00:01:00,50.6,26.6,30.35,WNW,294,2.0,5.0,39,0.00,,---,0.00,VWS V14.01,2013-02-18 05:01:00,
2013-02-18 00:02:00,50.6,26.0,30.34,NW,313,1.0,5.0,38,0.00,,---,0.00,VWS V14.01,2013-02-18 05:02:00,
2013-02-18 00:03:00,50.5,25.9,30.35,WNW,288,4.0,5.0,38,0.00,,---,0.00,VWS V14.01,2013-02-18 05:03:00,
2013-02-18 00:04:00,50.5,26.5,30.35,West,274,5.0,6.0,39,0.00,,---,0.00,VWS V14.01,2013-02-18 05:04:00,
2013-02-18 00:05:00,50.4,25.8,30.35,West,266,4.0,6.0,38,0.00,,---,0.00,VWS V14.01,2013-02-18 05:05:00,
2013-02-18 00:06:00,50.4,26.4,30.35,NW,323,5.0,7.0,39,0.00,,---,0.00,VWS V14.01,2013-02-18 05:06:00,
2013-02-18 00:07:00,50.3,25.7,30.35,WNW,302,7.0,8.0,38,0.00,,---,0.00,VWS V14.01,2013-02-18 05:07:00,
2013-02-18 00:08:00,50.3,25.7,30.35,North,355,6.0,11.0,38,0.00,,---,0.00,VWS V14.01,2013-02-18 05:08:00,
2013-02-18 00:09:00,50.2,26.2,30.35,NW,314,3.0,11.0,39,0.00,,---,0.00,VWS V14.01,2013-02-18 05:09:00,
2013-02-18 00:10:00,50.2,26.2,30.35,WNW,283,3.0,11.0,39,0.00,,---,0.00,VWS V14.01,2013-02-18 05:10:00,
2013-02-18 00:11:00,50.1,26.1,30.34,West,279,1.0,11.0,39,0.00,,---,0.00,VWS V14.01,2013-02-18 05:11:00,
2013-02-18 00:12:00,50.1,26.7,30.34,WNW,303,3.0,11.0,40,0.00,,---,0.00,VWS V14.01,2013-02-18 05:12:00,
2013-02-18 00:13:00,50.0,26.6,30.34,WNW,301,0.0,11.0,40,0.00,,---,0.00,VWS V14.01,2013-02-18 05:13:00,
2013-02-18 00:14:00,50.0,27.2,30.34,WNW,298,3.0,11.0,41,0.00,,---,0.00,VWS V14.01,2013-02-18 05:14:00,
2013-02-18 00:15:00,49.9,27.1,30.34,WNW,298,1.0,11.0,41,0.00,,---,0.00,VWS V14.01,2013-02-18 05:15:00,
2013-02-18 00:16:00,49.9,27.7,30.35,NNW,331,2.0,11.0,42,0.00,,---,0.00,VWS V14.01,2013-02-18 05:16:00,
2013-02-18 00:17:00,49.8,27.6,30.34,NW,316,1.0,11.0,42,0.00,,---,0.00,VWS V14.01,2013-02-18 05:17:00,
2013-02-18 00:18:00,49.7,27.6,30.35,WNW,294,6.0,11.0,42,0.00,,---,0.00,VWS V14.01,2013-02-18 05:18:00,
2013-02-18 00:19:00,49.6,28.0,30.34,WNW,290,3.0,11.0,43,0.00,,---,0.00,VWS V14.01,2013-02-18 05:19:00,
2013-02-18 00:20:00,49.6,28.0,30.35,WNW,284,5.0,11.0,43,0.00,,---,0.00,VWS V14.01,2013-02-18 05:20:00,
2013-02-18 00:21:00,49.5,28.5,30.35,NW,319,0.0,11.0,44,0.00,,---,0.00,VWS V14.01,2013-02-18 05:21:00,
2013-02-18 00:22:00,49.4,28.4,30.35,WNW,296,5.0,11.0,44,0.00,,---,0.00,VWS V14.01,2013-02-18 05:22:00,
2013-02-18 00:23:00,49.4,28.4,30.35,WNW,301,0.0,11.0,44,0.00,,---,0.00,VWS V14.01,2013-02-18 05:23:00,
2013-02-18 00:24:00,49.3,28.3,30.35,West,269,5.0,11.0,44,0.00,,---,0.00,VWS V14.01,2013-02-18 05:24:00,
2013-02-18 00:25:00,49.2,28.2,30.35,WNW,284,1.0,11.0,44,0.00,,---,0.00,VWS V14.01,2013-02-18 05:25:00,
2013-02-18 00:26:00,49.2,28.8,30.35,NW,317,1.0,11.0,45,0.00,,---,0.00,VWS V14.01,2013-02-18 05:26:00,
2013-02-18 00:27:00,49.1,28.7,30.35,WNW,292,0.0,11.0,45,0.00,,---,0.00,VWS V14.01,2013-02-18 05:27:00,
2013-02-18 00:28:00,49.0,29.1,30.35,WNW,294,3.0,11.0,46,0.00,,---,0.00,VWS V14.01,2013-02-18 05:28:00,
2013-02-18 00:29:00,49.0,29.1,30.35,West,270,5.0,11.0,46,0.00,,---,0.00,VWS V14.01,2013-02-18 05:29:00,
2013-02-18 00:30:00,48.9,29.0,30.35,West,267,5.0,5.0,46,0.00,,---,0.00,VWS V14.01,2013-02-18 05:30:00,
2013-02-18 00:31:00,48.9,29.0,30.35,NW,308,1.0,5.0,46,0.00,,---,0.00,VWS V14.01,2013-02-18 05:31:00,
2013-02-18 00:32:00,48.8,29.0,30.35,WNW,291,2.0,5.0,46,0.00,,---,0.00,VWS V14.01,2013-02-18 05:32:00,
2013-02-18 00:33:00,48.8,29.0,30.35,WNW,284,0.0,5.0,46,0.00,,---,0.00,VWS V14.01,2013-02-18 05:33:00,
2013-02-18 00:34:00,48.7,29.4,30.35,West,273,5.0,6.0,47,0.00,,---,0.00,VWS V14.01,2013-02-18 05:34:00,
2013-02-18 00:35:00,48.7,29.4,30.35,NW,311,6.0,8.0,47,0.00,,---,0.00,VWS V14.01,2013-02-18 05:35:00,
2013-02-18 00:36:00,48.7,29.4,30.35,NW,311,0.0,8.0,47,0.00,,---,0.00,VWS V14.01,2013-02-18 05:36:00,
2013-02-18 00:37:00,48.6,29.3,30.35,West,280,0.0,8.0,47,0.00,,---,0.00,VWS V14.01,2013-02-18 05:37:00,
2013-02-18 00:38:00,48.6,29.8,30.35,West,281,0.0,8.0,48,0.00,,---,0.00,VWS V14.01,2013-02-18 05:38:00,
2013-02-18 00:39:00,48.6,29.8,30.35,West,281,0.0,8.0,48,0.00,,---,0.00,VWS V14.01,2013-02-18 05:39:00,
2013-02-18 00:40:00,48.5,30.2,30.35,WNW,287,3.0,8.0,49,0.00,,---,0.00,VWS V14.01,2013-02-18 05:40:00,
2013-02-18 00:41:00,48.5,29.7,30.35,WNW,290,1.0,8.0,48,0.00,,---,0.00,VWS V14.01,2013-02-18 05:41:00,
2013-02-18 00:42:00,48.4,30.1,30.35,WNW,288,2.0,8.0,49,0.00,,---,0.00,VWS V14.01,2013-02-18 05:42:00,
2013-02-18 00:43:00,48.3,30.0,30.35,WNW,289,1.0,8.0,49,0.00,,---,0.00,VWS V14.01,2013-02-18 05:43:00,
2013-02-18 00:44:00,48.3,30.0,30.35,West,275,3.0,8.0,49,0.00,,---,0.00,VWS V14.01,2013-02-18 05:44:00,
2013-02-18 00:45:00,48.2,30.0,30.35,West,273,4.0,8.0,49,0.00,,---,0.00,VWS V14.01,2013-02-18 05:45:00,
2013-02-18 00:46:00,48.1,29.9,30.35,NNW,329,0.0,8.0,49,0.00,,---,0.00,VWS V14.01,2013-02-18 05:46:00,
2013-02-18 00:47:00,48.1,30.4,30.35,NNW,329,0.0,8.0,50,0.00,,---,0.00,VWS V14.01,2013-02-18 05:47:00,
2013-02-18 00:48:00,48.0,30.3,30.35,NNW,329,0.0,8.0,50,0.00,,---,0.00,VWS V14.01,2013-02-18 05:48:00,
2013-02-18 00:49:00,47.9,30.7,30.35,NW,309,3.0,8.0,51,0.00,,---,0.00,VWS V14.01,2013-02-18 05:49:00,
2013-02-18 00:50:00,47.9,30.7,30.35,WNW,284,2.0,8.0,51,0.00,,---,0.00,VWS V14.01,2013-02-18 05:50:00,
2013-02-18 00:51:00,47.8,30.6,30.35,West,278,2.0,8.0,51,0.00,,---,0.00,VWS V14.01,2013-02-18 05:51:00,
2013-02-18 00:52:00,47.7,30.5,30.35,West,278,0.0,8.0,51,0.00,,---,0.00,VWS V14.01,2013-02-18 05:52:00,
2013-02-18 00:53:00,47.7,31.0,30.35,WNW,299,2.0,8.0,52,0.00,,---,0.00,VWS V14.01,2013-02-18 05:53:00,
2013-02-18 00:54:00,47.6,30.4,30.35,WNW,288,1.0,8.0,51,0.00,,---,0.00,VWS V14.01,2013-02-18 05:54:00,
2013-02-18 00:55:00,47.6,30.9,30.35,NNW,329,2.0,8.0,52,0.00,,---,0.00,VWS V14.01,2013-02-18 05:55:00,
2013-02-18 00:56:00,47.5,30.8,30.36,WNW,296,5.0,8.0,52,0.00,,---,0.00,VWS V14.01,2013-02-18 05:56:00,
2013-02-18 00:57:00,47.4,30.7,30.36,NW,309,2.0,8.0,52,0.00,,---,0.00,VWS V14.01,2013-02-18 05:57:00,
2013-02-18 00:58:00,47.4,30.7,30.36,West,270,3.0,8.0,52,0.00,,---,0.00,VWS V14.01,2013-02-18 05:58:00,
2013-02-18 00:59:00,47.4,30.7,30.36,WNW,290,0.0,8.0,52,0.00,,---,0.00,VWS V14.01,2013-02-18 05:59:00,
2013-02-18 01:00:00,47.3,30.6,30.36,WNW,290,2.0,8.0,52,0.00,,---,0.00,VWS V14.01,2013-02-18 06:00:00,
2013-02-18 01:01:00,47.2,31.0,30.36,WNW,294,3.0,4.0,53,0.00,,---,0.00,VWS V14.01,2013-02-18 06:01:00,
2013-02-18 01:02:00,47.2,31.0,30.36,WNW,303,1.0,4.0,53,0.00,,---,0.00,VWS V14.01,2013-02-18 06:02:00,
2013-02-18 01:03:00,47.1,30.9,30.36,WNW,286,0.0,4.0,53,0.00,,---,0.00,VWS V14.01,2013-02-18 06:03:00,
2013-02-18 01:04:00,47.0,30.8,30.36,WNW,284,1.0,4.0,53,0.00,,---,0.00,VWS V14.01,2013-02-18 06:04:00,
2013-02-18 01:05:00,47.0,31.2,30.36,WNW,288,0.0,4.0,54,0.00,,---,0.00,VWS V14.01,2013-02-18 06:05:00,
2013-02-18 01:06:00,47.0,31.2,30.36,WNW,288,0.0,4.0,54,0.00,,---,0.00,VWS V14.01,2013-02-18 06:06:00,
2013-02-18 01:07:00,46.9,31.1,30.36,WNW,288,2.0,4.0,54,0.00,,---,0.00,VWS V14.01,2013-02-18 06:07:00,
2013-02-18 01:08:00,46.8,31.0,30.35,WNW,288,0.0,4.0,54,0.00,,---,0.00,VWS V14.01,2013-02-18 06:08:00,
2013-02-18 01:09:00,46.8,31.0,30.36,WNW,283,1.0,4.0,54,0.00,,---,0.00,VWS V14.01,2013-02-18 06:09:00,
2013-02-18 01:10:00,46.7,31.0,30.36,WNW,299,2.0,7.0,54,0.00,,---,0.00,VWS V14.01,2013-02-18 06:10:00,
2013-02-18 01:11:00,46.7,31.0,30.36,WNW,299,2.0,7.0,54,0.00,,---,0.00,VWS V14.01,2013-02-18 06:11:00,
2013-02-18 01:12:00,46.7,31.0,30.36,West,281,3.0,7.0,54,0.00,,---,0.00,VWS V14.01,2013-02-18 06:12:00,
2013-02-18 01:13:00,46.6,31.3,30.36,WNW,288,0.0,7.0,55,0.00,,---,0.00,VWS V14.01,2013-02-18 06:13:00,
2013-02-18 01:14:00,46.5,31.2,30.36,WNW,289,0.0,7.0,55,0.00,,---,0.00,VWS V14.01,2013-02-18 06:14:00,
2013-02-18 01:15:00,46.5,31.2,30.36,West,278,1.0,7.0,55,0.00,,---,0.00,VWS V14.01,2013-02-18 06:15:00,
2013-02-18 01:16:00,46.4,31.1,30.36,West,279,0.0,7.0,55,0.00,,---,0.00,VWS V14.01,2013-02-18 06:16:00,
2013-02-18 01:17:00,46.4,31.1,30.36,West,279,0.0,7.0,55,0.00,,---,0.00,VWS V14.01,2013-02-18 06:17:00,
2013-02-18 01:18:00,46.3,31.5,30.36,West,279,5.0,7.0,56,0.00,,---,0.00,VWS V14.01,2013-02-18 06:18:00,
2013-02-18 01:19:00,46.2,31.4,30.36,West,279,0.0,7.0,56,0.00,,---,0.00,VWS V14.01,2013-02-18 06:19:00,
2013-02-18 01:20:00,46.1,31.3,30.36,WNW,287,0.0,7.0,56,0.00,,---,0.00,VWS V14.01,2013-02-18 06:20:00,
2013-02-18 01:21:00,46.1,31.3,30.36,WNW,283,4.0,7.0,56,0.00,,---,0.00,VWS V14.01,2013-02-18 06:21:00,
2013-02-18 01:22:00,46.0,31.2,30.36,West,274,3.0,7.0,56,0.00,,---,0.00,VWS V14.01,2013-02-18 06:22:00,
2013-02-18 01:23:00,46.0,31.2,30.36,West,276,0.0,7.0,56,0.00,,---,0.00,VWS V14.01,2013-02-18 06:23:00,
2013-02-18 01:24:00,45.9,31.5,30.36,West,277,3.0,7.0,57,0.00,,---,0.00,VWS V14.01,2013-02-18 06:24:00,
2013-02-18 01:25:00,45.9,31.5,30.36,WNW,286,3.0,7.0,57,0.00,,---,0.00,VWS V14.01,2013-02-18 06:25:00,
2013-02-18 01:26:00,45.8,31.5,30.36,WSW,248,0.0,7.0,57,0.00,,---,0.00,VWS V14.01,2013-02-18 06:26:00,
2013-02-18 01:27:00,45.7,31.8,30.36,West,270,0.0,7.0,58,0.00,,---,0.00,VWS V14.01,2013-02-18 06:27:00,
2013-02-18 01:28:00,45.7,31.8,30.36,West,276,1.0,7.0,58,0.00,,---,0.00,VWS V14.01,2013-02-18 06:28:00,
2013-02-18 01:29:00,45.6,31.3,30.36,West,281,0.0,7.0,57,0.00,,---,0.00,VWS V14.01,2013-02-18 06:29:00,
2013-02-18 01:30:00,45.6,31.3,30.36,WNW,288,1.0,7.0,57,0.00,,---,0.00,VWS V14.01,2013-02-18 06:30:00,
2013-02-18 01:31:00,45.5,31.6,30.36,WNW,288,2.0,3.0,58,0.00,,---,0.00,VWS V14.01,2013-02-18 06:31:00,
2013-02-18 01:32:00,45.5,31.6,30.36,WNW,294,4.0,4.0,58,0.00,,---,0.00,VWS V14.01,2013-02-18 06:32:00,
2013-02-18 01:33:00,45.4,31.5,30.36,WNW,292,0.0,4.0,58,0.00,,---,0.00,VWS V14.01,2013-02-18 06:33:00,
2013-02-18 01:34:00,45.4,31.5,30.36,WNW,294,0.0,4.0,58,0.00,,---,0.00,VWS V14.01,2013-02-18 06:34:00,
2013-02-18 01:35:00,45.3,31.4,30.36,WNW,294,0.0,4.0,58,0.00,,---,0.00,VWS V14.01,2013-02-18 06:35:00,
2013-02-18 01:36:00,45.3,31.8,30.36,West,276,2.0,4.0,59,0.00,,---,0.00,VWS V14.01,2013-02-18 06:36:00,
2013-02-18 01:37:00,45.2,31.7,30.36,West,276,0.0,4.0,59,0.00,,---,0.00,VWS V14.01,2013-02-18 06:37:00,
2013-02-18 01:38:00,45.1,31.6,30.36,West,265,1.0,5.0,59,0.00,,---,0.00,VWS V14.01,2013-02-18 06:38:00,
2013-02-18 01:39:00,45.1,31.6,30.36,West,265,0.0,5.0,59,0.00,,---,0.00,VWS V14.01,2013-02-18 06:39:00,
2013-02-18 01:40:00,45.0,31.5,30.36,West,266,0.0,5.0,59,0.00,,---,0.00,VWS V14.01,2013-02-18 06:40:00,
2013-02-18 01:41:00,44.9,31.9,30.36,West,266,0.0,5.0,60,0.00,,---,0.00,VWS V14.01,2013-02-18 06:41:00,
2013-02-18 01:42:00,44.9,31.9,30.36,NW,319,3.0,5.0,60,0.00,,---,0.00,VWS V14.01,2013-02-18 06:42:00,
2013-02-18 01:43:00,44.8,31.8,30.36,WNW,290,0.0,5.0,60,0.00,,---,0.00,VWS V14.01,2013-02-18 06:43:00,
2013-02-18 01:44:00,44.7,31.7,30.36,WNW,290,0.0,5.0,60,0.00,,---,0.00,VWS V14.01,2013-02-18 06:44:00,
2013-02-18 01:45:00,44.6,31.6,30.36,WNW,290,0.0,5.0,60,0.00,,---,0.00,VWS V14.01,2013-02-18 06:45:00,
2013-02-18 01:46:00,44.6,31.6,30.36,WNW,294,3.0,5.0,60,0.00,,---,0.00,VWS V14.01,2013-02-18 06:46:00,
2013-02-18 01:47:00,44.5,31.5,30.36,WNW,291,4.0,5.0,60,0.00,,---,0.00,VWS V14.01,2013-02-18 06:47:00,
2013-02-18 01:48:00,44.5,31.5,30.36,WNW,291,0.0,5.0,60,0.00,,---,0.00,VWS V14.01,2013-02-18 06:48:00,
2013-02-18 01:49:00,44.5,31.5,30.36,WNW,291,0.0,5.0,60,0.00,,---,0.00,VWS V14.01,2013-02-18 06:49:00,
2013-02-18 01:50:00,44.4,31.8,30.36,WNW,291,0.0,5.0,61,0.00,,---,0.00,VWS V14.01,2013-02-18 06:50:00,
2013-02-18 01:51:00,44.3,31.7,30.36,WNW,291,0.0,5.0,61,0.00,,---,0.00,VWS V14.01,2013-02-18 06:51:00,
2013-02-18 01:52:00,44.3,31.7,30.36,WNW,291,0.0,5.0,61,0.00,,---,0.00,VWS V14.01,2013-02-18 06:52:00,
2013-02-18 01:53:00,44.3,31.7,30.36,WNW,290,0.0,5.0,61,0.00,,---,0.00,VWS V14.01,2013-02-18 06:53:00,
2013-02-18 01:54:00,44.2,31.6,30.36,WNW,290,1.0,5.0,61,0.00,,---,0.00,VWS V14.01,2013-02-18 06:54:00,
2013-02-18 01:55:00,44.2,31.6,30.36,WNW,290,0.0,5.0,61,0.00,,---,0.00,VWS V14.01,2013-02-18 06:55:00,
2013-02-18 01:56:00,44.2,31.6,30.36,WNW,290,0.0,5.0,61,0.00,,---,0.00,VWS V14.01,2013-02-18 06:56:00,
2013-02-18 01:57:00,44.1,31.5,30.36,WNW,290,0.0,5.0,61,0.00,,---,0.00,VWS V14.01,2013-02-18 06:57:00,
2013-02-18 01:58:00,44.1,31.5,30.36,WNW,290,0.0,5.0,61,0.00,,---,0.00,VWS V14.01,2013-02-18 06:58:00,
2013-02-18 01:59:00,44.0,31.4,30.36,WNW,290,0.0,5.0,61,0.00,,---,0.00,VWS V14.01,2013-02-18 06:59:00,
2013-02-18 02:00:00,43.9,31.7,30.36,WNW,290,0.0,5.0,62,0.00,,---,0.00,VWS V14.01,2013-02-18 07:00:00,
2013-02-18 02:01:00,43.8,31.6,30.36,WNW,290,0.0,3.0,62,0.00,,---,0.00,VWS V14.01,2013-02-18 07:01:00,
2013-02-18 02:02:00,43.8,31.6,30.35,WNW,290,0.0,3.0,62,0.00,,---,0.00,VWS V14.01,2013-02-18 07:02:00,
2013-02-18 02:03:00,43.7,31.5,30.35,WNW,290,0.0,3.0,62,0.00,,---,0.00,VWS V14.01,2013-02-18 07:03:00,
2013-02-18 02:04:00,43.7,31.5,30.36,West,262,0.0,3.0,62,0.00,,---,0.00,VWS V14.01,2013-02-18 07:04:00,
2013-02-18 02:05:00,43.6,31.5,30.36,West,262,0.0,3.0,62,0.00,,---,0.00,VWS V14.01,2013-02-18 07:05:00,
2013-02-18 02:06:00,43.6,31.9,30.36,West,262,0.0,3.0,63,0.00,,---,0.00,VWS V14.01,2013-02-18 07:06:00,
2013-02-18 02:07:00,43.5,31.8,30.36,West,262,0.0,3.0,63,0.00,,---,0.00,VWS V14.01,2013-02-18 07:07:00,
2013-02-18 02:08:00,43.5,31.8,30.36,West,262,0.0,3.0,63,0.00,,---,0.00,VWS V14.01,2013-02-18 07:08:00,
2013-02-18 02:09:00,43.4,31.7,30.36,West,278,2.0,3.0,63,0.00,,---,0.00,VWS V14.01,2013-02-18 07:09:00,
2013-02-18 02:10:00,43.4,31.7,30.36,West,278,0.0,3.0,63,0.00,,---,0.00,VWS V14.01,2013-02-18 07:10:00,
2013-02-18 02:11:00,43.3,31.6,30.35,West,278,0.0,3.0,63,0.00,,---,0.00,VWS V14.01,2013-02-18 07:11:00,
2013-02-18 02:12:00,43.3,31.6,30.35,West,278,0.0,3.0,63,0.00,,---,0.00,VWS V14.01,2013-02-18 07:12:00,
2013-02-18 02:13:00,43.2,31.5,30.35,West,278,0.0,3.0,63,0.00,,---,0.00,VWS V14.01,2013-02-18 07:13:00,
2013-02-18 02:14:00,43.1,31.8,30.35,West,278,0.0,3.0,64,0.00,,---,0.00,VWS V14.01,2013-02-18 07:14:00,
2013-02-18 02:15:00,43.1,31.8,30.35,West,278,0.0,3.0,64,0.00,,---,0.00,VWS V14.01,2013-02-18 07:15:00,
2013-02-18 02:16:00,43.0,31.7,30.35,West,278,0.0,3.0,64,0.00,,---,0.00,VWS V14.01,2013-02-18 07:16:00,
2013-02-18 02:17:00,43.0,31.7,30.35,West,278,0.0,3.0,64,0.00,,---,0.00,VWS V14.01,2013-02-18 07:17:00,
2013-02-18 02:18:00,42.9,31.6,30.36,West,278,0.0,3.0,64,0.00,,---,0.00,VWS V14.01,2013-02-18 07:18:00,
2013-02-18 02:19:00,42.9,31.6,30.36,West,278,0.0,3.0,64,0.00,,---,0.00,VWS V14.01,2013-02-18 07:19:00,
2013-02-18 02:20:00,42.8,31.5,30.36,West,278,0.0,3.0,64,0.00,,---,0.00,VWS V14.01,2013-02-18 07:20:00,
2013-02-18 02:21:00,42.8,31.5,30.36,West,278,0.0,3.0,64,0.00,,---,0.00,VWS V14.01,2013-02-18 07:21:00,
2013-02-18 02:22:00,42.8,31.5,30.36,West,278,0.0,3.0,64,0.00,,---,0.00,VWS V14.01,2013-02-18 07:22:00,
2013-02-18 02:23:00,42.8,31.5,30.36,West,278,0.0,3.0,64,0.00,,---,0.00,VWS V14.01,2013-02-18 07:23:00,
2013-02-18 02:24:00,42.7,31.4,30.36,West,278,0.0,3.0,64,0.00,,---,0.00,VWS V14.01,2013-02-18 07:24:00,
2013-02-18 02:25:00,42.7,31.4,30.36,West,278,0.0,3.0,64,0.00,,---,0.00,VWS V14.01,2013-02-18 07:25:00,
2013-02-18 02:26:00,42.7,31.4,30.36,West,278,0.0,3.0,64,0.00,,---,0.00,VWS V14.01,2013-02-18 07:26:00,
2013-02-18 02:27:00,42.6,31.3,30.36,West,278,0.0,3.0,64,0.00,,---,0.00,VWS V14.01,2013-02-18 07:27:00,
2013-02-18 02:28:00,42.6,31.3,30.36,West,278,0.0,3.0,64,0.00,,---,0.00,VWS V14.01,2013-02-18 07:28:00,
2013-02-18 02:29:00,42.5,31.6,30.36,West,278,0.0,3.0,65,0.00,,---,0.00,VWS V14.01,2013-02-18 07:29:00,
2013-02-18 02:30:00,42.5,31.6,30.36,West,278,0.0,0.0,65,0.00,,---,0.00,VWS V14.01,2013-02-18 07:30:00,
2013-02-18 02:31:00,42.5,31.6,30.36,West,278,0.0,0.0,65,0.00,,---,0.00,VWS V14.01,2013-02-18 07:31:00,
2013-02-18 02:32:00,42.4,31.5,30.36,West,278,0.0,0.0,65,0.00,,---,0.00,VWS V14.01,2013-02-18 07:32:00,
2013-02-18 02:33:00,42.4,31.5,30.36,West,278,0.0,0.0,65,0.00,,---,0.00,VWS V14.01,2013-02-18 07:33:00,
2013-02-18 02:34:00,42.3,31.4,30.36,West,278,0.0,1.0,65,0.00,,---,0.00,VWS V14.01,2013-02-18 07:34:00,
2013-02-18 02:35:00,42.3,31.4,30.36,West,278,0.0,1.0,65,0.00,,---,0.00,VWS V14.01,2013-02-18 07:35:00,
2013-02-18 02:36:00,42.3,31.4,30.36,West,278,0.0,1.0,65,0.00,,---,0.00,VWS V14.01,2013-02-18 07:36:00,
2013-02-18 02:37:00,42.2,31.7,30.36,West,278,0.0,1.0,66,0.00,,---,0.00,VWS V14.01,2013-02-18 07:37:00,
2013-02-18 02:38:00,42.1,31.6,30.36,West,278,0.0,1.0,66,0.00,,---,0.00,VWS V14.01,2013-02-18 07:38:00,
2013-02-18 02:39:00,42.1,31.6,30.36,West,278,0.0,1.0,66,0.00,,---,0.00,VWS V14.01,2013-02-18 07:39:00,
2013-02-18 02:40:00,42.0,31.5,30.36,West,278,0.0,1.0,66,0.00,,---,0.00,VWS V14.01,2013-02-18 07:40:00,
2013-02-18 02:41:00,42.0,31.5,30.36,West,278,0.0,1.0,66,0.00,,---,0.00,VWS V14.01,2013-02-18 07:41:00,
2013-02-18 02:42:00,42.0,31.5,30.36,West,278,0.0,1.0,66,0.00,,---,0.00,VWS V14.01,2013-02-18 07:42:00,
2013-02-18 02:43:00,42.0,31.5,30.36,West,278,0.0,1.0,66,0.00,,---,0.00,VWS V14.01,2013-02-18 07:43:00,
2013-02-18 02:44:00,41.9,31.4,30.36,West,278,0.0,1.0,66,0.00,,---,0.00,VWS V14.01,2013-02-18 07:44:00,
2013-02-18 02:45:00,41.9,31.4,30.36,West,278,0.0,1.0,66,0.00,,---,0.00,VWS V14.01,2013-02-18 07:45:00,
2013-02-18 02:46:00,41.8,31.3,30.36,West,278,0.0,1.0,66,0.00,,---,0.00,VWS V14.01,2013-02-18 07:46:00,
2013-02-18 02:47:00,41.8,31.3,30.36,West,278,0.0,1.0,66,0.00,,---,0.00,VWS V14.01,2013-02-18 07:47:00,
2013-02-18 02:48:00,41.8,31.3,30.36,West,278,0.0,1.0,66,0.00,,---,0.00,VWS V14.01,2013-02-18 07:48:00,
2013-02-18 02:49:00,41.7,31.2,30.36,West,278,0.0,1.0,66,0.00,,---,0.00,VWS V14.01,2013-02-18 07:49:00,
2013-02-18 02:50:00,41.7,31.2,30.36,West,278,0.0,1.0,66,0.00,,---,0.00,VWS V14.01,2013-02-18 07:50:00,
2013-02-18 02:51:00,41.6,31.1,30.35,West,278,0.0,1.0,66,0.00,,---,0.00,VWS V14.01,2013-02-18 07:51:00,
2013-02-18 02:52:00,41.6,31.1,30.35,West,278,0.0,1.0,66,0.00,,---,0.00,VWS V14.01,2013-02-18 07:52:00,
2013-02-18 02:53:00,41.5,31.4,30.35,West,278,0.0,1.0,67,0.00,,---,0.00,VWS V14.01,2013-02-18 07:53:00,
2013-02-18 02:54:00,41.5,31.4,30.36,West,278,0.0,1.0,67,0.00,,---,0.00,VWS V14.01,2013-02-18 07:54:00,
2013-02-18 02:55:00,41.5,31.4,30.36,West,278,0.0,1.0,67,0.00,,---,0.00,VWS V14.01,2013-02-18 07:55:00,
2013-02-18 02:56:00,41.4,31.3,30.36,West,278,0.0,1.0,67,0.00,,---,0.00,VWS V14.01,2013-02-18 07:56:00,
2013-02-18 02:57:00,41.4,31.3,30.36,West,278,0.0,1.0,67,0.00,,---,0.00,VWS V14.01,2013-02-18 07:57:00,
2013-02-18 02:58:00,41.4,31.3,30.36,West,278,0.0,1.0,67,0.00,,---,0.00,VWS V14.01,2013-02-18 07:58:00,
2013-02-18 02:59:00,41.3,31.2,30.36,West,278,0.0,1.0,67,0.00,,---,0.00,VWS V14.01,2013-02-18 07:59:00,
2013-02-18 03:00:00,41.3,31.5,30.36,West,278,0.0,1.0,68,0.00,,---,0.00,VWS V14.01,2013-02-18 08:00:00,
2013-02-18 03:01:00,41.2,31.5,30.36,West,278,0.0,0.0,68,0.00,,---,0.00,VWS V14.01,2013-02-18 08:01:00,
2013-02-18 03:02:00,41.2,31.5,30.36,West,278,0.0,0.0,68,0.00,,---,0.00,VWS V14.01,2013-02-18 08:02:00,
2013-02-18 03:03:00,41.1,31.4,30.36,West,278,0.0,0.0,68,0.00,,---,0.00,VWS V14.01,2013-02-18 08:03:00,
2013-02-18 03:04:00,41.1,31.4,30.36,West,278,0.0,0.0,68,0.00,,---,0.00,VWS V14.01,2013-02-18 08:04:00,
2013-02-18 03:05:00,41.0,31.3,30.36,West,278,0.0,0.0,68,0.00,,---,0.00,VWS V14.01,2013-02-18 08:05:00,
2013-02-18 03:06:00,41.0,31.3,30.36,West,278,0.0,0.0,68,0.00,,---,0.00,VWS V14.01,2013-02-18 08:06:00,
2013-02-18 03:07:00,40.9,31.2,30.35,West,278,0.0,0.0,68,0.00,,---,0.00,VWS V14.01,2013-02-18 08:07:00,
2013-02-18 03:08:00,40.8,31.4,30.35,West,278,0.0,0.0,69,0.00,,---,0.00,VWS V14.01,2013-02-18 08:08:00,
2013-02-18 03:09:00,40.7,31.3,30.35,West,278,0.0,0.0,69,0.00,,---,0.00,VWS V14.01,2013-02-18 08:09:00,
2013-02-18 03:10:00,40.6,31.2,30.35,West,278,0.0,0.0,69,0.00,,---,0.00,VWS V14.01,2013-02-18 08:10:00,
2013-02-18 03:11:00,40.5,31.5,30.35,West,278,0.0,0.0,70,0.00,,---,0.00,VWS V14.01,2013-02-18 08:11:00,
2013-02-18 03:12:00,40.5,31.5,30.35,West,278,0.0,0.0,70,0.00,,---,0.00,VWS V14.01,2013-02-18 08:12:00,
2013-02-18 03:13:00,40.3,31.3,30.35,West,278,0.0,0.0,70,0.00,,---,0.00,VWS V14.01,2013-02-18 08:13:00,
2013-02-18 03:14:00,40.2,31.6,30.35,West,278,0.0,0.0,71,0.00,,---,0.00,VWS V14.01,2013-02-18 08:14:00,
2013-02-18 03:15:00,40.0,31.4,30.35,West,278,0.0,0.0,71,0.00,,---,0.00,VWS V14.01,2013-02-18 08:15:00,
2013-02-18 03:16:00,39.9,31.6,30.35,West,278,0.0,0.0,72,0.00,,---,0.00,VWS V14.01,2013-02-18 08:16:00,
2013-02-18 03:17:00,39.8,31.5,30.35,West,278,0.0,0.0,72,0.00,,---,0.00,VWS V14.01,2013-02-18 08:17:00,
2013-02-18 03:18:00,39.7,31.4,30.35,West,278,0.0,0.0,72,0.00,,---,0.00,VWS V14.01,2013-02-18 08:18:00,
2013-02-18 03:19:00,39.6,31.3,30.35,West,278,0.0,0.0,72,0.00,,---,0.00,VWS V14.01,2013-02-18 08:19:00,
2013-02-18 03:20:00,39.6,31.7,30.35,West,278,0.0,0.0,73,0.00,,---,0.00,VWS V14.01,2013-02-18 08:20:00,
2013-02-18 03:21:00,39.5,31.6,30.35,West,278,0.0,0.0,73,0.00,,---,0.00,VWS V14.01,2013-02-18 08:21:00,
2013-02-18 03:22:00,39.4,31.5,30.35,West,278,0.0,0.0,73,0.00,,---,0.00,VWS V14.01,2013-02-18 08:22:00,
2013-02-18 03:23:00,39.4,31.1,30.35,West,278,0.0,0.0,72,0.00,,---,0.00,VWS V14.01,2013-02-18 08:23:00,
2013-02-18 03:24:00,39.3,31.0,30.35,West,278,0.0,0.0,72,0.00,,---,0.00,VWS V14.01,2013-02-18 08:24:00,
2013-02-18 03:25:00,39.2,31.3,30.35,West,278,0.0,0.0,73,0.00,,---,0.00,VWS V14.01,2013-02-18 08:25:00,
2013-02-18 03:26:00,39.2,31.3,30.35,West,278,0.0,0.0,73,0.00,,---,0.00,VWS V14.01,2013-02-18 08:26:00,
2013-02-18 03:27:00,39.1,31.2,30.35,West,278,0.0,0.0,73,0.00,,---,0.00,VWS V14.01,2013-02-18 08:27:00,
2013-02-18 03:28:00,39.0,31.1,30.35,West,278,0.0,0.0,73,0.00,,---,0.00,VWS V14.01,2013-02-18 08:28:00,
2013-02-18 03:29:00,38.9,31.0,30.35,West,278,0.0,0.0,73,0.00,,---,0.00,VWS V14.01,2013-02-18 08:29:00,
2013-02-18 03:30:00,38.9,31.0,30.35,West,278,0.0,0.0,73,0.00,,---,0.00,VWS V14.01,2013-02-18 08:30:00,
2013-02-18 03:31:00,38.8,30.9,30.35,West,278,0.0,0.0,73,0.00,,---,0.00,VWS V14.01,2013-02-18 08:31:00,
2013-02-18 03:32:00,38.8,30.9,30.35,West,278,0.0,0.0,73,0.00,,---,0.00,VWS V14.01,2013-02-18 08:32:00,
2013-02-18 03:33:00,38.7,30.8,30.35,West,278,0.0,0.0,73,0.00,,---,0.00,VWS V14.01,2013-02-18 08:33:00,
2013-02-18 03:34:00,38.7,30.8,30.35,West,278,0.0,0.0,73,0.00,,---,0.00,VWS V14.01,2013-02-18 08:34:00,
2013-02-18 03:35:00,38.6,31.0,30.35,West,278,0.0,0.0,74,0.00,,---,0.00,VWS V14.01,2013-02-18 08:35:00,
2013-02-18 03:36:00,38.6,31.0,30.35,West,278,0.0,0.0,74,0.00,,---,0.00,VWS V14.01,2013-02-18 08:36:00,
2013-02-18 03:37:00,38.5,31.0,30.35,West,278,0.0,0.0,74,0.00,,---,0.00,VWS V14.01,2013-02-18 08:37:00,
2013-02-18 03:38:00,38.4,30.9,30.35,West,278,0.0,0.0,74,0.00,,---,0.00,VWS V14.01,2013-02-18 08:38:00,
2013-02-18 03:39:00,38.3,31.1,30.34,West,278,0.0,0.0,75,0.00,,---,0.00,VWS V14.01,2013-02-18 08:39:00,
2013-02-18 03:40:00,38.3,31.1,30.34,West,278,0.0,0.0,75,0.00,,---,0.00,VWS V14.01,2013-02-18 08:40:00,
2013-02-18 03:41:00,38.2,31.0,30.34,West,278,0.0,0.0,75,0.00,,---,0.00,VWS V14.01,2013-02-18 08:41:00,
2013-02-18 03:42:00,38.1,30.9,30.35,West,278,0.0,0.0,75,0.00,,---,0.00,VWS V14.01,2013-02-18 08:42:00,
2013-02-18 03:43:00,38.0,30.8,30.35,West,278,0.0,0.0,75,0.00,,---,0.00,VWS V14.01,2013-02-18 08:43:00,
2013-02-18 03:44:00,38.0,31.1,30.35,West,278,0.0,0.0,76,0.00,,---,0.00,VWS V14.01,2013-02-18 08:44:00,
2013-02-18 03:45:00,37.9,31.0,30.35,West,278,0.0,0.0,76,0.00,,---,0.00,VWS V14.01,2013-02-18 08:45:00,
2013-02-18 03:46:00,37.9,31.0,30.35,West,278,0.0,0.0,76,0.00,,---,0.00,VWS V14.01,2013-02-18 08:46:00,
2013-02-18 03:47:00,37.8,30.9,30.35,West,278,0.0,0.0,76,0.00,,---,0.00,VWS V14.01,2013-02-18 08:47:00,
2013-02-18 03:48:00,37.7,30.8,30.35,West,278,0.0,0.0,76,0.00,,---,0.00,VWS V14.01,2013-02-18 08:48:00,
2013-02-18 03:49:00,37.7,30.8,30.35,West,278,0.0,0.0,76,0.00,,---,0.00,VWS V14.01,2013-02-18 08:49:00,
2013-02-18 03:50:00,37.6,31.1,30.35,West,278,0.0,0.0,77,0.00,,---,0.00,VWS V14.01,2013-02-18 08:50:00,
2013-02-18 03:51:00,37.6,30.7,30.34,West,278,0.0,0.0,76,0.00,,---,0.00,VWS V14.01,2013-02-18 08:51:00,
2013-02-18 03:52:00,37.5,31.0,30.34,West,278,0.0,0.0,77,0.00,,---,0.00,VWS V14.01,2013-02-18 08:52:00,
2013-02-18 03:53:00,37.5,31.0,30.34,West,278,0.0,0.0,77,0.00,,---,0.00,VWS V14.01,2013-02-18 08:53:00,
2013-02-18 03:54:00,37.4,30.9,30.34,West,278,0.0,0.0,77,0.00,,---,0.00,VWS V14.01,2013-02-18 08:54:00,
2013-02-18 03:55:00,37.3,31.1,30.34,West,278,0.0,0.0,78,0.00,,---,0.00,VWS V14.01,2013-02-18 08:55:00,
2013-02-18 03:56:00,37.3,31.1,30.34,West,278,0.0,0.0,78,0.00,,---,0.00,VWS V14.01,2013-02-18 08:56:00,
2013-02-18 03:57:00,37.2,31.0,30.34,West,278,0.0,0.0,78,0.00,,---,0.00,VWS V14.01,2013-02-18 08:57:00,
2013-02-18 03:58:00,37.1,30.9,30.34,West,278,0.0,0.0,78,0.00,,---,0.00,VWS V14.01,2013-02-18 08:58:00,
2013-02-18 03:59:00,37.1,30.9,30.34,West,278,0.0,0.0,78,0.00,,---,0.00,VWS V14.01,2013-02-18 08:59:00,
2013-02-18 04:00:00,37.1,30.9,30.34,West,278,0.0,0.0,78,0.00,,---,0.00,VWS V14.01,2013-02-18 09:00:00,
2013-02-18 04:01:00,37.0,30.8,30.34,West,278,0.0,0.0,78,0.00,,---,0.00,VWS V14.01,2013-02-18 09:01:00,
2013-02-18 04:02:00,37.0,30.8,30.34,West,278,0.0,0.0,78,0.00,,---,0.00,VWS V14.01,2013-02-18 09:02:00,
2013-02-18 04:03:00,36.9,30.7,30.34,West,278,0.0,0.0,78,0.00,,---,0.00,VWS V14.01,2013-02-18 09:03:00,
2013-02-18 04:04:00,36.9,31.0,30.34,West,278,0.0,0.0,79,0.00,,---,0.00,VWS V14.01,2013-02-18 09:04:00,
2013-02-18 04:05:00,36.8,30.9,30.34,West,278,0.0,0.0,79,0.00,,---,0.00,VWS V14.01,2013-02-18 09:05:00,
2013-02-18 04:06:00,36.8,30.9,30.34,West,278,0.0,0.0,79,0.00,,---,0.00,VWS V14.01,2013-02-18 09:06:00,
2013-02-18 04:07:00,36.8,30.9,30.34,West,278,0.0,0.0,79,0.00,,---,0.00,VWS V14.01,2013-02-18 09:07:00,
2013-02-18 04:08:00,36.8,30.9,30.34,West,278,0.0,0.0,79,0.00,,---,0.00,VWS V14.01,2013-02-18 09:08:00,
2013-02-18 04:09:00,36.8,30.9,30.33,West,278,0.0,0.0,79,0.00,,---,0.00,VWS V14.01,2013-02-18 09:09:00,
2013-02-18 04:10:00,36.8,30.9,30.33,West,278,0.0,0.0,79,0.00,,---,0.00,VWS V14.01,2013-02-18 09:10:00,
2013-02-18 04:11:00,36.8,30.9,30.33,West,278,0.0,0.0,79,0.00,,---,0.00,VWS V14.01,2013-02-18 09:11:00,
2013-02-18 04:12:00,36.8,30.9,30.33,West,278,0.0,0.0,79,0.00,,---,0.00,VWS V14.01,2013-02-18 09:12:00,
2013-02-18 04:13:00,36.8,30.9,30.33,West,278,0.0,0.0,79,0.00,,---,0.00,VWS V14.01,2013-02-18 09:13:00,
2013-02-18 04:14:00,36.8,30.9,30.33,West,278,0.0,0.0,79,0.00,,---,0.00,VWS V14.01,2013-02-18 09:14:00,
2013-02-18 04:15:00,36.9,31.0,30.33,West,278,0.0,0.0,79,0.00,,---,0.00,VWS V14.01,2013-02-18 09:15:00,
2013-02-18 04:16:00,36.8,30.9,30.33,West,278,0.0,0.0,79,0.00,,---,0.00,VWS V14.01,2013-02-18 09:16:00,
2013-02-18 04:17:00,36.9,31.0,30.33,West,278,0.0,0.0,79,0.00,,---,0.00,VWS V14.01,2013-02-18 09:17:00,
2013-02-18 04:18:00,36.9,31.0,30.33,West,278,0.0,0.0,79,0.00,,---,0.00,VWS V14.01,2013-02-18 09:18:00,
2013-02-18 04:19:00,36.9,31.0,30.33,West,278,0.0,0.0,79,0.00,,---,0.00,VWS V14.01,2013-02-18 09:19:00,
2013-02-18 04:20:00,36.9,31.0,30.33,West,278,0.0,0.0,79,0.00,,---,0.00,VWS V14.01,2013-02-18 09:20:00,
2013-02-18 04:21:00,36.9,31.0,30.33,West,278,0.0,0.0,79,0.00,,---,0.00,VWS V14.01,2013-02-18 09:21:00,
2013-02-18 04:22:00,36.9,30.7,30.33,West,278,0.0,0.0,78,0.00,,---,0.00,VWS V14.01,2013-02-18 09:22:00,
2013-02-18 04:23:00,37.0,30.8,30.33,West,278,0.0,0.0,78,0.00,,---,0.00,VWS V14.01,2013-02-18 09:23:00,
2013-02-18 04:24:00,37.0,30.8,30.33,West,278,0.0,0.0,78,0.00,,---,0.00,VWS V14.01,2013-02-18 09:24:00,
2013-02-18 04:25:00,37.0,30.8,30.33,West,278,0.0,0.0,78,0.00,,---,0.00,VWS V14.01,2013-02-18 09:25:00,
2013-02-18 04:26:00,37.1,30.9,30.33,West,278,0.0,0.0,78,0.00,,---,0.00,VWS V14.01,2013-02-18 09:26:00,
2013-02-18 04:27:00,37.1,30.9,30.33,West,278,0.0,0.0,78,0.00,,---,0.00,VWS V14.01,2013-02-18 09:27:00,
2013-02-18 04:28:00,37.1,30.9,30.33,West,278,0.0,0.0,78,0.00,,---,0.00,VWS V14.01,2013-02-18 09:28:00,
2013-02-18 04:29:00,37.2,31.0,30.33,West,278,0.0,0.0,78,0.00,,---,0.00,VWS V14.01,2013-02-18 09:29:00,
2013-02-18 04:30:00,37.2,31.0,30.33,West,278,0.0,0.0,78,0.00,,---,0.00,VWS V14.01,2013-02-18 09:30:00,
2013-02-18 04:31:00,37.2,31.0,30.33,West,278,0.0,0.0,78,0.00,,---,0.00,VWS V14.01,2013-02-18 09:31:00,
2013-02-18 04:32:00,37.1,30.9,30.33,West,278,0.0,0.0,78,0.00,,---,0.00,VWS V14.01,2013-02-18 09:32:00,
2013-02-18 04:33:00,37.1,30.9,30.32,West,278,0.0,0.0,78,0.00,,---,0.00,VWS V14.01,2013-02-18 09:33:00,
2013-02-18 04:34:00,37.0,30.8,30.32,West,278,0.0,0.0,78,0.00,,---,0.00,VWS V14.01,2013-02-18 09:34:00,
2013-02-18 04:35:00,36.9,30.7,30.32,West,278,0.0,0.0,78,0.00,,---,0.00,VWS V14.01,2013-02-18 09:35:00,
2013-02-18 04:36:00,36.9,30.7,30.32,West,278,0.0,0.0,78,0.00,,---,0.00,VWS V14.01,2013-02-18 09:36:00,
2013-02-18 04:37:00,36.8,30.6,30.32,West,278,0.0,0.0,78,0.00,,---,0.00,VWS V14.01,2013-02-18 09:37:00,
2013-02-18 04:38:00,36.8,30.6,30.32,West,278,0.0,0.0,78,0.00,,---,0.00,VWS V14.01,2013-02-18 09:38:00,
2013-02-18 04:39:00,36.7,30.8,30.32,West,278,0.0,0.0,79,0.00,,---,0.00,VWS V14.01,2013-02-18 09:39:00,
2013-02-18 04:40:00,36.7,30.8,30.32,West,278,0.0,0.0,79,0.00,,---,0.00,VWS V14.01,2013-02-18 09:40:00,
2013-02-18 04:41:00,36.7,30.8,30.32,West,278,0.0,0.0,79,0.00,,---,0.00,VWS V14.01,2013-02-18 09:41:00,
2013-02-18 04:42:00,36.6,30.7,30.32,West,278,0.0,0.0,79,0.00,,---,0.00,VWS V14.01,2013-02-18 09:42:00,
2013-02-18 04:43:00,36.6,30.7,30.32,West,278,0.0,0.0,79,0.00,,---,0.00,VWS V14.01,2013-02-18 09:43:00,
2013-02-18 04:44:00,36.6,30.7,30.32,West,278,0.0,0.0,79,0.00,,---,0.00,VWS V14.01,2013-02-18 09:44:00,
2013-02-18 04:45:00,36.6,30.7,30.32,West,278,0.0,0.0,79,0.00,,---,0.00,VWS V14.01,2013-02-18 09:45:00,
2013-02-18 04:46:00,36.6,30.7,30.31,West,278,0.0,0.0,79,0.00,,---,0.00,VWS V14.01,2013-02-18 09:46:00,
2013-02-18 04:47:00,36.6,30.7,30.31,West,278,0.0,0.0,79,0.00,,---,0.00,VWS V14.01,2013-02-18 09:47:00,
2013-02-18 04:48:00,36.5,30.6,30.31,West,278,0.0,0.0,79,0.00,,---,0.00,VWS V14.01,2013-02-18 09:48:00,
2013-02-18 04:49:00,36.5,30.6,30.31,West,278,0.0,0.0,79,0.00,,---,0.00,VWS V14.01,2013-02-18 09:49:00,
2013-02-18 04:50:00,36.6,30.7,30.31,West,278,0.0,0.0,79,0.00,,---,0.00,VWS V14.01,2013-02-18 09:50:00,
2013-02-18 04:51:00,36.6,30.7,30.31,West,278,0.0,1.0,79,0.00,,---,0.00,VWS V14.01,2013-02-18 09:51:00,
2013-02-18 04:52:00,36.6,30.7,30.31,West,278,0.0,1.0,79,0.00,,---,0.00,VWS V14.01,2013-02-18 09:52:00,
2013-02-18 04:53:00,36.6,30.7,30.31,West,278,0.0,1.0,79,0.00,,---,0.00,VWS V14.01,2013-02-18 09:53:00,
2013-02-18 04:54:00,36.6,30.7,30.31,West,278,0.0,1.0,79,0.00,,---,0.00,VWS V14.01,2013-02-18 09:54:00,
2013-02-18 04:55:00,36.6,30.7,30.31,West,278,0.0,1.0,79,0.00,,---,0.00,VWS V14.01,2013-02-18 09:55:00,
2013-02-18 04:56:00,36.6,30.7,30.31,West,278,0.0,1.0,79,0.00,,---,0.00,VWS V14.01,2013-02-18 09:56:00,
2013-02-18 04:57:00,36.6,30.7,30.31,West,278,0.0,1.0,79,0.00,,---,0.00,VWS V14.01,2013-02-18 09:57:00,
2013-02-18 04:58:00,36.6,30.7,30.31,West,278,0.0,1.0,79,0.00,,---,0.00,VWS V14.01,2013-02-18 09:58:00,
2013-02-18 04:59:00,36.5,30.6,30.31,West,278,0.0,1.0,79,0.00,,---,0.00,VWS V14.01,2013-02-18 09:59:00,
2013-02-18 05:00:00,36.5,30.6,30.31,West,278,0.0,1.0,79,0.00,,---,0.00,VWS V14.01,2013-02-18 10:00:00,
2013-02-18 05:01:00,36.5,30.6,30.31,West,278,0.0,0.0,79,0.00,,---,0.00,VWS V14.01,2013-02-18 10:01:00,
2013-02-18 05:02:00,36.5,30.6,30.31,West,278,0.0,0.0,79,0.00,,---,0.00,VWS V14.01,2013-02-18 10:02:00,
2013-02-18 05:03:00,36.5,30.6,30.31,West,278,0.0,0.0,79,0.00,,---,0.00,VWS V14.01,2013-02-18 10:03:00,
2013-02-18 05:04:00,36.5,30.6,30.31,West,278,0.0,0.0,79,0.00,,---,0.00,VWS V14.01,2013-02-18 10:04:00,
2013-02-18 05:05:00,36.5,30.6,30.31,West,278,0.0,0.0,79,0.00,,---,0.00,VWS V14.01,2013-02-18 10:05:00,
2013-02-18 05:06:00,36.5,30.6,30.31,West,278,0.0,0.0,79,0.00,,---,0.00,VWS V14.01,2013-02-18 10:06:00,
2013-02-18 05:07:00,36.5,30.6,30.31,West,278,0.0,0.0,79,0.00,,---,0.00,VWS V14.01,2013-02-18 10:07:00,
2013-02-18 05:08:00,36.5,30.6,30.31,West,278,0.0,0.0,79,0.00,,---,0.00,VWS V14.01,2013-02-18 10:08:00,
2013-02-18 05:09:00,36.5,30.6,30.31,West,278,0.0,0.0,79,0.00,,---,0.00,VWS V14.01,2013-02-18 10:09:00,
2013-02-18 05:10:00,36.5,30.6,30.31,West,278,0.0,0.0,79,0.00,,---,0.00,VWS V14.01,2013-02-18 10:10:00,
2013-02-18 05:11:00,36.5,30.6,30.31,West,278,0.0,0.0,79,0.00,,---,0.00,VWS V14.01,2013-02-18 10:11:00,
2013-02-18 05:12:00,36.5,30.6,30.31,West,278,0.0,0.0,79,0.00,,---,0.00,VWS V14.01,2013-02-18 10:12:00,
2013-02-18 05:13:00,36.5,30.6,30.31,West,278,0.0,0.0,79,0.00,,---,0.00,VWS V14.01,2013-02-18 10:13:00,
2013-02-18 05:14:00,36.4,30.5,30.31,West,278,0.0,0.0,79,0.00,,---,0.00,VWS V14.01,2013-02-18 10:14:00,
2013-02-18 05:15:00,36.4,30.5,30.31,West,278,0.0,0.0,79,0.00,,---,0.00,VWS V14.01,2013-02-18 10:15:00,
2013-02-18 05:16:00,36.4,30.5,30.31,West,278,0.0,0.0,79,0.00,,---,0.00,VWS V14.01,2013-02-18 10:16:00,
2013-02-18 05:17:00,36.4,30.5,30.31,West,278,0.0,0.0,79,0.00,,---,0.00,VWS V14.01,2013-02-18 10:17:00,
2013-02-18 05:18:00,36.4,30.8,30.31,West,278,0.0,0.0,80,0.00,,---,0.00,VWS V14.01,2013-02-18 10:18:00,
2013-02-18 05:19:00,36.4,30.8,30.32,West,278,0.0,0.0,80,0.00,,---,0.00,VWS V14.01,2013-02-18 10:19:00,
2013-02-18 05:20:00,36.4,30.8,30.32,West,278,0.0,0.0,80,0.00,,---,0.00,VWS V14.01,2013-02-18 10:20:00,
2013-02-18 05:21:00,36.4,30.8,30.32,West,278,0.0,0.0,80,0.00,,---,0.00,VWS V14.01,2013-02-18 10:21:00,
2013-02-18 05:22:00,36.5,30.9,30.31,West,278,0.0,0.0,80,0.00,,---,0.00,VWS V14.01,2013-02-18 10:22:00,
2013-02-18 05:23:00,36.5,30.9,30.31,West,278,0.0,0.0,80,0.00,,---,0.00,VWS V14.01,2013-02-18 10:23:00,
2013-02-18 05:24:00,36.5,30.9,30.31,West,278,0.0,0.0,80,0.00,,---,0.00,VWS V14.01,2013-02-18 10:24:00,
2013-02-18 05:25:00,36.5,30.9,30.31,West,278,0.0,0.0,80,0.00,,---,0.00,VWS V14.01,2013-02-18 10:25:00,
2013-02-18 05:26:00,36.5,30.9,30.31,West,278,0.0,0.0,80,0.00,,---,0.00,VWS V14.01,2013-02-18 10:26:00,
2013-02-18 05:27:00,36.5,30.9,30.31,West,278,0.0,0.0,80,0.00,,---,0.00,VWS V14.01,2013-02-18 10:27:00,
2013-02-18 05:28:00,36.6,31.0,30.31,West,278,0.0,0.0,80,0.00,,---,0.00,VWS V14.01,2013-02-18 10:28:00,
2013-02-18 05:29:00,36.5,30.9,30.31,West,278,0.0,0.0,80,0.00,,---,0.00,VWS V14.01,2013-02-18 10:29:00,
2013-02-18 05:30:00,36.5,30.9,30.31,West,278,0.0,0.0,80,0.00,,---,0.00,VWS V14.01,2013-02-18 10:30:00,
2013-02-18 05:31:00,36.5,30.9,30.31,West,278,0.0,0.0,80,0.00,,---,0.00,VWS V14.01,2013-02-18 10:31:00,
2013-02-18 05:32:00,36.5,30.9,30.31,West,278,0.0,0.0,80,0.00,,---,0.00,VWS V14.01,2013-02-18 10:32:00,
2013-02-18 05:33:00,36.5,30.9,30.31,West,278,0.0,0.0,80,0.00,,---,0.00,VWS V14.01,2013-02-18 10:33:00,
2013-02-18 05:34:00,36.4,30.8,30.31,West,278,0.0,0.0,80,0.00,,---,0.00,VWS V14.01,2013-02-18 10:34:00,
2013-02-18 05:35:00,36.4,30.8,30.31,West,278,0.0,0.0,80,0.00,,---,0.00,VWS V14.01,2013-02-18 10:35:00,
2013-02-18 05:36:00,36.4,30.8,30.31,West,278,0.0,0.0,80,0.00,,---,0.00,VWS V14.01,2013-02-18 10:36:00,
2013-02-18 05:37:00,36.4,30.8,30.31,West,278,0.0,0.0,80,0.00,,---,0.00,VWS V14.01,2013-02-18 10:37:00,
2013-02-18 05:38:00,36.3,30.7,30.30,West,278,0.0,0.0,80,0.00,,---,0.00,VWS V14.01,2013-02-18 10:38:00,
2013-02-18 05:39:00,36.3,30.7,30.30,West,278,0.0,0.0,80,0.00,,---,0.00,VWS V14.01,2013-02-18 10:39:00,
2013-02-18 05:40:00,36.2,30.6,30.30,West,278,0.0,0.0,80,0.00,,---,0.00,VWS V14.01,2013-02-18 10:40:00,
2013-02-18 05:41:00,36.2,30.6,30.30,West,278,0.0,0.0,80,0.00,,---,0.00,VWS V14.01,2013-02-18 10:41:00,
2013-02-18 05:42:00,36.2,30.6,30.30,West,278,0.0,0.0,80,0.00,,---,0.00,VWS V14.01,2013-02-18 10:42:00,
2013-02-18 05:43:00,36.1,30.5,30.30,West,278,0.0,0.0,80,0.00,,---,0.00,VWS V14.01,2013-02-18 10:43:00,
2013-02-18 05:44:00,36.1,30.5,30.30,West,278,0.0,0.0,80,0.00,,---,0.00,VWS V14.01,2013-02-18 10:44:00,
2013-02-18 05:45:00,36.1,30.5,30.30,West,278,0.0,0.0,80,0.00,,---,0.00,VWS V14.01,2013-02-18 10:45:00,
2013-02-18 05:46:00,36.1,30.5,30.30,West,278,0.0,0.0,80,0.00,,---,0.00,VWS V14.01,2013-02-18 10:46:00,
2013-02-18 05:47:00,35.9,30.6,30.30,West,278,0.0,0.0,81,0.00,,---,0.00,VWS V14.01,2013-02-18 10:47:00,
2013-02-18 05:48:00,35.9,30.6,30.30,West,278,0.0,0.0,81,0.00,,---,0.00,VWS V14.01,2013-02-18 10:48:00,
2013-02-18 05:49:00,35.9,30.6,30.30,West,278,0.0,0.0,81,0.00,,---,0.00,VWS V14.01,2013-02-18 10:49:00,
2013-02-18 05:50:00,35.8,30.5,30.30,West,278,0.0,0.0,81,0.00,,---,0.00,VWS V14.01,2013-02-18 10:50:00,
2013-02-18 05:51:00,35.8,30.5,30.30,West,278,0.0,0.0,81,0.00,,---,0.00,VWS V14.01,2013-02-18 10:51:00,
2013-02-18 05:52:00,35.7,30.5,30.30,West,278,0.0,0.0,81,0.00,,---,0.00,VWS V14.01,2013-02-18 10:52:00,
2013-02-18 05:53:00,35.7,30.5,30.30,West,278,0.0,0.0,81,0.00,,---,0.00,VWS V14.01,2013-02-18 10:53:00,
2013-02-18 05:54:00,35.6,30.4,30.30,West,278,0.0,0.0,81,0.00,,---,0.00,VWS V14.01,2013-02-18 10:54:00,
2013-02-18 05:55:00,35.6,30.4,30.30,West,278,0.0,0.0,81,0.00,,---,0.00,VWS V14.01,2013-02-18 10:55:00,
2013-02-18 05:56:00,35.6,30.4,30.30,West,278,0.0,0.0,81,0.00,,---,0.00,VWS V14.01,2013-02-18 10:56:00,
2013-02-18 05:57:00,35.5,30.6,30.30,West,278,0.0,0.0,82,0.00,,---,0.00,VWS V14.01,2013-02-18 10:57:00,
2013-02-18 05:58:00,35.5,30.6,30.30,West,278,0.0,0.0,82,0.00,,---,0.00,VWS V14.01,2013-02-18 10:58:00,
2013-02-18 05:59:00,35.5,30.6,30.30,West,278,0.0,0.0,82,0.00,,---,0.00,VWS V14.01,2013-02-18 10:59:00,
2013-02-18 06:00:00,35.4,30.5,30.30,West,278,0.0,0.0,82,0.00,,---,0.00,VWS V14.01,2013-02-18 11:00:00,
2013-02-18 06:01:00,35.4,30.5,30.30,West,278,0.0,0.0,82,0.00,,---,0.00,VWS V14.01,2013-02-18 11:01:00,
2013-02-18 06:02:00,35.3,30.4,30.30,West,278,0.0,0.0,82,0.00,,---,0.00,VWS V14.01,2013-02-18 11:02:00,
2013-02-18 06:03:00,35.3,30.4,30.30,West,278,0.0,0.0,82,0.00,,---,0.00,VWS V14.01,2013-02-18 11:03:00,
2013-02-18 06:04:00,35.2,30.3,30.30,West,278,0.0,0.0,82,0.00,,---,0.00,VWS V14.01,2013-02-18 11:04:00,
2013-02-18 06:05:00,35.2,30.3,30.30,West,278,0.0,0.0,82,0.00,,---,0.00,VWS V14.01,2013-02-18 11:05:00,
2013-02-18 06:06:00,35.1,30.5,30.29,West,278,0.0,0.0,83,0.00,,---,0.00,VWS V14.01,2013-02-18 11:06:00,
2013-02-18 06:07:00,35.1,30.5,30.29,West,278,0.0,0.0,83,0.00,,---,0.00,VWS V14.01,2013-02-18 11:07:00,
2013-02-18 06:08:00,35.0,30.4,30.29,West,278,0.0,0.0,83,0.00,,---,0.00,VWS V14.01,2013-02-18 11:08:00,
2013-02-18 06:09:00,35.0,30.4,30.29,West,278,0.0,0.0,83,0.00,,---,0.00,VWS V14.01,2013-02-18 11:09:00,
2013-02-18 06:10:00,35.0,30.4,30.29,West,278,0.0,0.0,83,0.00,,---,0.00,VWS V14.01,2013-02-18 11:10:00,
2013-02-18 06:11:00,34.9,30.3,30.29,West,278,0.0,0.0,83,0.00,,---,0.00,VWS V14.01,2013-02-18 11:11:00,
2013-02-18 06:12:00,34.9,30.3,30.29,West,278,0.0,0.0,83,0.00,,---,0.00,VWS V14.01,2013-02-18 11:12:00,
2013-02-18 06:13:00,34.9,30.3,30.29,West,278,0.0,0.0,83,0.00,,---,0.00,VWS V14.01,2013-02-18 11:13:00,
2013-02-18 06:14:00,34.8,30.5,30.29,West,278,0.0,0.0,84,0.00,,---,0.00,VWS V14.01,2013-02-18 11:14:00,
2013-02-18 06:15:00,34.8,30.5,30.29,West,278,0.0,0.0,84,0.00,,---,0.00,VWS V14.01,2013-02-18 11:15:00,
2013-02-18 06:16:00,34.8,30.5,30.29,West,278,0.0,0.0,84,0.00,,---,0.00,VWS V14.01,2013-02-18 11:16:00,
2013-02-18 06:17:00,34.8,30.5,30.29,West,278,0.0,0.0,84,0.00,,---,0.00,VWS V14.01,2013-02-18 11:17:00,
2013-02-18 06:18:00,34.8,30.5,30.29,West,278,0.0,0.0,84,0.00,,---,0.00,VWS V14.01,2013-02-18 11:18:00,
2013-02-18 06:19:00,34.7,30.4,30.29,West,278,0.0,0.0,84,0.00,,---,0.00,VWS V14.01,2013-02-18 11:19:00,
2013-02-18 06:20:00,34.8,30.5,30.29,West,278,0.0,0.0,84,0.00,,---,0.00,VWS V14.01,2013-02-18 11:20:00,
2013-02-18 06:21:00,34.7,30.4,30.29,West,278,0.0,0.0,84,0.00,,---,0.00,VWS V14.01,2013-02-18 11:21:00,
2013-02-18 06:22:00,34.7,30.4,30.29,West,278,0.0,0.0,84,0.00,,---,0.00,VWS V14.01,2013-02-18 11:22:00,
2013-02-18 06:23:00,34.7,30.4,30.29,West,278,0.0,0.0,84,0.00,,---,0.00,VWS V14.01,2013-02-18 11:23:00,
2013-02-18 06:24:00,34.7,30.4,30.29,West,278,0.0,0.0,84,0.00,,---,0.00,VWS V14.01,2013-02-18 11:24:00,
2013-02-18 06:25:00,34.7,30.4,30.29,West,278,0.0,0.0,84,0.00,,---,0.00,VWS V14.01,2013-02-18 11:25:00,
2013-02-18 06:26:00,34.7,30.4,30.29,West,278,0.0,0.0,84,0.00,,---,0.00,VWS V14.01,2013-02-18 11:26:00,
2013-02-18 06:27:00,34.7,30.4,30.29,West,278,0.0,0.0,84,0.00,,---,0.00,VWS V14.01,2013-02-18 11:27:00,
2013-02-18 06:28:00,34.7,30.4,30.29,West,278,0.0,0.0,84,0.00,,---,0.00,VWS V14.01,2013-02-18 11:28:00,
2013-02-18 06:29:00,34.8,30.5,30.29,West,278,0.0,0.0,84,0.00,,---,0.00,VWS V14.01,2013-02-18 11:29:00,
2013-02-18 06:30:00,34.8,30.5,30.29,West,278,0.0,0.0,84,0.00,,---,0.00,VWS V14.01,2013-02-18 11:30:00,
2013-02-18 06:31:00,34.8,30.5,30.28,West,278,0.0,0.0,84,0.00,,---,0.00,VWS V14.01,2013-02-18 11:31:00,
2013-02-18 06:32:00,34.8,30.5,30.28,West,278,0.0,0.0,84,0.00,,---,0.00,VWS V14.01,2013-02-18 11:32:00,
2013-02-18 06:33:00,34.8,30.5,30.28,West,278,0.0,0.0,84,0.00,,---,0.00,VWS V14.01,2013-02-18 11:33:00,
2013-02-18 06:34:00,34.8,30.5,30.28,West,278,0.0,0.0,84,0.00,,---,0.00,VWS V14.01,2013-02-18 11:34:00,
2013-02-18 06:35:00,34.8,30.5,30.28,West,278,0.0,0.0,84,0.00,,---,0.00,VWS V14.01,2013-02-18 11:35:00,
2013-02-18 06:36:00,34.8,30.5,30.29,West,278,0.0,0.0,84,0.00,,---,0.00,VWS V14.01,2013-02-18 11:36:00,
2013-02-18 06:37:00,34.8,30.5,30.29,West,278,0.0,0.0,84,0.00,,---,0.00,VWS V14.01,2013-02-18 11:37:00,
2013-02-18 06:38:00,34.8,30.5,30.29,West,278,0.0,0.0,84,0.00,,---,0.00,VWS V14.01,2013-02-18 11:38:00,
2013-02-18 06:39:00,34.8,30.5,30.28,West,278,0.0,0.0,84,0.00,,---,0.00,VWS V14.01,2013-02-18 11:39:00,
2013-02-18 06:40:00,34.8,30.5,30.29,West,278,0.0,0.0,84,0.00,,---,0.00,VWS V14.01,2013-02-18 11:40:00,
2013-02-18 06:41:00,34.7,30.4,30.29,West,278,0.0,0.0,84,0.00,,---,0.00,VWS V14.01,2013-02-18 11:41:00,
2013-02-18 06:42:00,34.7,30.4,30.29,West,278,0.0,0.0,84,0.00,,---,0.00,VWS V14.01,2013-02-18 11:42:00,
2013-02-18 06:43:00,34.7,30.4,30.29,West,278,0.0,0.0,84,0.00,,---,0.00,VWS V14.01,2013-02-18 11:43:00,
2013-02-18 06:44:00,34.7,30.4,30.29,West,278,0.0,0.0,84,0.00,,---,0.00,VWS V14.01,2013-02-18 11:44:00,
2013-02-18 06:45:00,34.7,30.4,30.29,West,278,0.0,0.0,84,0.00,,---,0.00,VWS V14.01,2013-02-18 11:45:00,
2013-02-18 06:46:00,34.7,30.4,30.29,West,278,0.0,0.0,84,0.00,,---,0.00,VWS V14.01,2013-02-18 11:46:00,
2013-02-18 06:47:00,34.7,30.4,30.29,West,278,0.0,0.0,84,0.00,,---,0.00,VWS V14.01,2013-02-18 11:47:00,
2013-02-18 06:48:00,34.7,30.4,30.29,West,278,0.0,0.0,84,0.00,,---,0.00,VWS V14.01,2013-02-18 11:48:00,
2013-02-18 06:49:00,34.7,30.4,30.29,West,278,0.0,0.0,84,0.00,,---,0.00,VWS V14.01,2013-02-18 11:49:00,
2013-02-18 06:50:00,34.7,30.7,30.29,West,278,0.0,0.0,85,0.00,,---,0.00,VWS V14.01,2013-02-18 11:50:00,
2013-02-18 06:51:00,34.7,30.4,30.29,West,278,0.0,0.0,84,0.00,,---,0.00,VWS V14.01,2013-02-18 11:51:00,
2013-02-18 06:52:00,34.7,30.7,30.29,West,278,0.0,0.0,85,0.00,,---,0.00,VWS V14.01,2013-02-18 11:52:00,
2013-02-18 06:53:00,34.8,30.8,30.29,West,278,0.0,0.0,85,0.00,,---,0.00,VWS V14.01,2013-02-18 11:53:00,
2013-02-18 06:54:00,34.8,30.8,30.29,West,278,0.0,1.0,85,0.00,,---,0.00,VWS V14.01,2013-02-18 11:54:00,
2013-02-18 06:55:00,34.9,30.9,30.29,West,278,0.0,1.0,85,0.00,,---,0.00,VWS V14.01,2013-02-18 11:55:00,
2013-02-18 06:56:00,35.0,31.0,30.29,West,278,0.0,1.0,85,0.00,,---,0.00,VWS V14.01,2013-02-18 11:56:00,
2013-02-18 06:57:00,35.1,31.0,30.29,West,278,0.0,1.0,85,0.00,,---,0.00,VWS V14.01,2013-02-18 11:57:00,
2013-02-18 06:58:00,35.1,31.0,30.29,West,278,0.0,1.0,85,0.00,,---,0.00,VWS V14.01,2013-02-18 11:58:00,
2013-02-18 06:59:00,35.1,31.0,30.29,West,278,0.0,1.0,85,0.00,,---,0.00,VWS V14.01,2013-02-18 11:59:00,
2013-02-18 07:00:00,35.2,31.1,30.29,West,278,0.0,1.0,85,0.00,,---,0.00,VWS V14.01,2013-02-18 12:00:00,
2013-02-18 07:01:00,35.2,30.9,30.29,West,278,0.0,0.0,84,0.00,,---,0.00,VWS V14.01,2013-02-18 12:01:00,
2013-02-18 07:02:00,35.2,30.9,30.29,West,278,0.0,0.0,84,0.00,,---,0.00,VWS V14.01,2013-02-18 12:02:00,
2013-02-18 07:03:00,35.3,31.0,30.29,West,278,0.0,0.0,84,0.00,,---,0.00,VWS V14.01,2013-02-18 12:03:00,
2013-02-18 07:04:00,35.3,31.0,30.29,West,278,0.0,0.0,84,0.00,,---,0.00,VWS V14.01,2013-02-18 12:04:00,
2013-02-18 07:05:00,35.3,31.0,30.28,West,278,0.0,0.0,84,0.00,,---,0.00,VWS V14.01,2013-02-18 12:05:00,
2013-02-18 07:06:00,35.3,31.0,30.28,West,278,0.0,0.0,84,0.00,,---,0.00,VWS V14.01,2013-02-18 12:06:00,
2013-02-18 07:07:00,35.3,31.0,30.28,West,278,0.0,0.0,84,0.00,,---,0.00,VWS V14.01,2013-02-18 12:07:00,
2013-02-18 07:08:00,35.3,31.0,30.28,West,278,0.0,0.0,84,0.00,,---,0.00,VWS V14.01,2013-02-18 12:08:00,
2013-02-18 07:09:00,35.3,31.0,30.28,West,278,0.0,0.0,84,0.00,,---,0.00,VWS V14.01,2013-02-18 12:09:00,
2013-02-18 07:10:00,35.3,31.0,30.28,West,278,0.0,0.0,84,0.00,,---,0.00,VWS V14.01,2013-02-18 12:10:00,
2013-02-18 07:11:00,35.3,31.0,30.28,West,278,0.0,0.0,84,0.00,,---,0.00,VWS V14.01,2013-02-18 12:11:00,
2013-02-18 07:12:00,35.3,31.0,30.28,West,278,0.0,0.0,84,0.00,,---,0.00,VWS V14.01,2013-02-18 12:12:00,
2013-02-18 07:13:00,35.2,30.9,30.27,West,278,0.0,0.0,84,0.00,,---,0.00,VWS V14.01,2013-02-18 12:13:00,
2013-02-18 07:14:00,35.2,30.9,30.27,West,278,0.0,0.0,84,0.00,,---,0.00,VWS V14.01,2013-02-18 12:14:00,
2013-02-18 07:15:00,35.2,30.9,30.27,West,278,0.0,0.0,84,0.00,,---,0.00,VWS V14.01,2013-02-18 12:15:00,
2013-02-18 07:16:00,35.2,30.9,30.27,West,278,0.0,0.0,84,0.00,,---,0.00,VWS V14.01,2013-02-18 12:16:00,
2013-02-18 07:17:00,35.2,30.9,30.27,West,278,0.0,0.0,84,0.00,,---,0.00,VWS V14.01,2013-02-18 12:17:00,
2013-02-18 07:18:00,35.2,30.9,30.27,West,278,0.0,0.0,84,0.00,,---,0.00,VWS V14.01,2013-02-18 12:18:00,
2013-02-18 07:19:00,35.2,30.9,30.27,West,278,0.0,0.0,84,0.00,,---,0.00,VWS V14.01,2013-02-18 12:19:00,
2013-02-18 07:20:00,35.2,30.9,30.27,West,278,0.0,0.0,84,0.00,,---,0.00,VWS V14.01,2013-02-18 12:20:00,
2013-02-18 07:21:00,35.1,30.8,30.27,West,278,0.0,0.0,84,0.00,,---,0.00,VWS V14.01,2013-02-18 12:21:00,
2013-02-18 07:22:00,35.1,30.8,30.27,West,278,0.0,0.0,84,0.00,,---,0.00,VWS V14.01,2013-02-18 12:22:00,
2013-02-18 07:23:00,35.1,30.8,30.27,West,278,0.0,0.0,84,0.00,,---,0.00,VWS V14.01,2013-02-18 12:23:00,
2013-02-18 07:24:00,35.1,30.8,30.27,West,278,0.0,0.0,84,0.00,,---,0.00,VWS V14.01,2013-02-18 12:24:00,
2013-02-18 07:25:00,35.1,30.8,30.27,West,278,0.0,0.0,84,0.00,,---,0.00,VWS V14.01,2013-02-18 12:25:00,
2013-02-18 07:26:00,35.1,30.8,30.27,West,278,0.0,0.0,84,0.00,,---,0.00,VWS V14.01,2013-02-18 12:26:00,
2013-02-18 07:27:00,35.1,30.8,30.27,West,278,0.0,0.0,84,0.00,,---,0.00,VWS V14.01,2013-02-18 12:27:00,
2013-02-18 07:28:00,35.1,30.8,30.27,West,278,0.0,0.0,84,0.00,,---,0.00,VWS V14.01,2013-02-18 12:28:00,
2013-02-18 07:29:00,35.0,30.7,30.27,West,278,0.0,0.0,84,0.00,,---,0.00,VWS V14.01,2013-02-18 12:29:00,
2013-02-18 07:30:00,35.0,31.0,30.27,West,278,0.0,0.0,85,0.00,,---,0.00,VWS V14.01,2013-02-18 12:30:00,
2013-02-18 07:31:00,35.0,31.0,30.27,West,278,0.0,0.0,85,0.00,,---,0.00,VWS V14.01,2013-02-18 12:31:00,
2013-02-18 07:32:00,35.0,31.0,30.27,West,278,0.0,0.0,85,0.00,,---,0.00,VWS V14.01,2013-02-18 12:32:00,
2013-02-18 07:33:00,34.9,30.9,30.27,West,278,0.0,0.0,85,0.00,,---,0.00,VWS V14.01,2013-02-18 12:33:00,
2013-02-18 07:34:00,34.9,30.9,30.27,West,278,0.0,0.0,85,0.00,,---,0.00,VWS V14.01,2013-02-18 12:34:00,
2013-02-18 07:35:00,34.9,30.9,30.27,West,278,0.0,0.0,85,0.00,,---,0.00,VWS V14.01,2013-02-18 12:35:00,
2013-02-18 07:36:00,34.9,30.9,30.27,West,278,0.0,0.0,85,0.00,,---,0.00,VWS V14.01,2013-02-18 12:36:00,
2013-02-18 07:37:00,34.9,30.9,30.27,West,278,0.0,0.0,85,0.00,,---,0.00,VWS V14.01,2013-02-18 12:37:00,
2013-02-18 07:38:00,34.9,30.9,30.27,West,278,0.0,0.0,85,0.00,,---,0.00,VWS V14.01,2013-02-18 12:38:00,
2013-02-18 07:39:00,34.9,30.9,30.27,West,278,0.0,0.0,85,0.00,,---,0.00,VWS V14.01,2013-02-18 12:39:00,
2013-02-18 07:40:00,34.9,30.9,30.27,West,278,0.0,0.0,85,0.00,,---,0.00,VWS V14.01,2013-02-18 12:40:00,
2013-02-18 07:41:00,34.9,30.9,30.27,West,278,0.0,0.0,85,0.00,,---,0.00,VWS V14.01,2013-02-18 12:41:00,
2013-02-18 07:42:00,34.9,30.9,30.27,West,278,0.0,0.0,85,0.00,,---,0.00,VWS V14.01,2013-02-18 12:42:00,
2013-02-18 07:43:00,34.9,30.9,30.27,West,278,0.0,0.0,85,0.00,,---,0.00,VWS V14.01,2013-02-18 12:43:00,
2013-02-18 07:44:00,34.9,30.9,30.27,West,278,0.0,0.0,85,0.00,,---,0.00,VWS V14.01,2013-02-18 12:44:00,
2013-02-18 07:45:00,34.9,30.9,30.27,West,278,0.0,0.0,85,0.00,,---,0.00,VWS V14.01,2013-02-18 12:45:00,
2013-02-18 07:46:00,34.9,30.9,30.27,West,278,0.0,0.0,85,0.00,,---,0.00,VWS V14.01,2013-02-18 12:46:00,
2013-02-18 07:47:00,34.9,30.9,30.27,West,278,0.0,0.0,85,0.00,,---,0.00,VWS V14.01,2013-02-18 12:47:00,
2013-02-18 07:48:00,34.9,30.9,30.27,West,278,0.0,0.0,85,0.00,,---,0.00,VWS V14.01,2013-02-18 12:48:00,
2013-02-18 07:49:00,34.8,30.8,30.27,West,278,0.0,0.0,85,0.00,,---,0.00,VWS V14.01,2013-02-18 12:49:00,
2013-02-18 07:50:00,34.8,30.8,30.27,West,278,0.0,0.0,85,0.00,,---,0.00,VWS V14.01,2013-02-18 12:50:00,
2013-02-18 07:51:00,34.8,30.8,30.27,West,278,0.0,0.0,85,0.00,,---,0.00,VWS V14.01,2013-02-18 12:51:00,
2013-02-18 07:52:00,34.7,30.7,30.27,West,278,0.0,0.0,85,0.00,,---,0.00,VWS V14.01,2013-02-18 12:52:00,
2013-02-18 07:53:00,34.7,30.7,30.27,West,278,0.0,0.0,85,0.00,,---,0.00,VWS V14.01,2013-02-18 12:53:00,
2013-02-18 07:54:00,34.7,30.7,30.27,West,278,0.0,0.0,85,0.00,,---,0.00,VWS V14.01,2013-02-18 12:54:00,
2013-02-18 07:55:00,34.6,30.6,30.27,West,278,0.0,0.0,85,0.00,,---,0.00,VWS V14.01,2013-02-18 12:55:00,
2013-02-18 07:56:00,34.6,30.6,30.27,West,278,0.0,0.0,85,0.00,,---,0.00,VWS V14.01,2013-02-18 12:56:00,
2013-02-18 07:57:00,34.6,30.9,30.27,West,278,0.0,0.0,86,0.00,,---,0.00,VWS V14.01,2013-02-18 12:57:00,
2013-02-18 07:58:00,34.5,30.8,30.27,West,278,0.0,0.0,86,0.00,,---,0.00,VWS V14.01,2013-02-18 12:58:00,
2013-02-18 07:59:00,34.6,30.6,30.26,West,278,0.0,0.0,85,0.00,,---,0.00,VWS V14.01,2013-02-18 12:59:00,
2013-02-18 08:00:00,34.6,30.9,30.26,West,278,0.0,0.0,86,0.00,,---,0.00,VWS V14.01,2013-02-18 13:00:00,
2013-02-18 08:01:00,34.5,30.8,30.26,West,278,0.0,0.0,86,0.00,,---,0.00,VWS V14.01,2013-02-18 13:01:00,
2013-02-18 08:02:00,34.5,30.8,30.26,West,278,0.0,0.0,86,0.00,,---,0.00,VWS V14.01,2013-02-18 13:02:00,
2013-02-18 08:03:00,34.4,30.6,30.26,West,278,0.0,0.0,86,0.00,,---,0.00,VWS V14.01,2013-02-18 13:03:00,
2013-02-18 08:04:00,34.4,30.6,30.27,West,278,0.0,0.0,86,0.00,,---,0.00,VWS V14.01,2013-02-18 13:04:00,
2013-02-18 08:05:00,34.4,30.6,30.27,West,278,0.0,0.0,86,0.00,,---,0.00,VWS V14.01,2013-02-18 13:05:00,
2013-02-18 08:06:00,34.4,30.6,30.27,West,278,0.0,0.0,86,0.00,,---,0.00,VWS V14.01,2013-02-18 13:06:00,
2013-02-18 08:07:00,34.3,30.6,30.27,West,278,0.0,0.0,86,0.00,,---,0.00,VWS V14.01,2013-02-18 13:07:00,
2013-02-18 08:08:00,34.4,30.6,30.27,West,278,0.0,0.0,86,0.00,,---,0.00,VWS V14.01,2013-02-18 13:08:00,
2013-02-18 08:09:00,34.3,30.6,30.27,West,278,0.0,0.0,86,0.00,,---,0.00,VWS V14.01,2013-02-18 13:09:00,
2013-02-18 08:10:00,34.3,30.6,30.26,West,278,0.0,0.0,86,0.00,,---,0.00,VWS V14.01,2013-02-18 13:10:00,
2013-02-18 08:11:00,34.3,30.6,30.26,West,278,0.0,0.0,86,0.00,,---,0.00,VWS V14.01,2013-02-18 13:11:00,
2013-02-18 08:12:00,34.4,30.6,30.26,West,278,0.0,0.0,86,0.00,,---,0.00,VWS V14.01,2013-02-18 13:12:00,
2013-02-18 08:13:00,34.4,30.6,30.26,West,278,0.0,0.0,86,0.00,,---,0.00,VWS V14.01,2013-02-18 13:13:00,
2013-02-18 08:14:00,34.4,30.6,30.26,West,278,0.0,0.0,86,0.00,,---,0.00,VWS V14.01,2013-02-18 13:14:00,
2013-02-18 08:15:00,34.4,30.6,30.26,West,278,0.0,0.0,86,0.00,,---,0.00,VWS V14.01,2013-02-18 13:15:00,
2013-02-18 08:16:00,34.4,30.6,30.26,West,278,0.0,0.0,86,0.00,,---,0.00,VWS V14.01,2013-02-18 13:16:00,
2013-02-18 08:17:00,34.4,30.6,30.26,West,278,0.0,0.0,86,0.00,,---,0.00,VWS V14.01,2013-02-18 13:17:00,
2013-02-18 08:18:00,34.4,30.6,30.26,West,278,0.0,0.0,86,0.00,,---,0.00,VWS V14.01,2013-02-18 13:18:00,
2013-02-18 08:19:00,34.4,30.6,30.26,West,278,0.0,0.0,86,0.00,,---,0.00,VWS V14.01,2013-02-18 13:19:00,
2013-02-18 08:20:00,34.4,30.6,30.26,West,278,0.0,0.0,86,0.00,,---,0.00,VWS V14.01,2013-02-18 13:20:00,
2013-02-18 08:21:00,34.3,30.6,30.26,West,278,0.0,0.0,86,0.00,,---,0.00,VWS V14.01,2013-02-18 13:21:00,
2013-02-18 08:22:00,34.3,30.6,30.26,West,278,0.0,0.0,86,0.00,,---,0.00,VWS V14.01,2013-02-18 13:22:00,
2013-02-18 08:23:00,34.3,30.6,30.26,West,278,0.0,0.0,86,0.00,,---,0.00,VWS V14.01,2013-02-18 13:23:00,
2013-02-18 08:24:00,34.3,30.6,30.26,West,278,0.0,0.0,86,0.00,,---,0.00,VWS V14.01,2013-02-18 13:24:00,
2013-02-18 08:25:00,34.3,30.6,30.26,West,278,0.0,0.0,86,0.00,,---,0.00,VWS V14.01,2013-02-18 13:25:00,
2013-02-18 08:26:00,34.3,30.6,30.25,West,278,0.0,0.0,86,0.00,,---,0.00,VWS V14.01,2013-02-18 13:26:00,
2013-02-18 08:27:00,34.3,30.6,30.25,West,278,0.0,0.0,86,0.00,,---,0.00,VWS V14.01,2013-02-18 13:27:00,
2013-02-18 08:28:00,34.3,30.6,30.25,West,278,0.0,0.0,86,0.00,,---,0.00,VWS V14.01,2013-02-18 13:28:00,
2013-02-18 08:29:00,34.3,30.6,30.25,West,278,0.0,0.0,86,0.00,,---,0.00,VWS V14.01,2013-02-18 13:29:00,
2013-02-18 08:30:00,34.3,30.6,30.25,West,278,0.0,0.0,86,0.00,,---,0.00,VWS V14.01,2013-02-18 13:30:00,
2013-02-18 08:31:00,34.3,30.6,30.25,West,278,0.0,0.0,86,0.00,,---,0.00,VWS V14.01,2013-02-18 13:31:00,
2013-02-18 08:32:00,34.3,30.8,30.25,West,278,0.0,0.0,87,0.00,,---,0.00,VWS V14.01,2013-02-18 13:32:00,
2013-02-18 08:33:00,34.3,30.8,30.25,West,278,0.0,0.0,87,0.00,,---,0.00,VWS V14.01,2013-02-18 13:33:00,
2013-02-18 08:34:00,34.3,30.8,30.26,West,278,0.0,0.0,87,0.00,,---,0.00,VWS V14.01,2013-02-18 13:34:00,
2013-02-18 08:35:00,34.3,30.8,30.25,West,278,0.0,0.0,87,0.00,,---,0.00,VWS V14.01,2013-02-18 13:35:00,
2013-02-18 08:36:00,34.3,30.8,30.25,West,278,0.0,0.0,87,0.00,,---,0.00,VWS V14.01,2013-02-18 13:36:00,
2013-02-18 08:37:00,34.4,30.9,30.25,West,278,0.0,0.0,87,0.00,,---,0.00,VWS V14.01,2013-02-18 13:37:00,
2013-02-18 08:38:00,34.4,30.9,30.25,West,278,0.0,0.0,87,0.00,,---,0.00,VWS V14.01,2013-02-18 13:38:00,
2013-02-18 08:39:00,34.4,30.9,30.25,West,278,0.0,0.0,87,0.00,,---,0.00,VWS V14.01,2013-02-18 13:39:00,
2013-02-18 08:40:00,34.4,30.9,30.25,West,278,0.0,0.0,87,0.00,,---,0.00,VWS V14.01,2013-02-18 13:40:00,
2013-02-18 08:41:00,34.4,30.9,30.25,West,278,0.0,0.0,87,0.00,,---,0.00,VWS V14.01,2013-02-18 13:41:00,
2013-02-18 08:42:00,34.4,30.9,30.25,West,278,0.0,0.0,87,0.00,,---,0.00,VWS V14.01,2013-02-18 13:42:00,
2013-02-18 08:43:00,34.4,30.9,30.25,West,278,0.0,0.0,87,0.00,,---,0.00,VWS V14.01,2013-02-18 13:43:00,
2013-02-18 08:44:00,34.4,30.9,30.25,West,278,0.0,0.0,87,0.00,,---,0.00,VWS V14.01,2013-02-18 13:44:00,
2013-02-18 08:45:00,34.4,30.9,30.25,West,278,0.0,0.0,87,0.00,,---,0.00,VWS V14.01,2013-02-18 13:45:00,
2013-02-18 08:46:00,34.4,30.9,30.25,West,278,0.0,0.0,87,0.00,,---,0.00,VWS V14.01,2013-02-18 13:46:00,
2013-02-18 08:47:00,34.3,30.8,30.25,West,278,0.0,0.0,87,0.00,,---,0.00,VWS V14.01,2013-02-18 13:47:00,
2013-02-18 08:48:00,34.3,30.8,30.25,West,278,0.0,0.0,87,0.00,,---,0.00,VWS V14.01,2013-02-18 13:48:00,
2013-02-18 08:49:00,34.3,30.8,30.25,West,278,0.0,0.0,87,0.00,,---,0.00,VWS V14.01,2013-02-18 13:49:00,
2013-02-18 08:50:00,34.3,30.8,30.25,West,278,0.0,0.0,87,0.00,,---,0.00,VWS V14.01,2013-02-18 13:50:00,
2013-02-18 08:51:00,34.3,30.8,30.25,West,278,0.0,0.0,87,0.00,,---,0.00,VWS V14.01,2013-02-18 13:51:00,
2013-02-18 08:52:00,34.3,30.8,30.25,West,278,0.0,0.0,87,0.00,,---,0.00,VWS V14.01,2013-02-18 13:52:00,
2013-02-18 08:53:00,34.3,30.8,30.25,West,278,0.0,0.0,87,0.00,,---,0.00,VWS V14.01,2013-02-18 13:53:00,
2013-02-18 08:54:00,34.3,30.8,30.25,West,278,0.0,0.0,87,0.00,,---,0.00,VWS V14.01,2013-02-18 13:54:00,
2013-02-18 08:55:00,34.3,30.8,30.25,West,278,0.0,0.0,87,0.00,,---,0.00,VWS V14.01,2013-02-18 13:55:00,
2013-02-18 08:56:00,34.3,30.8,30.25,West,278,0.0,0.0,87,0.00,,---,0.00,VWS V14.01,2013-02-18 13:56:00,
2013-02-18 08:57:00,34.3,30.8,30.25,West,278,0.0,0.0,87,0.00,,---,0.00,VWS V14.01,2013-02-18 13:57:00,
2013-02-18 08:58:00,34.3,30.8,30.25,West,278,0.0,0.0,87,0.00,,---,0.00,VWS V14.01,2013-02-18 13:58:00,
2013-02-18 08:59:00,34.3,30.8,30.25,West,278,0.0,0.0,87,0.00,,---,0.00,VWS V14.01,2013-02-18 13:59:00,
2013-02-18 09:00:00,34.3,30.8,30.25,West,278,0.0,0.0,87,0.00,,---,0.00,VWS V14.01,2013-02-18 14:00:00,
2013-02-18 09:01:00,34.3,30.8,30.24,West,278,0.0,0.0,87,0.00,,---,0.00,VWS V14.01,2013-02-18 14:01:00,
2013-02-18 09:02:00,34.3,30.8,30.24,West,278,0.0,0.0,87,0.00,,---,0.00,VWS V14.01,2013-02-18 14:02:00,
2013-02-18 09:03:00,34.3,30.8,30.24,West,278,0.0,0.0,87,0.00,,---,0.00,VWS V14.01,2013-02-18 14:03:00,
2013-02-18 09:04:00,34.3,30.8,30.24,West,278,0.0,0.0,87,0.00,,---,0.00,VWS V14.01,2013-02-18 14:04:00,
2013-02-18 09:05:00,34.3,30.8,30.24,West,278,0.0,0.0,87,0.00,,---,0.00,VWS V14.01,2013-02-18 14:05:00,
2013-02-18 09:06:00,34.3,30.8,30.24,West,278,0.0,0.0,87,0.00,,---,0.00,VWS V14.01,2013-02-18 14:06:00,
2013-02-18 09:07:00,34.3,30.8,30.24,West,278,0.0,0.0,87,0.00,,---,0.00,VWS V14.01,2013-02-18 14:07:00,
2013-02-18 09:08:00,34.3,30.8,30.24,West,278,0.0,0.0,87,0.00,,---,0.00,VWS V14.01,2013-02-18 14:08:00,
2013-02-18 09:09:00,34.3,31.1,30.24,West,278,0.0,0.0,88,0.00,,---,0.00,VWS V14.01,2013-02-18 14:09:00,
2013-02-18 09:10:00,34.3,31.1,30.24,West,278,0.0,0.0,88,0.00,,---,0.00,VWS V14.01,2013-02-18 14:10:00,
2013-02-18 09:11:00,34.3,31.1,30.24,West,278,0.0,0.0,88,0.00,,---,0.00,VWS V14.01,2013-02-18 14:11:00,
2013-02-18 09:12:00,34.4,31.2,30.24,West,278,0.0,0.0,88,0.00,,---,0.00,VWS V14.01,2013-02-18 14:12:00,
2013-02-18 09:13:00,34.4,31.2,30.24,West,278,0.0,0.0,88,0.00,,---,0.00,VWS V14.01,2013-02-18 14:13:00,
2013-02-18 09:14:00,34.4,31.2,30.24,West,278,0.0,0.0,88,0.00,,---,0.00,VWS V14.01,2013-02-18 14:14:00,
2013-02-18 09:15:00,34.4,31.2,30.24,West,278,0.0,0.0,88,0.00,,---,0.00,VWS V14.01,2013-02-18 14:15:00,
2013-02-18 09:16:00,34.4,31.2,30.24,West,278,0.0,0.0,88,0.00,,---,0.00,VWS V14.01,2013-02-18 14:16:00,
2013-02-18 09:17:00,34.4,31.2,30.24,West,278,0.0,0.0,88,0.00,,---,0.00,VWS V14.01,2013-02-18 14:17:00,
2013-02-18 09:18:00,34.4,31.2,30.24,West,278,0.0,0.0,88,0.00,,---,0.00,VWS V14.01,2013-02-18 14:18:00,
2013-02-18 09:19:00,34.4,31.2,30.24,West,278,0.0,0.0,88,0.00,,---,0.00,VWS V14.01,2013-02-18 14:19:00,
2013-02-18 09:20:00,34.4,31.2,30.23,West,278,0.0,0.0,88,0.00,,---,0.00,VWS V14.01,2013-02-18 14:20:00,
2013-02-18 09:21:00,34.4,31.2,30.23,West,278,0.0,0.0,88,0.00,,---,0.00,VWS V14.01,2013-02-18 14:21:00,
2013-02-18 09:22:00,34.4,31.2,30.23,West,278,0.0,0.0,88,0.00,,---,0.00,VWS V14.01,2013-02-18 14:22:00,
2013-02-18 09:23:00,34.4,31.2,30.23,West,278,0.0,0.0,88,0.00,,---,0.00,VWS V14.01,2013-02-18 14:23:00,
2013-02-18 09:24:00,34.4,31.2,30.23,West,278,0.0,0.0,88,0.00,,---,0.00,VWS V14.01,2013-02-18 14:24:00,
2013-02-18 09:25:00,34.4,31.2,30.23,West,278,0.0,0.0,88,0.00,,---,0.00,VWS V14.01,2013-02-18 14:25:00,
2013-02-18 09:26:00,34.4,31.2,30.23,West,278,0.0,0.0,88,0.00,,---,0.00,VWS V14.01,2013-02-18 14:26:00,
2013-02-18 09:27:00,34.4,31.2,30.23,West,278,0.0,0.0,88,0.00,,---,0.00,VWS V14.01,2013-02-18 14:27:00,
2013-02-18 09:28:00,34.4,31.2,30.23,West,278,0.0,0.0,88,0.00,,---,0.00,VWS V14.01,2013-02-18 14:28:00,
2013-02-18 09:29:00,34.4,31.2,30.23,West,278,0.0,0.0,88,0.00,,---,0.00,VWS V14.01,2013-02-18 14:29:00,
2013-02-18 09:30:00,34.3,31.1,30.23,West,278,0.0,0.0,88,0.00,,---,0.00,VWS V14.01,2013-02-18 14:30:00,
2013-02-18 09:31:00,34.4,31.2,30.23,West,278,0.0,0.0,88,0.00,,---,0.00,VWS V14.01,2013-02-18 14:31:00,
2013-02-18 09:32:00,34.4,31.2,30.23,West,278,0.0,0.0,88,0.00,,---,0.00,VWS V14.01,2013-02-18 14:32:00,
2013-02-18 09:33:00,34.4,31.2,30.22,West,278,0.0,0.0,88,0.00,,---,0.00,VWS V14.01,2013-02-18 14:33:00,
2013-02-18 09:34:00,34.4,31.2,30.22,West,278,0.0,0.0,88,0.00,,---,0.00,VWS V14.01,2013-02-18 14:34:00,
2013-02-18 09:35:00,34.4,31.2,30.22,West,278,0.0,0.0,88,0.00,,---,0.00,VWS V14.01,2013-02-18 14:35:00,
2013-02-18 09:36:00,34.4,31.2,30.22,West,278,0.0,0.0,88,0.00,,---,0.00,VWS V14.01,2013-02-18 14:36:00,
2013-02-18 09:37:00,34.4,31.2,30.22,West,278,0.0,0.0,88,0.00,,---,0.00,VWS V14.01,2013-02-18 14:37:00,
2013-02-18 09:38:00,34.4,31.2,30.22,West,278,0.0,0.0,88,0.00,,---,0.00,VWS V14.01,2013-02-18 14:38:00,
2013-02-18 09:39:00,34.3,31.1,30.22,West,278,0.0,0.0,88,0.00,,---,0.00,VWS V14.01,2013-02-18 14:39:00,
2013-02-18 09:40:00,34.3,31.1,30.22,West,278,0.0,0.0,88,0.00,,---,0.00,VWS V14.01,2013-02-18 14:40:00,
2013-02-18 09:41:00,34.3,31.1,30.22,West,278,0.0,0.0,88,0.00,,---,0.00,VWS V14.01,2013-02-18 14:41:00,
2013-02-18 09:42:00,34.3,31.1,30.22,West,278,0.0,0.0,88,0.00,,---,0.00,VWS V14.01,2013-02-18 14:42:00,
2013-02-18 09:43:00,34.3,31.1,30.22,West,278,0.0,0.0,88,0.00,,---,0.00,VWS V14.01,2013-02-18 14:43:00,
2013-02-18 09:44:00,34.3,30.8,30.22,West,278,0.0,0.0,87,0.00,,---,0.00,VWS V14.01,2013-02-18 14:44:00,
2013-02-18 09:45:00,34.3,31.1,30.22,West,278,0.0,0.0,88,0.00,,---,0.00,VWS V14.01,2013-02-18 14:45:00,
2013-02-18 09:46:00,34.3,31.1,30.22,West,278,0.0,0.0,88,0.00,,---,0.00,VWS V14.01,2013-02-18 14:46:00,
2013-02-18 09:47:00,34.3,31.1,30.21,West,278,0.0,0.0,88,0.00,,---,0.00,VWS V14.01,2013-02-18 14:47:00,
2013-02-18 09:48:00,34.3,31.1,30.21,West,278,0.0,0.0,88,0.00,,---,0.00,VWS V14.01,2013-02-18 14:48:00,
2013-02-18 09:49:00,34.3,31.1,30.22,West,278,0.0,0.0,88,0.00,,---,0.00,VWS V14.01,2013-02-18 14:49:00,
2013-02-18 09:50:00,34.3,31.1,30.22,West,278,0.0,0.0,88,0.00,,---,0.00,VWS V14.01,2013-02-18 14:50:00,
2013-02-18 09:51:00,34.3,31.1,30.22,West,278,0.0,0.0,88,0.00,,---,0.00,VWS V14.01,2013-02-18 14:51:00,
2013-02-18 09:52:00,34.3,31.1,30.22,West,278,0.0,0.0,88,0.00,,---,0.00,VWS V14.01,2013-02-18 14:52:00,
2013-02-18 09:53:00,34.3,31.1,30.21,West,278,0.0,0.0,88,0.00,,---,0.00,VWS V14.01,2013-02-18 14:53:00,
2013-02-18 09:54:00,34.3,31.1,30.21,West,278,0.0,0.0,88,0.00,,---,0.00,VWS V14.01,2013-02-18 14:54:00,
2013-02-18 09:55:00,34.3,31.1,30.21,West,278,0.0,0.0,88,0.00,,---,0.00,VWS V14.01,2013-02-18 14:55:00,
2013-02-18 09:56:00,34.2,31.0,30.21,West,278,0.0,0.0,88,0.00,,---,0.00,VWS V14.01,2013-02-18 14:56:00,
2013-02-18 09:57:00,34.3,31.1,30.21,West,278,0.0,0.0,88,0.00,,---,0.00,VWS V14.01,2013-02-18 14:57:00,
2013-02-18 09:58:00,34.3,31.1,30.21,West,278,0.0,0.0,88,0.00,,---,0.00,VWS V14.01,2013-02-18 14:58:00,
2013-02-18 09:59:00,34.3,31.1,30.21,West,278,0.0,0.0,88,0.00,,---,0.00,VWS V14.01,2013-02-18 14:59:00,
2013-02-18 10:00:00,34.3,31.1,30.21,West,278,0.0,0.0,88,0.00,,---,0.00,VWS V14.01,2013-02-18 15:00:00,
2013-02-18 10:01:00,34.3,31.1,30.21,West,278,0.0,0.0,88,0.00,,---,0.00,VWS V14.01,2013-02-18 15:01:00,
2013-02-18 10:02:00,34.3,31.1,30.21,West,278,0.0,0.0,88,0.00,,---,0.00,VWS V14.01,2013-02-18 15:02:00,
2013-02-18 10:03:00,34.3,31.1,30.21,West,278,0.0,0.0,88,0.00,,---,0.00,VWS V14.01,2013-02-18 15:03:00,
2013-02-18 10:04:00,34.2,31.0,30.21,West,278,0.0,0.0,88,0.00,,---,0.00,VWS V14.01,2013-02-18 15:04:00,
2013-02-18 10:05:00,34.3,31.1,30.21,West,278,0.0,0.0,88,0.00,,---,0.00,VWS V14.01,2013-02-18 15:05:00,
2013-02-18 10:06:00,34.3,31.1,30.21,West,278,0.0,0.0,88,0.00,,---,0.00,VWS V14.01,2013-02-18 15:06:00,
2013-02-18 10:07:00,34.3,31.1,30.21,West,278,0.0,0.0,88,0.00,,---,0.00,VWS V14.01,2013-02-18 15:07:00,
2013-02-18 10:08:00,34.3,31.1,30.21,West,278,0.0,0.0,88,0.00,,---,0.00,VWS V14.01,2013-02-18 15:08:00,
2013-02-18 10:09:00,34.3,31.1,30.21,West,278,0.0,0.0,88,0.00,,---,0.00,VWS V14.01,2013-02-18 15:09:00,
2013-02-18 10:10:00,34.3,31.1,30.21,West,278,0.0,0.0,88,0.00,,---,0.00,VWS V14.01,2013-02-18 15:10:00,
2013-02-18 10:11:00,34.3,31.1,30.20,West,278,0.0,0.0,88,0.00,,---,0.00,VWS V14.01,2013-02-18 15:11:00,
2013-02-18 10:12:00,34.3,31.1,30.20,West,278,0.0,0.0,88,0.00,,---,0.00,VWS V14.01,2013-02-18 15:12:00,
2013-02-18 10:13:00,34.3,31.1,30.20,West,278,0.0,0.0,88,0.00,,---,0.00,VWS V14.01,2013-02-18 15:13:00,
2013-02-18 10:14:00,34.3,31.1,30.20,West,278,0.0,0.0,88,0.00,,---,0.00,VWS V14.01,2013-02-18 15:14:00,
2013-02-18 10:15:00,34.3,31.1,30.20,West,278,0.0,0.0,88,0.00,,---,0.00,VWS V14.01,2013-02-18 15:15:00,
2013-02-18 10:16:00,34.2,31.0,30.20,West,278,0.0,0.0,88,0.00,,---,0.00,VWS V14.01,2013-02-18 15:16:00,
2013-02-18 10:17:00,34.2,31.0,30.20,West,278,0.0,0.0,88,0.00,,---,0.00,VWS V14.01,2013-02-18 15:17:00,
2013-02-18 10:18:00,34.2,31.0,30.20,West,278,0.0,0.0,88,0.00,,---,0.00,VWS V14.01,2013-02-18 15:18:00,
2013-02-18 10:19:00,34.2,31.0,30.20,West,278,0.0,0.0,88,0.00,,---,0.00,VWS V14.01,2013-02-18 15:19:00,
2013-02-18 10:20:00,34.2,31.0,30.20,West,278,0.0,0.0,88,0.00,,---,0.00,VWS V14.01,2013-02-18 15:20:00,
2013-02-18 10:21:00,34.2,31.0,30.20,West,278,0.0,0.0,88,0.00,,---,0.00,VWS V14.01,2013-02-18 15:21:00,
2013-02-18 10:22:00,34.2,31.0,30.20,West,278,0.0,0.0,88,0.00,,---,0.00,VWS V14.01,2013-02-18 15:22:00,
2013-02-18 10:23:00,34.2,31.0,30.20,West,278,0.0,0.0,88,0.00,,---,0.00,VWS V14.01,2013-02-18 15:23:00,
2013-02-18 10:24:00,34.2,31.0,30.20,West,278,0.0,0.0,88,0.00,,---,0.00,VWS V14.01,2013-02-18 15:24:00,
2013-02-18 10:25:00,34.1,30.9,30.20,West,278,0.0,0.0,88,0.00,,---,0.00,VWS V14.01,2013-02-18 15:25:00,
2013-02-18 10:26:00,34.1,30.9,30.20,West,278,0.0,0.0,88,0.00,,---,0.00,VWS V14.01,2013-02-18 15:26:00,
2013-02-18 10:27:00,34.1,30.9,30.20,West,278,0.0,0.0,88,0.00,,---,0.00,VWS V14.01,2013-02-18 15:27:00,
2013-02-18 10:28:00,34.1,30.9,30.19,West,278,0.0,0.0,88,0.00,,---,0.00,VWS V14.01,2013-02-18 15:28:00,
2013-02-18 10:29:00,34.0,30.8,30.19,West,278,0.0,0.0,88,0.00,,---,0.00,VWS V14.01,2013-02-18 15:29:00,
2013-02-18 10:30:00,34.0,30.8,30.20,West,278,0.0,0.0,88,0.00,,---,0.00,VWS V14.01,2013-02-18 15:30:00,
2013-02-18 10:31:00,34.0,30.8,30.20,West,278,0.0,0.0,88,0.00,,---,0.00,VWS V14.01,2013-02-18 15:31:00,
2013-02-18 10:32:00,34.0,30.8,30.20,West,278,0.0,0.0,88,0.00,,---,0.00,VWS V14.01,2013-02-18 15:32:00,
2013-02-18 10:33:00,34.0,30.8,30.19,West,278,0.0,0.0,88,0.00,,---,0.00,VWS V14.01,2013-02-18 15:33:00,
2013-02-18 10:34:00,34.0,30.8,30.19,West,278,0.0,0.0,88,0.00,,---,0.00,VWS V14.01,2013-02-18 15:34:00,
2013-02-18 10:35:00,34.1,30.9,30.19,West,278,0.0,0.0,88,0.00,,---,0.00,VWS V14.01,2013-02-18 15:35:00,
2013-02-18 10:36:00,34.1,30.9,30.19,West,278,0.0,0.0,88,0.00,,---,0.00,VWS V14.01,2013-02-18 15:36:00,
2013-02-18 10:37:00,34.1,30.9,30.19,West,278,0.0,0.0,88,0.00,,---,0.00,VWS V14.01,2013-02-18 15:37:00,
2013-02-18 10:38:00,34.1,30.9,30.19,West,278,0.0,0.0,88,0.00,,---,0.00,VWS V14.01,2013-02-18 15:38:00,
2013-02-18 10:39:00,34.1,30.9,30.19,West,278,0.0,0.0,88,0.00,,---,0.00,VWS V14.01,2013-02-18 15:39:00,
2013-02-18 10:40:00,34.2,31.0,30.19,West,278,0.0,0.0,88,0.00,,---,0.00,VWS V14.01,2013-02-18 15:40:00,
2013-02-18 10:41:00,34.1,30.9,30.19,West,278,0.0,0.0,88,0.00,,---,0.00,VWS V14.01,2013-02-18 15:41:00,
2013-02-18 10:42:00,34.2,31.0,30.19,West,278,0.0,0.0,88,0.00,,---,0.00,VWS V14.01,2013-02-18 15:42:00,
2013-02-18 10:43:00,34.2,31.0,30.19,West,278,0.0,0.0,88,0.00,,---,0.00,VWS V14.01,2013-02-18 15:43:00,
2013-02-18 10:44:00,34.2,31.0,30.19,West,278,0.0,0.0,88,0.00,,---,0.00,VWS V14.01,2013-02-18 15:44:00,
2013-02-18 10:45:00,34.2,31.0,30.19,West,278,0.0,0.0,88,0.00,,---,0.00,VWS V14.01,2013-02-18 15:45:00,
2013-02-18 10:46:00,34.2,31.0,30.18,West,278,0.0,0.0,88,0.00,,---,0.00,VWS V14.01,2013-02-18 15:46:00,
2013-02-18 10:47:00,34.2,31.0,30.18,West,278,0.0,0.0,88,0.00,,---,0.00,VWS V14.01,2013-02-18 15:47:00,
2013-02-18 10:48:00,34.3,31.1,30.18,West,278,0.0,0.0,88,0.00,,---,0.00,VWS V14.01,2013-02-18 15:48:00,
2013-02-18 10:49:00,34.3,31.1,30.18,West,278,0.0,0.0,88,0.00,,---,0.00,VWS V14.01,2013-02-18 15:49:00,
2013-02-18 10:50:00,34.3,31.1,30.18,West,278,0.0,0.0,88,0.00,,---,0.00,VWS V14.01,2013-02-18 15:50:00,
2013-02-18 10:51:00,34.4,31.5,30.18,West,278,0.0,0.0,89,0.00,,---,0.00,VWS V14.01,2013-02-18 15:51:00,
2013-02-18 10:52:00,34.4,31.2,30.18,West,278,0.0,0.0,88,0.00,,---,0.00,VWS V14.01,2013-02-18 15:52:00,
2013-02-18 10:53:00,34.5,31.3,30.18,West,278,0.0,0.0,88,0.00,,---,0.00,VWS V14.01,2013-02-18 15:53:00,
2013-02-18 10:54:00,34.5,31.3,30.18,West,278,0.0,0.0,88,0.00,,---,0.00,VWS V14.01,2013-02-18 15:54:00,
2013-02-18 10:55:00,34.5,31.3,30.18,West,278,0.0,0.0,88,0.00,,---,0.00,VWS V14.01,2013-02-18 15:55:00,
2013-02-18 10:56:00,34.5,31.3,30.18,West,278,0.0,0.0,88,0.00,,---,0.00,VWS V14.01,2013-02-18 15:56:00,
2013-02-18 10:57:00,34.5,31.3,30.18,West,278,0.0,0.0,88,0.00,,---,0.00,VWS V14.01,2013-02-18 15:57:00,
2013-02-18 10:58:00,34.6,31.4,30.18,West,278,0.0,0.0,88,0.00,,---,0.00,VWS V14.01,2013-02-18 15:58:00,
2013-02-18 10:59:00,34.6,31.4,30.18,West,278,0.0,0.0,88,0.00,,---,0.00,VWS V14.01,2013-02-18 15:59:00,
2013-02-18 11:00:00,34.6,31.4,30.18,West,278,0.0,0.0,88,0.00,,---,0.00,VWS V14.01,2013-02-18 16:00:00,
2013-02-18 11:01:00,34.6,31.4,30.18,West,278,0.0,0.0,88,0.00,,---,0.00,VWS V14.01,2013-02-18 16:01:00,
2013-02-18 11:02:00,34.6,31.4,30.18,West,278,0.0,0.0,88,0.00,,---,0.00,VWS V14.01,2013-02-18 16:02:00,
2013-02-18 11:03:00,34.6,31.4,30.18,West,278,0.0,0.0,88,0.00,,---,0.00,VWS V14.01,2013-02-18 16:03:00,
2013-02-18 11:04:00,34.6,31.4,30.18,West,278,0.0,0.0,88,0.00,,---,0.00,VWS V14.01,2013-02-18 16:04:00,
2013-02-18 11:05:00,34.6,31.4,30.18,West,278,0.0,0.0,88,0.00,,---,0.00,VWS V14.01,2013-02-18 16:05:00,
2013-02-18 11:06:00,34.6,31.4,30.17,West,278,0.0,0.0,88,0.00,,---,0.00,VWS V14.01,2013-02-18 16:06:00,
2013-02-18 11:07:00,34.6,31.4,30.17,West,278,0.0,0.0,88,0.00,,---,0.00,VWS V14.01,2013-02-18 16:07:00,
2013-02-18 11:08:00,34.6,31.4,30.17,West,278,0.0,0.0,88,0.00,,---,0.00,VWS V14.01,2013-02-18 16:08:00,
2013-02-18 11:09:00,34.6,31.4,30.17,West,278,0.0,0.0,88,0.00,,---,0.00,VWS V14.01,2013-02-18 16:09:00,
2013-02-18 11:10:00,34.6,31.4,30.17,West,278,0.0,0.0,88,0.00,,---,0.00,VWS V14.01,2013-02-18 16:10:00,
2013-02-18 11:11:00,34.6,31.4,30.17,West,278,0.0,0.0,88,0.00,,---,0.00,VWS V14.01,2013-02-18 16:11:00,
2013-02-18 11:12:00,34.6,31.4,30.17,West,278,0.0,0.0,88,0.00,,---,0.00,VWS V14.01,2013-02-18 16:12:00,
2013-02-18 11:13:00,34.6,31.4,30.17,West,278,0.0,0.0,88,0.00,,---,0.00,VWS V14.01,2013-02-18 16:13:00,
2013-02-18 11:14:00,34.6,31.4,30.17,West,278,0.0,0.0,88,0.00,,---,0.00,VWS V14.01,2013-02-18 16:14:00,
2013-02-18 11:15:00,34.6,31.4,30.17,West,278,0.0,0.0,88,0.00,,---,0.00,VWS V14.01,2013-02-18 16:15:00,
2013-02-18 11:16:00,34.6,31.4,30.17,West,278,0.0,0.0,88,0.00,,---,0.00,VWS V14.01,2013-02-18 16:16:00,
2013-02-18 11:17:00,34.6,31.7,30.17,West,278,0.0,0.0,89,0.00,,---,0.00,VWS V14.01,2013-02-18 16:17:00,
2013-02-18 11:18:00,34.6,31.7,30.17,West,278,0.0,0.0,89,0.00,,---,0.00,VWS V14.01,2013-02-18 16:18:00,
2013-02-18 11:19:00,34.6,31.7,30.17,West,278,0.0,0.0,89,0.00,,---,0.00,VWS V14.01,2013-02-18 16:19:00,
2013-02-18 11:20:00,34.6,31.7,30.17,West,278,0.0,0.0,89,0.00,,---,0.00,VWS V14.01,2013-02-18 16:20:00,
2013-02-18 11:21:00,34.6,31.7,30.17,West,278,0.0,0.0,89,0.00,,---,0.00,VWS V14.01,2013-02-18 16:21:00,
2013-02-18 11:22:00,34.6,31.7,30.17,West,278,0.0,0.0,89,0.00,,---,0.00,VWS V14.01,2013-02-18 16:22:00,
2013-02-18 11:23:00,34.7,31.8,30.17,West,278,0.0,0.0,89,0.00,,---,0.00,VWS V14.01,2013-02-18 16:23:00,
2013-02-18 11:24:00,34.7,31.8,30.17,West,278,0.0,0.0,89,0.00,,---,0.00,VWS V14.01,2013-02-18 16:24:00,
2013-02-18 11:25:00,34.7,31.8,30.17,West,278,0.0,0.0,89,0.00,,---,0.00,VWS V14.01,2013-02-18 16:25:00,
2013-02-18 11:26:00,34.7,31.8,30.17,West,278,0.0,0.0,89,0.00,,---,0.00,VWS V14.01,2013-02-18 16:26:00,
2013-02-18 11:27:00,34.7,31.8,30.17,West,278,0.0,0.0,89,0.00,,---,0.00,VWS V14.01,2013-02-18 16:27:00,
2013-02-18 11:28:00,34.7,31.8,30.16,West,278,0.0,0.0,89,0.00,,---,0.00,VWS V14.01,2013-02-18 16:28:00,
2013-02-18 11:29:00,34.7,31.8,30.16,West,278,0.0,0.0,89,0.00,,---,0.00,VWS V14.01,2013-02-18 16:29:00,
2013-02-18 11:30:00,34.7,31.8,30.17,West,278,0.0,0.0,89,0.00,,---,0.00,VWS V14.01,2013-02-18 16:30:00,
2013-02-18 11:31:00,34.7,31.8,30.16,West,278,0.0,0.0,89,0.00,,---,0.00,VWS V14.01,2013-02-18 16:31:00,
2013-02-18 11:32:00,34.7,31.8,30.17,West,278,0.0,0.0,89,0.00,,---,0.00,VWS V14.01,2013-02-18 16:32:00,
2013-02-18 11:33:00,34.7,31.8,30.17,West,278,0.0,0.0,89,0.00,,---,0.00,VWS V14.01,2013-02-18 16:33:00,
2013-02-18 11:34:00,34.7,31.8,30.17,West,278,0.0,0.0,89,0.00,,---,0.00,VWS V14.01,2013-02-18 16:34:00,
2013-02-18 11:35:00,34.7,31.8,30.17,West,278,0.0,0.0,89,0.00,,---,0.00,VWS V14.01,2013-02-18 16:35:00,
2013-02-18 11:36:00,34.7,31.8,30.16,West,278,0.0,0.0,89,0.00,,---,0.00,VWS V14.01,2013-02-18 16:36:00,
2013-02-18 11:37:00,34.7,31.8,30.16,West,278,0.0,0.0,89,0.00,,---,0.00,VWS V14.01,2013-02-18 16:37:00,
2013-02-18 11:38:00,34.7,31.8,30.16,West,278,0.0,1.0,89,0.00,,---,0.00,VWS V14.01,2013-02-18 16:38:00,
2013-02-18 11:39:00,34.7,31.8,30.16,West,278,0.0,1.0,89,0.00,,---,0.00,VWS V14.01,2013-02-18 16:39:00,
2013-02-18 11:40:00,34.8,31.9,30.16,West,278,0.0,1.0,89,0.00,,---,0.00,VWS V14.01,2013-02-18 16:40:00,
2013-02-18 11:41:00,34.8,31.9,30.16,West,278,0.0,1.0,89,0.00,,---,0.00,VWS V14.01,2013-02-18 16:41:00,
2013-02-18 11:42:00,34.7,31.8,30.16,West,278,0.0,1.0,89,0.00,,---,0.00,VWS V14.01,2013-02-18 16:42:00,
2013-02-18 11:43:00,34.7,31.8,30.16,West,278,0.0,1.0,89,0.00,,---,0.00,VWS V14.01,2013-02-18 16:43:00,
2013-02-18 11:44:00,34.8,31.9,30.16,West,278,0.0,1.0,89,0.00,,---,0.00,VWS V14.01,2013-02-18 16:44:00,
2013-02-18 11:45:00,34.7,31.8,30.16,West,278,0.0,1.0,89,0.00,,---,0.00,VWS V14.01,2013-02-18 16:45:00,
2013-02-18 11:46:00,34.7,31.8,30.16,West,278,0.0,1.0,89,0.00,,---,0.00,VWS V14.01,2013-02-18 16:46:00,
2013-02-18 11:47:00,34.7,31.8,30.16,West,278,0.0,1.0,89,0.00,,---,0.00,VWS V14.01,2013-02-18 16:47:00,
2013-02-18 11:48:00,34.7,31.8,30.16,West,278,0.0,1.0,89,0.00,,---,0.00,VWS V14.01,2013-02-18 16:48:00,
2013-02-18 11:49:00,34.7,31.8,30.16,West,278,0.0,1.0,89,0.00,,---,0.00,VWS V14.01,2013-02-18 16:49:00,
2013-02-18 11:50:00,34.7,31.8,30.15,West,278,0.0,1.0,89,0.00,,---,0.00,VWS V14.01,2013-02-18 16:50:00,
2013-02-18 11:51:00,34.7,31.8,30.15,West,278,0.0,1.0,89,0.00,,---,0.00,VWS V14.01,2013-02-18 16:51:00,
2013-02-18 11:52:00,34.7,31.8,30.15,West,278,0.0,1.0,89,0.00,,---,0.00,VWS V14.01,2013-02-18 16:52:00,
2013-02-18 11:53:00,34.7,31.8,30.15,West,278,0.0,1.0,89,0.00,,---,0.00,VWS V14.01,2013-02-18 16:53:00,
2013-02-18 11:54:00,34.6,31.7,30.15,West,278,0.0,1.0,89,0.00,,---,0.00,VWS V14.01,2013-02-18 16:54:00,
2013-02-18 11:55:00,34.6,31.7,30.15,West,278,0.0,1.0,89,0.00,,---,0.00,VWS V14.01,2013-02-18 16:55:00,
2013-02-18 11:56:00,34.6,31.7,30.15,West,278,0.0,1.0,89,0.00,,---,0.00,VWS V14.01,2013-02-18 16:56:00,
2013-02-18 11:57:00,34.6,31.7,30.15,West,278,0.0,1.0,89,0.00,,---,0.00,VWS V14.01,2013-02-18 16:57:00,
2013-02-18 11:58:00,34.6,31.7,30.15,West,278,0.0,1.0,89,0.00,,---,0.00,VWS V14.01,2013-02-18 16:58:00,
2013-02-18 11:59:00,34.6,31.7,30.15,West,278,0.0,1.0,89,0.00,,---,0.00,VWS V14.01,2013-02-18 16:59:00,
2013-02-18 12:00:00,34.6,31.7,30.15,West,278,0.0,1.0,89,0.00,,---,0.00,VWS V14.01,2013-02-18 17:00:00,
2013-02-18 12:01:00,34.6,31.7,30.15,West,278,0.0,0.0,89,0.00,,---,0.00,VWS V14.01,2013-02-18 17:01:00,
2013-02-18 12:02:00,34.6,31.7,30.15,West,278,0.0,0.0,89,0.00,,---,0.00,VWS V14.01,2013-02-18 17:02:00,
2013-02-18 12:03:00,34.6,31.7,30.15,West,278,0.0,0.0,89,0.00,,---,0.00,VWS V14.01,2013-02-18 17:03:00,
2013-02-18 12:04:00,34.6,31.7,30.15,West,278,0.0,0.0,89,0.00,,---,0.00,VWS V14.01,2013-02-18 17:04:00,
2013-02-18 12:05:00,34.6,31.7,30.15,West,278,0.0,0.0,89,0.00,,---,0.00,VWS V14.01,2013-02-18 17:05:00,
2013-02-18 12:06:00,34.6,31.7,30.15,West,278,0.0,0.0,89,0.00,,---,0.00,VWS V14.01,2013-02-18 17:06:00,
2013-02-18 12:07:00,34.6,31.7,30.15,West,278,0.0,1.0,89,0.00,,---,0.00,VWS V14.01,2013-02-18 17:07:00,
2013-02-18 12:08:00,34.7,32.1,30.15,West,278,0.0,1.0,90,0.00,,---,0.00,VWS V14.01,2013-02-18 17:08:00,
2013-02-18 12:09:00,34.9,32.3,30.15,West,278,0.0,1.0,90,0.00,,---,0.00,VWS V14.01,2013-02-18 17:09:00,
2013-02-18 12:10:00,35.0,32.4,30.15,West,278,0.0,1.0,90,0.00,,---,0.00,VWS V14.01,2013-02-18 17:10:00,
2013-02-18 12:11:00,35.2,32.8,30.15,West,278,0.0,1.0,91,0.00,,---,0.00,VWS V14.01,2013-02-18 17:11:00,
2013-02-18 12:12:00,35.3,32.9,30.15,West,278,0.0,1.0,91,0.00,,---,0.00,VWS V14.01,2013-02-18 17:12:00,
2013-02-18 12:13:00,35.4,33.0,30.15,West,278,0.0,1.0,91,0.00,,---,0.00,VWS V14.01,2013-02-18 17:13:00,
2013-02-18 12:14:00,35.5,33.1,30.15,West,278,0.0,1.0,91,0.00,,---,0.00,VWS V14.01,2013-02-18 17:14:00,
2013-02-18 12:15:00,35.6,33.2,30.15,West,278,0.0,1.0,91,0.00,,---,0.00,VWS V14.01,2013-02-18 17:15:00,
2013-02-18 12:16:00,35.8,33.4,30.15,West,278,0.0,1.0,91,0.00,,---,0.00,VWS V14.01,2013-02-18 17:16:00,
2013-02-18 12:17:00,35.9,33.5,30.15,West,278,0.0,1.0,91,0.00,,---,0.00,VWS V14.01,2013-02-18 17:17:00,
2013-02-18 12:18:00,36.0,33.4,30.15,West,278,0.0,1.0,90,0.00,,---,0.00,VWS V14.01,2013-02-18 17:18:00,
2013-02-18 12:19:00,36.1,33.7,30.15,West,278,0.0,1.0,91,0.00,,---,0.00,VWS V14.01,2013-02-18 17:19:00,
2013-02-18 12:20:00,36.2,33.8,30.15,West,278,0.0,1.0,91,0.00,,---,0.00,VWS V14.01,2013-02-18 17:20:00,
2013-02-18 12:21:00,36.4,34.0,30.15,West,278,0.0,1.0,91,0.00,,---,0.00,VWS V14.01,2013-02-18 17:21:00,
2013-02-18 12:22:00,36.6,34.2,30.15,West,278,0.0,3.0,91,0.00,,---,0.00,VWS V14.01,2013-02-18 17:22:00,
2013-02-18 12:23:00,36.9,34.5,30.15,West,278,0.0,3.0,91,0.00,,---,0.00,VWS V14.01,2013-02-18 17:23:00,
2013-02-18 12:24:00,37.1,34.7,30.15,West,278,0.0,3.0,91,0.00,,---,0.00,VWS V14.01,2013-02-18 17:24:00,
2013-02-18 12:25:00,37.4,35.0,30.15,West,278,0.0,3.0,91,0.00,,---,0.00,VWS V14.01,2013-02-18 17:25:00,
2013-02-18 12:26:00,37.5,35.1,30.15,West,278,0.0,3.0,91,0.00,,---,0.00,VWS V14.01,2013-02-18 17:26:00,
2013-02-18 12:27:00,37.7,35.3,30.15,West,278,0.0,3.0,91,0.00,,---,0.00,VWS V14.01,2013-02-18 17:27:00,
2013-02-18 12:28:00,37.8,35.1,30.15,West,278,0.0,3.0,90,0.00,,---,0.00,VWS V14.01,2013-02-18 17:28:00,
2013-02-18 12:29:00,37.9,35.2,30.15,West,278,0.0,3.0,90,0.00,,---,0.00,VWS V14.01,2013-02-18 17:29:00,
2013-02-18 12:30:00,38.0,35.3,30.15,West,278,0.0,3.0,90,0.00,,---,0.00,VWS V14.01,2013-02-18 17:30:00,
2013-02-18 12:31:00,38.2,35.5,30.15,West,278,0.0,2.0,90,0.00,,---,0.00,VWS V14.01,2013-02-18 17:31:00,
2013-02-18 12:32:00,38.4,35.7,30.15,West,278,0.0,2.0,90,0.00,,---,0.00,VWS V14.01,2013-02-18 17:32:00,
2013-02-18 12:33:00,38.5,35.8,30.15,West,278,0.0,2.0,90,0.00,,---,0.00,VWS V14.01,2013-02-18 17:33:00,
2013-02-18 12:34:00,38.6,35.6,30.15,West,278,0.0,2.0,89,0.00,,---,0.00,VWS V14.01,2013-02-18 17:34:00,
2013-02-18 12:35:00,38.6,35.6,30.15,West,278,0.0,2.0,89,0.00,,---,0.00,VWS V14.01,2013-02-18 17:35:00,
2013-02-18 12:36:00,38.7,35.7,30.15,West,278,0.0,3.0,89,0.00,,---,0.00,VWS V14.01,2013-02-18 17:36:00,
2013-02-18 12:37:00,38.8,35.8,30.15,West,277,0.0,3.0,89,0.00,,---,0.00,VWS V14.01,2013-02-18 17:37:00,
2013-02-18 12:38:00,39.0,36.0,30.15,West,277,0.0,3.0,89,0.00,,---,0.00,VWS V14.01,2013-02-18 17:38:00,
2013-02-18 12:39:00,39.0,36.0,30.15,West,277,0.0,3.0,89,0.00,,---,0.00,VWS V14.01,2013-02-18 17:39:00,
2013-02-18 12:40:00,39.1,36.1,30.15,West,277,0.0,3.0,89,0.00,,---,0.00,VWS V14.01,2013-02-18 17:40:00,
2013-02-18 12:41:00,39.2,36.2,30.15,West,277,0.0,3.0,89,0.00,,---,0.00,VWS V14.01,2013-02-18 17:41:00,
2013-02-18 12:42:00,39.3,36.3,30.15,West,277,0.0,3.0,89,0.00,,---,0.00,VWS V14.01,2013-02-18 17:42:00,
2013-02-18 12:43:00,39.3,36.0,30.15,West,277,0.0,3.0,88,0.00,,---,0.00,VWS V14.01,2013-02-18 17:43:00,
2013-02-18 12:44:00,39.4,36.2,30.15,West,277,0.0,3.0,88,0.00,,---,0.00,VWS V14.01,2013-02-18 17:44:00,
2013-02-18 12:45:00,39.5,36.2,30.15,West,277,0.0,3.0,88,0.00,,---,0.00,VWS V14.01,2013-02-18 17:45:00,
2013-02-18 12:46:00,39.5,36.2,30.15,West,277,0.0,3.0,88,0.00,,---,0.00,VWS V14.01,2013-02-18 17:46:00,
2013-02-18 12:47:00,39.6,36.3,30.15,West,277,0.0,3.0,88,0.00,,---,0.00,VWS V14.01,2013-02-18 17:47:00,
2013-02-18 12:48:00,39.7,36.4,30.15,West,277,0.0,3.0,88,0.00,,---,0.00,VWS V14.01,2013-02-18 17:48:00,
2013-02-18 12:49:00,39.7,36.4,30.15,West,277,0.0,3.0,88,0.00,,---,0.00,VWS V14.01,2013-02-18 17:49:00,
2013-02-18 12:50:00,39.8,36.5,30.15,West,277,0.0,3.0,88,0.00,,---,0.00,VWS V14.01,2013-02-18 17:50:00,
2013-02-18 12:51:00,39.9,36.6,30.15,West,277,0.0,3.0,88,0.00,,---,0.00,VWS V14.01,2013-02-18 17:51:00,
2013-02-18 12:52:00,39.9,36.6,30.15,West,277,0.0,3.0,88,0.00,,---,0.00,VWS V14.01,2013-02-18 17:52:00,
2013-02-18 12:53:00,40.0,36.7,30.15,West,277,0.0,3.0,88,0.00,,---,0.00,VWS V14.01,2013-02-18 17:53:00,
2013-02-18 12:54:00,40.0,36.7,30.15,West,277,0.0,3.0,88,0.00,,---,0.00,VWS V14.01,2013-02-18 17:54:00,
2013-02-18 12:55:00,40.0,36.7,30.15,West,277,0.0,3.0,88,0.00,,---,0.00,VWS V14.01,2013-02-18 17:55:00,
2013-02-18 12:56:00,40.0,36.7,30.15,West,277,0.0,3.0,88,0.00,,---,0.00,VWS V14.01,2013-02-18 17:56:00,
2013-02-18 12:57:00,40.0,36.5,30.15,West,277,0.0,3.0,87,0.00,,---,0.00,VWS V14.01,2013-02-18 17:57:00,
2013-02-18 12:58:00,40.0,36.5,30.15,West,277,0.0,3.0,87,0.00,,---,0.00,VWS V14.01,2013-02-18 17:58:00,
2013-02-18 12:59:00,40.1,36.8,30.15,West,277,0.0,3.0,88,0.00,,---,0.00,VWS V14.01,2013-02-18 17:59:00,
2013-02-18 13:00:00,40.1,36.8,30.15,West,277,0.0,0.0,88,0.00,,---,0.00,VWS V14.01,2013-02-18 18:00:00,
2013-02-18 13:01:00,40.1,36.8,30.15,West,277,0.0,0.0,88,0.00,,---,0.00,VWS V14.01,2013-02-18 18:01:00,
2013-02-18 13:02:00,40.1,36.8,30.15,West,277,0.0,0.0,88,0.00,,---,0.00,VWS V14.01,2013-02-18 18:02:00,
2013-02-18 13:03:00,40.1,36.5,30.15,West,277,0.0,0.0,87,0.00,,---,0.00,VWS V14.01,2013-02-18 18:03:00,
2013-02-18 13:04:00,40.1,36.5,30.15,West,277,0.0,0.0,87,0.00,,---,0.00,VWS V14.01,2013-02-18 18:04:00,
2013-02-18 13:05:00,40.0,36.5,30.15,West,277,0.0,0.0,87,0.00,,---,0.00,VWS V14.01,2013-02-18 18:05:00,
2013-02-18 13:06:00,40.0,36.5,30.15,West,277,0.0,0.0,87,0.00,,---,0.00,VWS V14.01,2013-02-18 18:06:00,
2013-02-18 13:07:00,39.9,36.3,30.15,West,278,0.0,0.0,87,0.00,,---,0.00,VWS V14.01,2013-02-18 18:07:00,
2013-02-18 13:08:00,39.9,36.3,30.15,West,278,0.0,0.0,87,0.00,,---,0.00,VWS V14.01,2013-02-18 18:08:00,
2013-02-18 13:09:00,39.9,36.3,30.15,West,278,0.0,0.0,87,0.00,,---,0.00,VWS V14.01,2013-02-18 18:09:00,
2013-02-18 13:10:00,39.9,36.3,30.14,West,278,0.0,0.0,87,0.00,,---,0.00,VWS V14.01,2013-02-18 18:10:00,
2013-02-18 13:11:00,39.9,36.6,30.14,West,277,0.0,0.0,88,0.00,,---,0.00,VWS V14.01,2013-02-18 18:11:00,
2013-02-18 13:12:00,39.9,36.6,30.15,West,278,0.0,0.0,88,0.00,,---,0.00,VWS V14.01,2013-02-18 18:12:00,
2013-02-18 13:13:00,39.9,36.6,30.15,West,278,0.0,0.0,88,0.00,,---,0.00,VWS V14.01,2013-02-18 18:13:00,
2013-02-18 13:14:00,40.0,36.7,30.15,West,278,0.0,0.0,88,0.00,,---,0.00,VWS V14.01,2013-02-18 18:14:00,
2013-02-18 13:15:00,40.0,36.7,30.15,West,278,0.0,0.0,88,0.00,,---,0.00,VWS V14.01,2013-02-18 18:15:00,
2013-02-18 13:16:00,40.0,36.7,30.15,West,278,0.0,1.0,88,0.00,,---,0.00,VWS V14.01,2013-02-18 18:16:00,
2013-02-18 13:17:00,40.0,36.7,30.15,West,277,0.0,2.0,88,0.00,,---,0.00,VWS V14.01,2013-02-18 18:17:00,
2013-02-18 13:18:00,40.0,36.7,30.15,West,277,0.0,2.0,88,0.00,,---,0.00,VWS V14.01,2013-02-18 18:18:00,
2013-02-18 13:19:00,40.1,36.8,30.15,West,278,0.0,2.0,88,0.00,,---,0.00,VWS V14.01,2013-02-18 18:19:00,
2013-02-18 13:20:00,40.1,36.8,30.15,West,277,0.0,2.0,88,0.00,,---,0.00,VWS V14.01,2013-02-18 18:20:00,
2013-02-18 13:21:00,40.0,36.7,30.14,West,277,0.0,2.0,88,0.00,,---,0.00,VWS V14.01,2013-02-18 18:21:00,
2013-02-18 13:22:00,40.0,36.7,30.14,West,278,0.0,2.0,88,0.00,,---,0.00,VWS V14.01,2013-02-18 18:22:00,
2013-02-18 13:23:00,40.0,36.7,30.15,West,277,0.0,2.0,88,0.00,,---,0.00,VWS V14.01,2013-02-18 18:23:00,
2013-02-18 13:24:00,40.1,36.8,30.15,West,278,0.0,2.0,88,0.00,,---,0.00,VWS V14.01,2013-02-18 18:24:00,
2013-02-18 13:25:00,40.1,36.8,30.14,West,278,0.0,2.0,88,0.00,,---,0.00,VWS V14.01,2013-02-18 18:25:00,
2013-02-18 13:26:00,40.2,36.9,30.15,West,278,0.0,2.0,88,0.00,,---,0.00,VWS V14.01,2013-02-18 18:26:00,
2013-02-18 13:27:00,40.2,36.9,30.15,West,278,0.0,2.0,88,0.00,,---,0.00,VWS V14.01,2013-02-18 18:27:00,
2013-02-18 13:28:00,40.2,36.9,30.14,West,278,0.0,2.0,88,0.00,,---,0.00,VWS V14.01,2013-02-18 18:28:00,
2013-02-18 13:29:00,40.2,36.9,30.14,West,277,0.0,2.0,88,0.00,,---,0.00,VWS V14.01,2013-02-18 18:29:00,
2013-02-18 13:30:00,40.2,36.9,30.14,West,277,0.0,2.0,88,0.00,,---,0.00,VWS V14.01,2013-02-18 18:30:00,
2013-02-18 13:31:00,40.2,36.9,30.14,West,278,0.0,0.0,88,0.00,,---,0.00,VWS V14.01,2013-02-18 18:31:00,
2013-02-18 13:32:00,40.2,36.9,30.14,West,277,0.0,0.0,88,0.00,,---,0.00,VWS V14.01,2013-02-18 18:32:00,
2013-02-18 13:33:00,40.2,36.9,30.14,West,278,0.0,0.0,88,0.00,,---,0.00,VWS V14.01,2013-02-18 18:33:00,
2013-02-18 13:34:00,40.1,36.8,30.14,West,277,0.0,0.0,88,0.00,,---,0.00,VWS V14.01,2013-02-18 18:34:00,
2013-02-18 13:35:00,40.1,36.8,30.14,West,278,0.0,0.0,88,0.00,,---,0.00,VWS V14.01,2013-02-18 18:35:00,
2013-02-18 13:36:00,40.1,36.8,30.14,West,278,0.0,1.0,88,0.00,,---,0.00,VWS V14.01,2013-02-18 18:36:00,
2013-02-18 13:37:00,40.1,36.8,30.14,West,278,0.0,1.0,88,0.00,,---,0.00,VWS V14.01,2013-02-18 18:37:00,
2013-02-18 13:38:00,40.1,36.8,30.14,West,277,0.0,1.0,88,0.00,,---,0.00,VWS V14.01,2013-02-18 18:38:00,
2013-02-18 13:39:00,40.2,36.9,30.14,West,277,0.0,1.0,88,0.00,,---,0.00,VWS V14.01,2013-02-18 18:39:00,
2013-02-18 13:40:00,40.2,36.9,30.14,West,278,0.0,1.0,88,0.00,,---,0.00,VWS V14.01,2013-02-18 18:40:00,
2013-02-18 13:41:00,40.1,36.8,30.14,West,278,0.0,1.0,88,0.00,,---,0.00,VWS V14.01,2013-02-18 18:41:00,
2013-02-18 13:42:00,40.2,36.9,30.14,West,278,0.0,1.0,88,0.00,,---,0.00,VWS V14.01,2013-02-18 18:42:00,
2013-02-18 13:43:00,40.1,36.8,30.14,West,278,0.0,1.0,88,0.00,,---,0.00,VWS V14.01,2013-02-18 18:43:00,
2013-02-18 13:44:00,40.1,36.8,30.14,West,278,0.0,1.0,88,0.00,,---,0.00,VWS V14.01,2013-02-18 18:44:00,
2013-02-18 13:45:00,40.1,36.8,30.14,West,277,0.0,1.0,88,0.00,,---,0.00,VWS V14.01,2013-02-18 18:45:00,
2013-02-18 13:46:00,40.1,36.8,30.14,West,278,0.0,1.0,88,0.00,,---,0.00,VWS V14.01,2013-02-18 18:46:00,
2013-02-18 13:47:00,40.1,36.8,30.14,West,278,0.0,1.0,88,0.00,,---,0.00,VWS V14.01,2013-02-18 18:47:00,
2013-02-18 13:48:00,40.1,36.8,30.14,West,278,0.0,1.0,88,0.00,,---,0.00,VWS V14.01,2013-02-18 18:48:00,
2013-02-18 13:49:00,40.1,36.8,30.14,West,278,0.0,1.0,88,0.00,,---,0.00,VWS V14.01,2013-02-18 18:49:00,
2013-02-18 13:50:00,40.1,36.8,30.13,West,277,0.0,1.0,88,0.00,,---,0.00,VWS V14.01,2013-02-18 18:50:00,
2013-02-18 13:51:00,40.1,36.8,30.13,West,278,0.0,1.0,88,0.00,,---,0.00,VWS V14.01,2013-02-18 18:51:00,
2013-02-18 13:52:00,40.1,36.8,30.13,West,277,0.0,1.0,88,0.00,,---,0.00,VWS V14.01,2013-02-18 18:52:00,
2013-02-18 13:53:00,40.1,37.1,30.13,West,278,0.0,1.0,89,0.00,,---,0.00,VWS V14.01,2013-02-18 18:53:00,
2013-02-18 13:54:00,40.2,37.2,30.13,West,278,0.0,1.0,89,0.00,,---,0.00,VWS V14.01,2013-02-18 18:54:00,
2013-02-18 13:55:00,40.3,37.3,30.13,West,278,0.0,1.0,89,0.00,,---,0.00,VWS V14.01,2013-02-18 18:55:00,
2013-02-18 13:56:00,40.4,37.4,30.13,West,278,0.0,1.0,89,0.00,,---,0.00,VWS V14.01,2013-02-18 18:56:00,
2013-02-18 13:57:00,40.6,37.9,30.13,West,277,0.0,1.0,90,0.00,,---,0.00,VWS V14.01,2013-02-18 18:57:00,
2013-02-18 13:58:00,40.6,37.9,30.13,West,278,0.0,1.0,90,0.00,,---,0.00,VWS V14.01,2013-02-18 18:58:00,
2013-02-18 13:59:00,40.7,38.0,30.13,West,277,0.0,1.0,90,0.00,,---,0.00,VWS V14.01,2013-02-18 18:59:00,
2013-02-18 14:00:00,40.8,37.8,30.13,West,278,0.0,1.0,89,0.00,,---,0.00,VWS V14.01,2013-02-18 19:00:00,
2013-02-18 14:01:00,40.9,37.9,30.13,West,278,0.0,0.0,89,0.00,,---,0.00,VWS V14.01,2013-02-18 19:01:00,
2013-02-18 14:02:00,40.9,38.2,30.13,West,278,0.0,0.0,90,0.00,,---,0.00,VWS V14.01,2013-02-18 19:02:00,
2013-02-18 14:03:00,41.0,38.0,30.13,West,278,0.0,0.0,89,0.00,,---,0.00,VWS V14.01,2013-02-18 19:03:00,
2013-02-18 14:04:00,41.1,38.1,30.13,West,278,0.0,0.0,89,0.00,,---,0.00,VWS V14.01,2013-02-18 19:04:00,
2013-02-18 14:05:00,41.1,38.1,30.13,West,278,0.0,0.0,89,0.00,,---,0.00,VWS V14.01,2013-02-18 19:05:00,
2013-02-18 14:06:00,41.1,38.1,30.13,West,278,0.0,0.0,89,0.00,,---,0.00,VWS V14.01,2013-02-18 19:06:00,
2013-02-18 14:07:00,41.2,38.2,30.13,West,278,0.0,1.0,89,0.00,,---,0.00,VWS V14.01,2013-02-18 19:07:00,
2013-02-18 14:08:00,41.3,38.3,30.13,West,278,0.0,1.0,89,0.00,,---,0.00,VWS V14.01,2013-02-18 19:08:00,
2013-02-18 14:09:00,41.5,38.8,30.13,West,278,0.0,1.0,90,0.00,,---,0.00,VWS V14.01,2013-02-18 19:09:00,
2013-02-18 14:10:00,41.6,38.9,30.13,West,278,0.0,1.0,90,0.00,,---,0.00,VWS V14.01,2013-02-18 19:10:00,
2013-02-18 14:11:00,41.7,39.0,30.13,West,278,0.0,1.0,90,0.00,,---,0.00,VWS V14.01,2013-02-18 19:11:00,
2013-02-18 14:12:00,41.8,39.1,30.13,West,278,0.0,1.0,90,0.00,,---,0.00,VWS V14.01,2013-02-18 19:12:00,
2013-02-18 14:13:00,41.9,39.2,30.13,West,278,0.0,1.0,90,0.00,,---,0.00,VWS V14.01,2013-02-18 19:13:00,
2013-02-18 14:14:00,42.1,39.4,30.13,West,278,0.0,1.0,90,0.00,,---,0.00,VWS V14.01,2013-02-18 19:14:00,
2013-02-18 14:15:00,42.2,39.5,30.13,West,278,0.0,1.0,90,0.00,,---,0.00,VWS V14.01,2013-02-18 19:15:00,
2013-02-18 14:16:00,42.3,39.6,30.13,West,278,0.0,1.0,90,0.00,,---,0.00,VWS V14.01,2013-02-18 19:16:00,
2013-02-18 14:17:00,42.5,39.8,30.13,West,278,0.0,1.0,90,0.00,,---,0.00,VWS V14.01,2013-02-18 19:17:00,
2013-02-18 14:18:00,42.6,39.9,30.13,West,278,0.0,1.0,90,0.00,,---,0.00,VWS V14.01,2013-02-18 19:18:00,
2013-02-18 14:19:00,42.7,40.0,30.13,West,278,0.0,1.0,90,0.00,,---,0.00,VWS V14.01,2013-02-18 19:19:00,
2013-02-18 14:20:00,42.8,39.8,30.13,West,278,0.0,1.0,89,0.00,,---,0.00,VWS V14.01,2013-02-18 19:20:00,
2013-02-18 14:21:00,42.9,39.9,30.14,West,278,0.0,1.0,89,0.00,,---,0.00,VWS V14.01,2013-02-18 19:21:00,
2013-02-18 14:22:00,42.9,39.9,30.14,West,278,0.0,1.0,89,0.00,,---,0.00,VWS V14.01,2013-02-18 19:22:00,
2013-02-18 14:23:00,43.0,40.0,30.13,West,278,0.0,1.0,89,0.00,,---,0.00,VWS V14.01,2013-02-18 19:23:00,
2013-02-18 14:24:00,43.1,40.1,30.14,West,278,0.0,1.0,89,0.00,,---,0.00,VWS V14.01,2013-02-18 19:24:00,
2013-02-18 14:25:00,43.1,40.1,30.14,West,278,0.0,1.0,89,0.00,,---,0.00,VWS V14.01,2013-02-18 19:25:00,
2013-02-18 14:26:00,43.2,39.9,30.14,West,278,0.0,1.0,88,0.00,,---,0.00,VWS V14.01,2013-02-18 19:26:00,
2013-02-18 14:27:00,43.3,40.0,30.14,West,278,0.0,1.0,88,0.00,,---,0.00,VWS V14.01,2013-02-18 19:27:00,
2013-02-18 14:28:00,43.4,40.1,30.14,West,278,0.0,1.0,88,0.00,,---,0.00,VWS V14.01,2013-02-18 19:28:00,
2013-02-18 14:29:00,43.4,40.1,30.14,West,278,0.0,1.0,88,0.00,,---,0.00,VWS V14.01,2013-02-18 19:29:00,
2013-02-18 14:30:00,43.5,40.2,30.14,West,278,0.0,1.0,88,0.00,,---,0.00,VWS V14.01,2013-02-18 19:30:00,
2013-02-18 14:31:00,43.6,40.3,30.14,West,278,0.0,0.0,88,0.00,,---,0.00,VWS V14.01,2013-02-18 19:31:00,
2013-02-18 14:32:00,43.6,40.3,30.14,West,277,0.0,0.0,88,0.00,,---,0.00,VWS V14.01,2013-02-18 19:32:00,
2013-02-18 14:33:00,43.7,40.4,30.14,West,278,0.0,0.0,88,0.00,,---,0.00,VWS V14.01,2013-02-18 19:33:00,
2013-02-18 14:34:00,43.7,40.4,30.14,West,278,0.0,0.0,88,0.00,,---,0.00,VWS V14.01,2013-02-18 19:34:00,
2013-02-18 14:35:00,43.8,40.5,30.14,West,278,0.0,0.0,88,0.00,,---,0.00,VWS V14.01,2013-02-18 19:35:00,
2013-02-18 14:36:00,43.8,40.5,30.14,West,278,0.0,0.0,88,0.00,,---,0.00,VWS V14.01,2013-02-18 19:36:00,
2013-02-18 14:37:00,43.9,40.6,30.14,West,278,0.0,0.0,88,0.00,,---,0.00,VWS V14.01,2013-02-18 19:37:00,
2013-02-18 14:38:00,44.0,40.7,30.14,West,278,0.0,0.0,88,0.00,,---,0.00,VWS V14.01,2013-02-18 19:38:00,
2013-02-18 14:39:00,44.0,40.7,30.14,West,278,0.0,0.0,88,0.00,,---,0.00,VWS V14.01,2013-02-18 19:39:00,
2013-02-18 14:40:00,44.0,40.7,30.14,West,278,0.0,1.0,88,0.00,,---,0.00,VWS V14.01,2013-02-18 19:40:00,
2013-02-18 14:41:00,44.1,40.8,30.14,West,278,0.0,1.0,88,0.00,,---,0.00,VWS V14.01,2013-02-18 19:41:00,
2013-02-18 14:42:00,44.1,40.8,30.14,West,278,0.0,1.0,88,0.00,,---,0.00,VWS V14.01,2013-02-18 19:42:00,
2013-02-18 14:43:00,44.2,40.9,30.14,West,278,0.0,1.0,88,0.00,,---,0.00,VWS V14.01,2013-02-18 19:43:00,
2013-02-18 14:44:00,44.3,41.0,30.14,West,278,0.0,1.0,88,0.00,,---,0.00,VWS V14.01,2013-02-18 19:44:00,
2013-02-18 14:45:00,44.3,41.0,30.14,West,278,0.0,1.0,88,0.00,,---,0.00,VWS V14.01,2013-02-18 19:45:00,
2013-02-18 14:46:00,44.4,41.1,30.14,West,278,0.0,1.0,88,0.00,,---,0.00,VWS V14.01,2013-02-18 19:46:00,
2013-02-18 14:47:00,44.5,41.2,30.14,West,278,0.0,1.0,88,0.00,,---,0.00,VWS V14.01,2013-02-18 19:47:00,
2013-02-18 14:48:00,44.6,41.3,30.14,West,277,0.0,1.0,88,0.00,,---,0.00,VWS V14.01,2013-02-18 19:48:00,
2013-02-18 14:49:00,44.8,41.5,30.14,West,278,0.0,1.0,88,0.00,,---,0.00,VWS V14.01,2013-02-18 19:49:00,
2013-02-18 14:50:00,44.9,41.6,30.15,West,278,0.0,1.0,88,0.00,,---,0.00,VWS V14.01,2013-02-18 19:50:00,
2013-02-18 14:51:00,45.0,41.7,30.14,West,278,0.0,1.0,88,0.00,,---,0.00,VWS V14.01,2013-02-18 19:51:00,
2013-02-18 14:52:00,45.1,41.8,30.14,West,278,0.0,1.0,88,0.00,,---,0.00,VWS V14.01,2013-02-18 19:52:00,
2013-02-18 14:53:00,45.3,42.0,30.14,West,278,0.0,1.0,88,0.00,,---,0.00,VWS V14.01,2013-02-18 19:53:00,
2013-02-18 14:54:00,45.4,42.1,30.14,West,278,0.0,1.0,88,0.00,,---,0.00,VWS V14.01,2013-02-18 19:54:00,
2013-02-18 14:55:00,45.6,42.3,30.14,West,278,0.0,1.0,88,0.00,,---,0.00,VWS V14.01,2013-02-18 19:55:00,
2013-02-18 14:56:00,45.7,42.4,30.14,West,278,0.0,1.0,88,0.00,,---,0.00,VWS V14.01,2013-02-18 19:56:00,
2013-02-18 14:57:00,45.8,42.5,30.14,West,278,0.0,1.0,88,0.00,,---,0.00,VWS V14.01,2013-02-18 19:57:00,
2013-02-18 14:58:00,45.9,42.3,30.14,West,278,0.0,1.0,87,0.00,,---,0.00,VWS V14.01,2013-02-18 19:58:00,
2013-02-18 14:59:00,46.1,42.8,30.14,West,278,0.0,1.0,88,0.00,,---,0.00,VWS V14.01,2013-02-18 19:59:00,
2013-02-18 15:00:00,46.2,42.5,30.15,West,278,0.0,1.0,87,0.00,,---,0.00,VWS V14.01,2013-02-18 20:00:00,
2013-02-18 15:01:00,46.4,42.8,30.14,West,278,0.0,0.0,87,0.00,,---,0.00,VWS V14.01,2013-02-18 20:01:00,
2013-02-18 15:02:00,46.5,42.8,30.14,West,278,0.0,2.0,87,0.00,,---,0.00,VWS V14.01,2013-02-18 20:02:00,
2013-02-18 15:03:00,46.7,43.0,30.14,West,278,0.0,2.0,87,0.00,,---,0.00,VWS V14.01,2013-02-18 20:03:00,
2013-02-18 15:04:00,46.9,43.2,30.14,West,278,0.0,2.0,87,0.00,,---,0.00,VWS V14.01,2013-02-18 20:04:00,
2013-02-18 15:05:00,47.0,43.3,30.14,West,278,0.0,2.0,87,0.00,,---,0.00,VWS V14.01,2013-02-18 20:05:00,
2013-02-18 15:06:00,47.2,43.5,30.14,West,278,0.0,2.0,87,0.00,,---,0.00,VWS V14.01,2013-02-18 20:06:00,
2013-02-18 15:07:00,47.4,43.4,30.14,West,278,0.0,2.0,86,0.00,,---,0.00,VWS V14.01,2013-02-18 20:07:00,
2013-02-18 15:08:00,47.5,43.5,30.14,West,278,0.0,2.0,86,0.00,,---,0.00,VWS V14.01,2013-02-18 20:08:00,
2013-02-18 15:09:00,47.7,43.7,30.14,West,278,0.0,2.0,86,0.00,,---,0.00,VWS V14.01,2013-02-18 20:09:00,
2013-02-18 15:10:00,47.8,43.8,30.14,West,278,0.0,2.0,86,0.00,,---,0.00,VWS V14.01,2013-02-18 20:10:00,
2013-02-18 15:11:00,47.9,43.6,30.14,West,278,0.0,2.0,85,0.00,,---,0.00,VWS V14.01,2013-02-18 20:11:00,
2013-02-18 15:12:00,48.1,43.8,30.14,West,278,1.0,2.0,85,0.00,,---,0.00,VWS V14.01,2013-02-18 20:12:00,
2013-02-18 15:13:00,48.2,43.9,30.14,West,278,0.0,2.0,85,0.00,,---,0.00,VWS V14.01,2013-02-18 20:13:00,
2013-02-18 15:14:00,48.4,43.8,30.14,West,278,0.0,2.0,84,0.00,,---,0.00,VWS V14.01,2013-02-18 20:14:00,
2013-02-18 15:15:00,48.5,43.9,30.14,West,278,0.0,2.0,84,0.00,,---,0.00,VWS V14.01,2013-02-18 20:15:00,
2013-02-18 15:16:00,48.7,44.1,30.14,West,278,0.0,2.0,84,0.00,,---,0.00,VWS V14.01,2013-02-18 20:16:00,
2013-02-18 15:17:00,48.8,43.9,30.14,West,278,0.0,2.0,83,0.00,,---,0.00,VWS V14.01,2013-02-18 20:17:00,
2013-02-18 15:18:00,48.9,44.0,30.14,West,278,0.0,2.0,83,0.00,,---,0.00,VWS V14.01,2013-02-18 20:18:00,
2013-02-18 15:19:00,49.0,44.1,30.14,West,278,0.0,2.0,83,0.00,,---,0.00,VWS V14.01,2013-02-18 20:19:00,
2013-02-18 15:20:00,49.1,43.8,30.14,West,278,0.0,2.0,82,0.00,,---,0.00,VWS V14.01,2013-02-18 20:20:00,
2013-02-18 15:21:00,49.1,43.8,30.14,West,278,0.0,2.0,82,0.00,,---,0.00,VWS V14.01,2013-02-18 20:21:00,
2013-02-18 15:22:00,49.2,44.0,30.14,West,278,0.0,2.0,82,0.00,,---,0.00,VWS V14.01,2013-02-18 20:22:00,
2013-02-18 15:23:00,49.3,44.0,30.14,West,278,0.0,2.0,82,0.00,,---,0.00,VWS V14.01,2013-02-18 20:23:00,
2013-02-18 15:24:00,49.4,44.1,30.14,West,278,0.0,2.0,82,0.00,,---,0.00,VWS V14.01,2013-02-18 20:24:00,
2013-02-18 15:25:00,49.4,44.1,30.14,West,278,0.0,2.0,82,0.00,,---,0.00,VWS V14.01,2013-02-18 20:25:00,
2013-02-18 15:26:00,49.5,44.2,30.14,WNW,288,1.0,3.0,82,0.00,,---,0.00,VWS V14.01,2013-02-18 20:26:00,
2013-02-18 15:27:00,49.6,44.0,30.14,WNW,288,0.0,3.0,81,0.00,,---,0.00,VWS V14.01,2013-02-18 20:27:00,
2013-02-18 15:28:00,49.7,44.1,30.14,WNW,288,1.0,3.0,81,0.00,,---,0.00,VWS V14.01,2013-02-18 20:28:00,
2013-02-18 15:29:00,49.7,44.1,30.14,WNW,288,0.0,3.0,81,0.00,,---,0.00,VWS V14.01,2013-02-18 20:29:00,
2013-02-18 15:30:00,49.8,44.2,30.14,WNW,288,2.0,3.0,81,0.00,,---,0.00,VWS V14.01,2013-02-18 20:30:00,
2013-02-18 15:31:00,49.9,44.3,30.14,WNW,292,1.0,3.0,81,0.00,,---,0.00,VWS V14.01,2013-02-18 20:31:00,
2013-02-18 15:32:00,49.9,44.3,30.14,NW,311,0.0,3.0,81,0.00,,---,0.00,VWS V14.01,2013-02-18 20:32:00,
2013-02-18 15:33:00,49.9,44.3,30.14,NW,315,0.0,4.0,81,0.00,,---,0.00,VWS V14.01,2013-02-18 20:33:00,
2013-02-18 15:34:00,50.0,44.1,30.14,NW,314,1.0,4.0,80,0.00,,---,0.00,VWS V14.01,2013-02-18 20:34:00,
2013-02-18 15:35:00,50.0,44.1,30.14,NW,313,2.0,4.0,80,0.00,,---,0.00,VWS V14.01,2013-02-18 20:35:00,
2013-02-18 15:36:00,50.1,44.2,30.14,NW,315,0.0,4.0,80,0.00,,---,0.00,VWS V14.01,2013-02-18 20:36:00,
2013-02-18 15:37:00,50.1,44.2,30.14,NW,315,0.0,4.0,80,0.00,,---,0.00,VWS V14.01,2013-02-18 20:37:00,
2013-02-18 15:38:00,50.1,44.2,30.14,NW,317,4.0,4.0,80,0.00,,---,0.00,VWS V14.01,2013-02-18 20:38:00,
2013-02-18 15:39:00,50.2,44.3,30.14,NW,317,2.0,4.0,80,0.00,,---,0.00,VWS V14.01,2013-02-18 20:39:00,
2013-02-18 15:40:00,50.3,44.4,30.14,NNW,330,5.0,5.0,80,0.00,,---,0.00,VWS V14.01,2013-02-18 20:40:00,
2013-02-18 15:41:00,50.3,44.4,30.14,NNW,331,0.0,5.0,80,0.00,,---,0.00,VWS V14.01,2013-02-18 20:41:00,
2013-02-18 15:42:00,50.4,44.5,30.14,NNW,334,2.0,5.0,80,0.00,,---,0.00,VWS V14.01,2013-02-18 20:42:00,
2013-02-18 15:43:00,50.5,44.6,30.14,NNW,334,0.0,5.0,80,0.00,,---,0.00,VWS V14.01,2013-02-18 20:43:00,
2013-02-18 15:44:00,50.6,44.7,30.14,NNW,334,2.0,5.0,80,0.00,,---,0.00,VWS V14.01,2013-02-18 20:44:00,
2013-02-18 15:45:00,50.7,44.8,30.14,NNW,334,0.0,5.0,80,0.00,,---,0.00,VWS V14.01,2013-02-18 20:45:00,
2013-02-18 15:46:00,50.8,44.9,30.14,NNW,334,1.0,5.0,80,0.00,,---,0.00,VWS V14.01,2013-02-18 20:46:00,
2013-02-18 15:47:00,50.9,45.0,30.14,WNW,295,0.0,5.0,80,0.00,,---,0.00,VWS V14.01,2013-02-18 20:47:00,
2013-02-18 15:48:00,50.9,45.0,30.14,NNW,334,0.0,5.0,80,0.00,,---,0.00,VWS V14.01,2013-02-18 20:48:00,
2013-02-18 15:49:00,51.0,45.1,30.14,NW,321,0.0,5.0,80,0.00,,---,0.00,VWS V14.01,2013-02-18 20:49:00,
2013-02-18 15:50:00,51.0,45.1,30.14,NNW,329,0.0,5.0,80,0.00,,---,0.00,VWS V14.01,2013-02-18 20:50:00,
2013-02-18 15:51:00,51.1,45.2,30.14,NW,309,2.0,5.0,80,0.00,,---,0.00,VWS V14.01,2013-02-18 20:51:00,
2013-02-18 15:52:00,51.2,45.2,30.14,NW,304,0.0,5.0,80,0.00,,---,0.00,VWS V14.01,2013-02-18 20:52:00,
2013-02-18 15:53:00,51.2,44.9,30.14,NW,323,0.0,5.0,79,0.00,,---,0.00,VWS V14.01,2013-02-18 20:53:00,
2013-02-18 15:54:00,51.3,45.0,30.14,NW,319,0.0,5.0,79,0.00,,---,0.00,VWS V14.01,2013-02-18 20:54:00,
2013-02-18 15:55:00,51.4,45.1,30.14,North,9,4.0,6.0,79,0.00,,---,0.00,VWS V14.01,2013-02-18 20:55:00,
2013-02-18 15:56:00,51.5,45.2,30.14,NW,309,0.0,6.0,79,0.00,,---,0.00,VWS V14.01,2013-02-18 20:56:00,
2013-02-18 15:57:00,51.5,45.2,30.14,NW,321,4.0,6.0,79,0.00,,---,0.00,VWS V14.01,2013-02-18 20:57:00,
2013-02-18 15:58:00,51.6,45.6,30.14,NW,320,2.0,6.0,80,0.00,,---,0.00,VWS V14.01,2013-02-18 20:58:00,
2013-02-18 15:59:00,51.6,45.3,30.14,WNW,283,2.0,6.0,79,0.00,,---,0.00,VWS V14.01,2013-02-18 20:59:00,
2013-02-18 16:00:00,51.7,45.4,30.14,NNW,327,1.0,6.0,79,0.00,,---,0.00,VWS V14.01,2013-02-18 21:00:00,
2013-02-18 16:01:00,51.8,45.5,30.14,NNW,337,5.0,9.0,79,0.00,,---,0.00,VWS V14.01,2013-02-18 21:01:00,
2013-02-18 16:02:00,51.8,45.5,30.14,NNW,341,1.0,9.0,79,0.00,,---,0.00,VWS V14.01,2013-02-18 21:02:00,
2013-02-18 16:03:00,51.9,45.6,30.14,NNW,331,3.0,9.0,79,0.00,,---,0.00,VWS V14.01,2013-02-18 21:03:00,
2013-02-18 16:04:00,52.0,45.7,30.14,WNW,292,3.0,9.0,79,0.00,,---,0.00,VWS V14.01,2013-02-18 21:04:00,
2013-02-18 16:05:00,52.1,45.8,30.14,NNW,346,0.0,9.0,79,0.00,,---,0.00,VWS V14.01,2013-02-18 21:05:00,
2013-02-18 16:06:00,52.2,45.9,30.14,NNW,331,4.0,9.0,79,0.00,,---,0.00,VWS V14.01,2013-02-18 21:06:00,
2013-02-18 16:07:00,52.3,45.7,30.14,NNW,345,3.0,9.0,78,0.00,,---,0.00,VWS V14.01,2013-02-18 21:07:00,
2013-02-18 16:08:00,52.3,45.7,30.14,North,355,2.0,9.0,78,0.00,,---,0.00,VWS V14.01,2013-02-18 21:08:00,
2013-02-18 16:09:00,52.4,45.8,30.14,NNW,341,3.0,9.0,78,0.00,,---,0.00,VWS V14.01,2013-02-18 21:09:00,
2013-02-18 16:10:00,52.6,46.0,30.14,North,5,1.0,9.0,78,0.00,,---,0.00,VWS V14.01,2013-02-18 21:10:00,
2013-02-18 16:11:00,52.6,46.0,30.14,North,360,2.0,9.0,78,0.00,,---,0.00,VWS V14.01,2013-02-18 21:11:00,
2013-02-18 16:12:00,52.7,46.0,30.14,NNW,346,1.0,9.0,78,0.00,,---,0.00,VWS V14.01,2013-02-18 21:12:00,
2013-02-18 16:13:00,52.8,46.1,30.14,NNW,339,3.0,9.0,78,0.00,,---,0.00,VWS V14.01,2013-02-18 21:13:00,
2013-02-18 16:14:00,52.9,45.9,30.14,NW,315,3.0,9.0,77,0.00,,---,0.00,VWS V14.01,2013-02-18 21:14:00,
2013-02-18 16:15:00,53.0,46.0,30.14,NNW,343,5.0,9.0,77,0.00,,---,0.00,VWS V14.01,2013-02-18 21:15:00,
2013-02-18 16:16:00,53.1,46.1,30.14,NNW,327,4.0,9.0,77,0.00,,---,0.00,VWS V14.01,2013-02-18 21:16:00,
2013-02-18 16:17:00,53.1,46.1,30.13,North,355,5.0,9.0,77,0.00,,---,0.00,VWS V14.01,2013-02-18 21:17:00,
2013-02-18 16:18:00,53.2,46.2,30.13,NW,325,2.0,9.0,77,0.00,,---,0.00,VWS V14.01,2013-02-18 21:18:00,
2013-02-18 16:19:00,53.2,46.2,30.13,NW,317,3.0,9.0,77,0.00,,---,0.00,VWS V14.01,2013-02-18 21:19:00,
2013-02-18 16:20:00,53.3,46.3,30.13,NNW,347,6.0,9.0,77,0.00,,---,0.00,VWS V14.01,2013-02-18 21:20:00,
2013-02-18 16:21:00,53.4,46.4,30.13,NNW,348,5.0,9.0,77,0.00,,---,0.00,VWS V14.01,2013-02-18 21:21:00,
2013-02-18 16:22:00,53.4,46.4,30.13,NW,317,2.0,9.0,77,0.00,,---,0.00,VWS V14.01,2013-02-18 21:22:00,
2013-02-18 16:23:00,53.5,46.5,30.13,NNW,346,5.0,9.0,77,0.00,,---,0.00,VWS V14.01,2013-02-18 21:23:00,
2013-02-18 16:24:00,53.5,46.5,30.13,NW,325,3.0,9.0,77,0.00,,---,0.00,VWS V14.01,2013-02-18 21:24:00,
2013-02-18 16:25:00,53.5,46.5,30.13,NW,313,3.0,9.0,77,0.00,,---,0.00,VWS V14.01,2013-02-18 21:25:00,
2013-02-18 16:26:00,53.6,46.6,30.13,NW,320,4.0,9.0,77,0.00,,---,0.00,VWS V14.01,2013-02-18 21:26:00,
2013-02-18 16:27:00,53.6,46.6,30.13,NW,317,4.0,9.0,77,0.00,,---,0.00,VWS V14.01,2013-02-18 21:27:00,
2013-02-18 16:28:00,53.7,46.7,30.13,NW,308,4.0,9.0,77,0.00,,---,0.00,VWS V14.01,2013-02-18 21:28:00,
2013-02-18 16:29:00,53.7,46.7,30.13,NW,311,4.0,9.0,77,0.00,,---,0.00,VWS V14.01,2013-02-18 21:29:00,
2013-02-18 16:30:00,53.8,46.8,30.13,North,351,3.0,9.0,77,0.00,,---,0.00,VWS V14.01,2013-02-18 21:30:00,
2013-02-18 16:31:00,53.8,46.8,30.13,NW,321,4.0,5.0,77,0.00,,---,0.00,VWS V14.01,2013-02-18 21:31:00,
2013-02-18 16:32:00,53.9,46.9,30.13,NW,321,3.0,5.0,77,0.00,,---,0.00,VWS V14.01,2013-02-18 21:32:00,
2013-02-18 16:33:00,54.0,47.0,30.13,North,11,3.0,6.0,77,0.00,,---,0.00,VWS V14.01,2013-02-18 21:33:00,
2013-02-18 16:34:00,54.0,46.6,30.12,NNW,332,2.0,7.0,76,0.00,,---,0.00,VWS V14.01,2013-02-18 21:34:00,
2013-02-18 16:35:00,54.1,47.1,30.12,North,350,4.0,7.0,77,0.00,,---,0.00,VWS V14.01,2013-02-18 21:35:00,
2013-02-18 16:36:00,54.1,47.1,30.12,NW,307,2.0,7.0,77,0.00,,---,0.00,VWS V14.01,2013-02-18 21:36:00,
2013-02-18 16:37:00,54.1,47.1,30.12,NW,315,6.0,7.0,77,0.00,,---,0.00,VWS V14.01,2013-02-18 21:37:00,
2013-02-18 16:38:00,54.2,46.8,30.12,WNW,290,2.0,7.0,76,0.00,,---,0.00,VWS V14.01,2013-02-18 21:38:00,
2013-02-18 16:39:00,54.2,46.8,30.12,NNW,338,4.0,7.0,76,0.00,,---,0.00,VWS V14.01,2013-02-18 21:39:00,
2013-02-18 16:40:00,54.2,46.8,30.12,WNW,302,2.0,7.0,76,0.00,,---,0.00,VWS V14.01,2013-02-18 21:40:00,
2013-02-18 16:41:00,54.3,46.9,30.12,WNW,303,0.0,7.0,76,0.00,,---,0.00,VWS V14.01,2013-02-18 21:41:00,
2013-02-18 16:42:00,54.3,46.9,30.12,North,360,0.0,7.0,76,0.00,,---,0.00,VWS V14.01,2013-02-18 21:42:00,
2013-02-18 16:43:00,54.4,47.0,30.12,North,5,3.0,7.0,76,0.00,,---,0.00,VWS V14.01,2013-02-18 21:43:00,
2013-02-18 16:44:00,54.4,47.0,30.12,NNW,338,1.0,7.0,76,0.00,,---,0.00,VWS V14.01,2013-02-18 21:44:00,
2013-02-18 16:45:00,54.5,47.1,30.11,NW,325,5.0,7.0,76,0.00,,---,0.00,VWS V14.01,2013-02-18 21:45:00,
2013-02-18 16:46:00,54.6,47.2,30.11,NW,325,7.0,7.0,76,0.00,,---,0.00,VWS V14.01,2013-02-18 21:46:00,
2013-02-18 16:47:00,54.7,47.3,30.11,NNW,343,4.0,7.0,76,0.00,,---,0.00,VWS V14.01,2013-02-18 21:47:00,
2013-02-18 16:48:00,54.8,47.4,30.11,NNW,345,5.0,7.0,76,0.00,,---,0.00,VWS V14.01,2013-02-18 21:48:00,
2013-02-18 16:49:00,54.8,47.4,30.11,North,360,4.0,8.0,76,0.00,,---,0.00,VWS V14.01,2013-02-18 21:49:00,
2013-02-18 16:50:00,54.9,47.5,30.11,West,281,6.0,8.0,76,0.00,,---,0.00,VWS V14.01,2013-02-18 21:50:00,
2013-02-18 16:51:00,55.0,47.6,30.11,NW,313,7.0,10.0,76,0.00,,---,0.00,VWS V14.01,2013-02-18 21:51:00,
2013-02-18 16:52:00,55.1,47.7,30.11,NW,316,6.0,10.0,76,0.00,,---,0.00,VWS V14.01,2013-02-18 21:52:00,
2013-02-18 16:53:00,55.2,47.8,30.11,North,360,5.0,10.0,76,0.00,,---,0.00,VWS V14.01,2013-02-18 21:53:00,
2013-02-18 16:54:00,55.3,47.9,30.11,North,355,2.0,10.0,76,0.00,,---,0.00,VWS V14.01,2013-02-18 21:54:00,
2013-02-18 16:55:00,55.3,47.9,30.11,NNE,14,4.0,10.0,76,0.00,,---,0.00,VWS V14.01,2013-02-18 21:55:00,
2013-02-18 16:56:00,55.4,48.0,30.11,NNE,16,4.0,10.0,76,0.00,,---,0.00,VWS V14.01,2013-02-18 21:56:00,
2013-02-18 16:57:00,55.4,48.0,30.11,North,360,2.0,10.0,76,0.00,,---,0.00,VWS V14.01,2013-02-18 21:57:00,
2013-02-18 16:58:00,55.5,48.1,30.11,ENE,66,0.0,10.0,76,0.00,,---,0.00,VWS V14.01,2013-02-18 21:58:00,
2013-02-18 16:59:00,55.5,48.1,30.11,NNE,15,4.0,10.0,76,0.00,,---,0.00,VWS V14.01,2013-02-18 21:59:00,
2013-02-18 17:00:00,55.6,47.8,30.11,NW,311,5.0,10.0,75,0.00,,---,0.00,VWS V14.01,2013-02-18 22:00:00,
2013-02-18 17:01:00,55.6,47.8,30.11,NNW,343,10.0,10.0,75,0.00,,---,0.00,VWS V14.01,2013-02-18 22:01:00,
2013-02-18 17:02:00,55.7,47.9,30.11,North,355,4.0,10.0,75,0.00,,---,0.00,VWS V14.01,2013-02-18 22:02:00,
2013-02-18 17:03:00,55.8,48.0,30.11,NW,315,7.0,10.0,75,0.00,,---,0.00,VWS V14.01,2013-02-18 22:03:00,
2013-02-18 17:04:00,55.8,48.0,30.11,North,355,4.0,10.0,75,0.00,,---,0.00,VWS V14.01,2013-02-18 22:04:00,
2013-02-18 17:05:00,55.9,48.1,30.11,NNE,20,3.0,10.0,75,0.00,,---,0.00,VWS V14.01,2013-02-18 22:05:00,
2013-02-18 17:06:00,56.0,48.2,30.11,North,360,3.0,10.0,75,0.00,,---,0.00,VWS V14.01,2013-02-18 22:06:00,
2013-02-18 17:07:00,56.0,48.2,30.11,North,5,2.0,10.0,75,0.00,,---,0.00,VWS V14.01,2013-02-18 22:07:00,
2013-02-18 17:08:00,56.0,48.2,30.11,North,355,4.0,10.0,75,0.00,,---,0.00,VWS V14.01,2013-02-18 22:08:00,
2013-02-18 17:09:00,56.1,48.3,30.11,North,355,6.0,10.0,75,0.00,,---,0.00,VWS V14.01,2013-02-18 22:09:00,
2013-02-18 17:10:00,56.2,48.4,30.11,NNE,23,5.0,10.0,75,0.00,,---,0.00,VWS V14.01,2013-02-18 22:10:00,
2013-02-18 17:11:00,56.2,48.4,30.11,NNW,328,5.0,10.0,75,0.00,,---,0.00,VWS V14.01,2013-02-18 22:11:00,
2013-02-18 17:12:00,56.2,48.4,30.11,NNW,335,6.0,10.0,75,0.00,,---,0.00,VWS V14.01,2013-02-18 22:12:00,
2013-02-18 17:13:00,56.3,48.1,30.11,NNE,19,0.0,10.0,74,0.00,,---,0.00,VWS V14.01,2013-02-18 22:13:00,
2013-02-18 17:14:00,56.4,48.2,30.11,North,5,4.0,10.0,74,0.00,,---,0.00,VWS V14.01,2013-02-18 22:14:00,
2013-02-18 17:15:00,56.4,48.2,30.11,NNW,336,3.0,10.0,74,0.00,,---,0.00,VWS V14.01,2013-02-18 22:15:00,
2013-02-18 17:16:00,56.5,48.3,30.11,North,355,0.0,10.0,74,0.00,,---,0.00,VWS V14.01,2013-02-18 22:16:00,
2013-02-18 17:17:00,56.5,48.3,30.11,North,5,3.0,10.0,74,0.00,,---,0.00,VWS V14.01,2013-02-18 22:17:00,
2013-02-18 17:18:00,56.6,48.4,30.10,NNE,13,4.0,10.0,74,0.00,,---,0.00,VWS V14.01,2013-02-18 22:18:00,
2013-02-18 17:19:00,56.6,48.4,30.10,NNW,347,0.0,10.0,74,0.00,,---,0.00,VWS V14.01,2013-02-18 22:19:00,
2013-02-18 17:20:00,56.6,48.4,30.10,NNW,334,3.0,10.0,74,0.00,,---,0.00,VWS V14.01,2013-02-18 22:20:00,
2013-02-18 17:21:00,56.7,48.5,30.10,NNE,17,5.0,10.0,74,0.00,,---,0.00,VWS V14.01,2013-02-18 22:21:00,
2013-02-18 17:22:00,56.7,48.5,30.10,NNW,331,5.0,10.0,74,0.00,,---,0.00,VWS V14.01,2013-02-18 22:22:00,
2013-02-18 17:23:00,56.7,48.2,30.10,NNE,33,4.0,10.0,73,0.00,,---,0.00,VWS V14.01,2013-02-18 22:23:00,
2013-02-18 17:24:00,56.7,48.2,30.10,North,5,5.0,10.0,73,0.00,,---,0.00,VWS V14.01,2013-02-18 22:24:00,
2013-02-18 17:25:00,56.7,48.2,30.10,NNE,20,6.0,10.0,73,0.00,,---,0.00,VWS V14.01,2013-02-18 22:25:00,
2013-02-18 17:26:00,56.8,48.2,30.10,NNE,14,3.0,10.0,73,0.00,,---,0.00,VWS V14.01,2013-02-18 22:26:00,
2013-02-18 17:27:00,56.8,48.2,30.10,NNE,24,0.0,10.0,73,0.00,,---,0.00,VWS V14.01,2013-02-18 22:27:00,
2013-02-18 17:28:00,56.8,48.2,30.10,NNW,338,3.0,10.0,73,0.00,,---,0.00,VWS V14.01,2013-02-18 22:28:00,
2013-02-18 17:29:00,56.9,48.3,30.10,NNE,27,1.0,10.0,73,0.00,,---,0.00,VWS V14.01,2013-02-18 22:29:00,
2013-02-18 17:30:00,56.9,48.3,30.10,North,349,3.0,10.0,73,0.00,,---,0.00,VWS V14.01,2013-02-18 22:30:00,
2013-02-18 17:31:00,56.9,48.3,30.10,NW,310,6.0,6.0,73,0.00,,---,0.00,VWS V14.01,2013-02-18 22:31:00,
2013-02-18 17:32:00,57.0,48.4,30.10,North,9,2.0,8.0,73,0.00,,---,0.00,VWS V14.01,2013-02-18 22:32:00,
2013-02-18 17:33:00,57.0,48.4,30.10,North,5,3.0,8.0,73,0.00,,---,0.00,VWS V14.01,2013-02-18 22:33:00,
2013-02-18 17:34:00,57.1,48.5,30.10,NNW,347,0.0,8.0,73,0.00,,---,0.00,VWS V14.01,2013-02-18 22:34:00,
2013-02-18 17:35:00,57.1,48.5,30.10,North,360,2.0,8.0,73,0.00,,---,0.00,VWS V14.01,2013-02-18 22:35:00,
2013-02-18 17:36:00,57.2,48.6,30.10,NW,318,3.0,8.0,73,0.00,,---,0.00,VWS V14.01,2013-02-18 22:36:00,
2013-02-18 17:37:00,57.2,48.3,30.10,NNW,334,3.0,8.0,72,0.00,,---,0.00,VWS V14.01,2013-02-18 22:37:00,
2013-02-18 17:38:00,57.3,48.4,30.10,NNE,28,1.0,8.0,72,0.00,,---,0.00,VWS V14.01,2013-02-18 22:38:00,
2013-02-18 17:39:00,57.3,48.4,30.10,NNW,337,2.0,8.0,72,0.00,,---,0.00,VWS V14.01,2013-02-18 22:39:00,
2013-02-18 17:40:00,57.4,48.5,30.10,North,360,5.0,8.0,72,0.00,,---,0.00,VWS V14.01,2013-02-18 22:40:00,
2013-02-18 17:41:00,57.5,48.6,30.10,NW,326,5.0,8.0,72,0.00,,---,0.00,VWS V14.01,2013-02-18 22:41:00,
2013-02-18 17:42:00,57.5,48.6,30.10,NNW,341,6.0,8.0,72,0.00,,---,0.00,VWS V14.01,2013-02-18 22:42:00,
2013-02-18 17:43:00,57.6,48.7,30.10,North,360,0.0,8.0,72,0.00,,---,0.00,VWS V14.01,2013-02-18 22:43:00,
2013-02-18 17:44:00,57.6,48.7,30.10,North,355,2.0,8.0,72,0.00,,---,0.00,VWS V14.01,2013-02-18 22:44:00,
2013-02-18 17:45:00,57.6,48.3,30.09,North,355,5.0,8.0,71,0.00,,---,0.00,VWS V14.01,2013-02-18 22:45:00,
2013-02-18 17:46:00,57.7,48.4,30.09,NW,326,4.0,8.0,71,0.00,,---,0.00,VWS V14.01,2013-02-18 22:46:00,
2013-02-18 17:47:00,57.7,48.4,30.10,NNE,21,6.0,8.0,71,0.00,,---,0.00,VWS V14.01,2013-02-18 22:47:00,
2013-02-18 17:48:00,57.7,48.4,30.09,North,360,0.0,8.0,71,0.00,,---,0.00,VWS V14.01,2013-02-18 22:48:00,
2013-02-18 17:49:00,57.8,48.5,30.09,North,5,0.0,8.0,71,0.00,,---,0.00,VWS V14.01,2013-02-18 22:49:00,
2013-02-18 17:50:00,57.8,48.5,30.09,NNW,348,0.0,8.0,71,0.00,,---,0.00,VWS V14.01,2013-02-18 22:50:00,
2013-02-18 17:51:00,57.8,48.1,30.09,NNE,19,0.0,8.0,70,0.00,,---,0.00,VWS V14.01,2013-02-18 22:51:00,
2013-02-18 17:52:00,57.8,48.1,30.09,North,355,4.0,8.0,70,0.00,,---,0.00,VWS V14.01,2013-02-18 22:52:00,
2013-02-18 17:53:00,57.9,48.2,30.09,NNE,19,6.0,8.0,70,0.00,,---,0.00,VWS V14.01,2013-02-18 22:53:00,
2013-02-18 17:54:00,57.9,48.2,30.09,NNE,17,6.0,8.0,70,0.00,,---,0.00,VWS V14.01,2013-02-18 22:54:00,
2013-02-18 17:55:00,58.0,48.3,30.09,NNW,348,7.0,8.0,70,0.00,,---,0.00,VWS V14.01,2013-02-18 22:55:00,
2013-02-18 17:56:00,58.0,48.3,30.09,North,360,3.0,8.0,70,0.00,,---,0.00,VWS V14.01,2013-02-18 22:56:00,
2013-02-18 17:57:00,58.0,48.7,30.09,NE,42,1.0,8.0,71,0.00,,---,0.00,VWS V14.01,2013-02-18 22:57:00,
2013-02-18 17:58:00,58.0,48.3,30.09,NNE,23,3.0,8.0,70,0.00,,---,0.00,VWS V14.01,2013-02-18 22:58:00,
2013-02-18 17:59:00,58.0,48.3,30.09,NE,34,0.0,8.0,70,0.00,,---,0.00,VWS V14.01,2013-02-18 22:59:00,
2013-02-18 18:00:00,58.1,48.4,30.09,NE,34,0.0,8.0,70,0.00,,---,0.00,VWS V14.01,2013-02-18 23:00:00,
2013-02-18 18:01:00,58.1,48.4,30.09,North,5,1.0,5.0,70,0.00,,---,0.00,VWS V14.01,2013-02-18 23:01:00,
2013-02-18 18:02:00,58.1,48.4,30.09,North,5,2.0,5.0,70,0.00,,---,0.00,VWS V14.01,2013-02-18 23:02:00,
2013-02-18 18:03:00,58.1,48.4,30.09,North,355,0.0,5.0,70,0.00,,---,0.00,VWS V14.01,2013-02-18 23:03:00,
2013-02-18 18:04:00,58.1,48.4,30.09,North,360,0.0,5.0,70,0.00,,---,0.00,VWS V14.01,2013-02-18 23:04:00,
2013-02-18 18:05:00,58.1,48.4,30.09,North,5,0.0,5.0,70,0.00,,---,0.00,VWS V14.01,2013-02-18 23:05:00,
2013-02-18 18:06:00,58.2,48.5,30.09,North,5,1.0,5.0,70,0.00,,---,0.00,VWS V14.01,2013-02-18 23:06:00,
2013-02-18 18:07:00,58.2,48.5,30.09,NE,49,0.0,5.0,70,0.00,,---,0.00,VWS V14.01,2013-02-18 23:07:00,
2013-02-18 18:08:00,58.2,48.5,30.09,NNE,18,4.0,5.0,70,0.00,,---,0.00,VWS V14.01,2013-02-18 23:08:00,
2013-02-18 18:09:00,58.2,48.5,30.09,NNE,27,3.0,5.0,70,0.00,,---,0.00,VWS V14.01,2013-02-18 23:09:00,
2013-02-18 18:10:00,58.3,48.6,30.09,NNE,26,3.0,6.0,70,0.00,,---,0.00,VWS V14.01,2013-02-18 23:10:00,
2013-02-18 18:11:00,58.3,48.6,30.09,North,9,0.0,6.0,70,0.00,,---,0.00,VWS V14.01,2013-02-18 23:11:00,
2013-02-18 18:12:00,58.4,48.7,30.09,ENE,74,0.0,6.0,70,0.00,,---,0.00,VWS V14.01,2013-02-18 23:12:00,
2013-02-18 18:13:00,58.4,48.7,30.09,North,355,1.0,6.0,70,0.00,,---,0.00,VWS V14.01,2013-02-18 23:13:00,
2013-02-18 18:14:00,58.4,48.7,30.09,North,355,0.0,6.0,70,0.00,,---,0.00,VWS V14.01,2013-02-18 23:14:00,
2013-02-18 18:15:00,58.4,48.7,30.09,NE,54,0.0,6.0,70,0.00,,---,0.00,VWS V14.01,2013-02-18 23:15:00,
2013-02-18 18:16:00,58.5,48.8,30.09,ENE,63,5.0,6.0,70,0.00,,---,0.00,VWS V14.01,2013-02-18 23:16:00,
2013-02-18 18:17:00,58.5,48.8,30.09,NE,40,0.0,6.0,70,0.00,,---,0.00,VWS V14.01,2013-02-18 23:17:00,
2013-02-18 18:18:00,58.5,48.8,30.09,NE,39,0.0,6.0,70,0.00,,---,0.00,VWS V14.01,2013-02-18 23:18:00,
2013-02-18 18:19:00,58.6,48.5,30.09,NNE,33,0.0,6.0,69,0.00,,---,0.00,VWS V14.01,2013-02-18 23:19:00,
2013-02-18 18:20:00,58.6,48.5,30.09,NE,55,0.0,6.0,69,0.00,,---,0.00,VWS V14.01,2013-02-18 23:20:00,
2013-02-18 18:21:00,58.6,48.9,30.09,North,360,4.0,6.0,70,0.00,,---,0.00,VWS V14.01,2013-02-18 23:21:00,
2013-02-18 18:22:00,58.6,48.5,30.09,NE,45,0.0,6.0,69,0.00,,---,0.00,VWS V14.01,2013-02-18 23:22:00,
2013-02-18 18:23:00,58.6,48.9,30.09,NE,36,0.0,6.0,70,0.00,,---,0.00,VWS V14.01,2013-02-18 23:23:00,
2013-02-18 18:24:00,58.6,48.5,30.09,NE,38,0.0,6.0,69,0.00,,---,0.00,VWS V14.01,2013-02-18 23:24:00,
2013-02-18 18:25:00,58.6,48.5,30.09,NE,49,3.0,6.0,69,0.00,,---,0.00,VWS V14.01,2013-02-18 23:25:00,
2013-02-18 18:26:00,58.7,49.0,30.09,NE,49,3.0,6.0,70,0.00,,---,0.00,VWS V14.01,2013-02-18 23:26:00,
2013-02-18 18:27:00,58.7,49.0,30.09,NE,36,3.0,7.0,70,0.00,,---,0.00,VWS V14.01,2013-02-18 23:27:00,
2013-02-18 18:28:00,58.7,48.6,30.09,NE,43,4.0,7.0,69,0.00,,---,0.00,VWS V14.01,2013-02-18 23:28:00,
2013-02-18 18:29:00,58.7,48.6,30.10,ENE,61,0.0,7.0,69,0.00,,---,0.00,VWS V14.01,2013-02-18 23:29:00,
2013-02-18 18:30:00,58.7,49.0,30.10,North,5,4.0,7.0,70,0.00,,---,0.00,VWS V14.01,2013-02-18 23:30:00,
2013-02-18 18:31:00,58.7,49.0,30.10,NNE,32,7.0,8.0,70,0.00,,---,0.00,VWS V14.01,2013-02-18 23:31:00,
2013-02-18 18:32:00,58.6,48.9,30.10,ENE,66,4.0,8.0,70,0.00,,---,0.00,VWS V14.01,2013-02-18 23:32:00,
2013-02-18 18:33:00,58.6,48.9,30.10,East,90,5.0,11.0,70,0.00,,---,0.00,VWS V14.01,2013-02-18 23:33:00,
2013-02-18 18:34:00,58.6,48.9,30.10,NE,55,0.0,11.0,70,0.00,,---,0.00,VWS V14.01,2013-02-18 23:34:00,
2013-02-18 18:35:00,58.6,48.9,30.10,ENE,71,0.0,11.0,70,0.00,,---,0.00,VWS V14.01,2013-02-18 23:35:00,
2013-02-18 18:36:00,58.6,48.9,30.09,ENE,57,1.0,11.0,70,0.00,,---,0.00,VWS V14.01,2013-02-18 23:36:00,
2013-02-18 18:37:00,58.5,49.1,30.09,NE,38,4.0,11.0,71,0.00,,---,0.00,VWS V14.01,2013-02-18 23:37:00,
2013-02-18 18:38:00,58.5,49.1,30.09,NNE,25,5.0,11.0,71,0.00,,---,0.00,VWS V14.01,2013-02-18 23:38:00,
2013-02-18 18:39:00,58.4,49.0,30.09,NNE,32,1.0,11.0,71,0.00,,---,0.00,VWS V14.01,2013-02-18 23:39:00,
2013-02-18 18:40:00,58.4,49.0,30.09,NE,50,1.0,11.0,71,0.00,,---,0.00,VWS V14.01,2013-02-18 23:40:00,
2013-02-18 18:41:00,58.4,49.4,30.09,NE,50,0.0,11.0,72,0.00,,---,0.00,VWS V14.01,2013-02-18 23:41:00,
2013-02-18 18:42:00,58.3,49.0,30.09,NE,51,0.0,11.0,71,0.00,,---,0.00,VWS V14.01,2013-02-18 23:42:00,
2013-02-18 18:43:00,58.3,49.3,30.09,NNE,28,3.0,11.0,72,0.00,,---,0.00,VWS V14.01,2013-02-18 23:43:00,
2013-02-18 18:44:00,58.3,49.3,30.09,NE,43,1.0,11.0,72,0.00,,---,0.00,VWS V14.01,2013-02-18 23:44:00,
2013-02-18 18:45:00,58.2,49.2,30.09,NE,46,1.0,11.0,72,0.00,,---,0.00,VWS V14.01,2013-02-18 23:45:00,
2013-02-18 18:46:00,58.2,49.2,30.09,NNE,28,0.0,11.0,72,0.00,,---,0.00,VWS V14.01,2013-02-18 23:46:00,
2013-02-18 18:47:00,58.2,49.2,30.09,NE,44,1.0,11.0,72,0.00,,---,0.00,VWS V14.01,2013-02-18 23:47:00,
2013-02-18 18:48:00,58.1,49.1,30.09,NE,37,3.0,11.0,72,0.00,,---,0.00,VWS V14.01,2013-02-18 23:48:00,
2013-02-18 18:49:00,58.1,49.1,30.09,NE,44,0.0,11.0,72,0.00,,---,0.00,VWS V14.01,2013-02-18 23:49:00,
2013-02-18 18:50:00,58.1,49.1,30.09,NE,38,0.0,11.0,72,0.00,,---,0.00,VWS V14.01,2013-02-18 23:50:00,
2013-02-18 18:51:00,58.0,49.4,30.08,NNE,12,0.0,11.0,73,0.00,,---,0.00,VWS V14.01,2013-02-18 23:51:00,
2013-02-18 18:52:00,58.0,49.0,30.08,NE,44,3.0,11.0,72,0.00,,---,0.00,VWS V14.01,2013-02-18 23:52:00,
2013-02-18 18:53:00,58.0,49.0,30.08,North,5,3.0,11.0,72,0.00,,---,0.00,VWS V14.01,2013-02-18 23:53:00,
2013-02-18 18:54:00,58.0,49.0,30.08,NE,45,5.0,11.0,72,0.00,,---,0.00,VWS V14.01,2013-02-18 23:54:00,
2013-02-18 18:55:00,57.9,49.3,30.08,NNE,24,2.0,11.0,73,0.00,,---,0.00,VWS V14.01,2013-02-18 23:55:00,
2013-02-18 18:56:00,57.9,49.3,30.08,ENE,72,0.0,11.0,73,0.00,,---,0.00,VWS V14.01,2013-02-18 23:56:00,
2013-02-18 18:57:00,57.9,49.3,30.08,North,5,0.0,11.0,73,0.00,,---,0.00,VWS V14.01,2013-02-18 23:57:00,
2013-02-18 18:58:00,57.8,49.2,30.07,NNE,24,0.0,11.0,73,0.00,,---,0.00,VWS V14.01,2013-02-18 23:58:00,
2013-02-18 18:59:00,57.8,49.2,30.07,NNE,30,0.0,11.0,73,0.00,,---,0.00,VWS V14.01,2013-02-18 23:59:00,
2013-02-18 19:00:00,57.8,49.2,30.07,NNE,30,0.0,11.0,73,0.00,,---,0.00,VWS V14.01,2013-02-19 00:00:00,
2013-02-18 19:01:00,57.8,49.6,30.07,North,11,2.0,4.0,74,0.00,,---,0.00,VWS V14.01,2013-02-19 00:01:00,
2013-02-18 19:02:00,57.7,49.1,30.07,NNE,28,0.0,4.0,73,0.00,,---,0.00,VWS V14.01,2013-02-19 00:02:00,
2013-02-18 19:03:00,57.7,49.5,30.07,NNE,28,1.0,4.0,74,0.00,,---,0.00,VWS V14.01,2013-02-19 00:03:00,
2013-02-18 19:04:00,57.7,49.5,30.07,NNE,28,0.0,4.0,74,0.00,,---,0.00,VWS V14.01,2013-02-19 00:04:00,
2013-02-18 19:05:00,57.7,49.5,30.07,North,360,4.0,4.0,74,0.00,,---,0.00,VWS V14.01,2013-02-19 00:05:00,
2013-02-18 19:06:00,57.6,49.4,30.07,NNE,12,4.0,4.0,74,0.00,,---,0.00,VWS V14.01,2013-02-19 00:06:00,
2013-02-18 19:07:00,57.6,49.4,30.07,NNE,31,0.0,8.0,74,0.00,,---,0.00,VWS V14.01,2013-02-19 00:07:00,
2013-02-18 19:08:00,57.6,49.4,30.07,North,5,3.0,8.0,74,0.00,,---,0.00,VWS V14.01,2013-02-19 00:08:00,
2013-02-18 19:09:00,57.5,49.7,30.06,North,5,0.0,8.0,75,0.00,,---,0.00,VWS V14.01,2013-02-19 00:09:00,
2013-02-18 19:10:00,57.5,49.7,30.06,North,5,5.0,8.0,75,0.00,,---,0.00,VWS V14.01,2013-02-19 00:10:00,
2013-02-18 19:11:00,57.4,49.5,30.06,North,5,0.0,8.0,75,0.00,,---,0.00,VWS V14.01,2013-02-19 00:11:00,
2013-02-18 19:12:00,57.4,49.9,30.06,North,5,0.0,8.0,76,0.00,,---,0.00,VWS V14.01,2013-02-19 00:12:00,
2013-02-18 19:13:00,57.4,50.3,30.06,ENE,65,0.0,8.0,77,0.00,,---,0.00,VWS V14.01,2013-02-19 00:13:00,
2013-02-18 19:14:00,57.3,50.2,30.06,ENE,74,0.0,8.0,77,0.01,,---,0.01,VWS V14.01,2013-02-19 00:14:00,
2013-02-18 19:15:00,57.2,50.1,30.06,North,360,0.0,8.0,77,0.01,,---,0.01,VWS V14.01,2013-02-19 00:15:00,
2013-02-18 19:16:00,57.1,50.0,30.06,NW,324,0.0,8.0,77,0.01,,---,0.01,VWS V14.01,2013-02-19 00:16:00,
2013-02-18 19:17:00,57.1,50.0,30.06,NW,325,0.0,8.0,77,0.01,,---,0.01,VWS V14.01,2013-02-19 00:17:00,
2013-02-18 19:18:00,57.0,49.9,30.06,NNE,28,0.0,8.0,77,0.01,,---,0.01,VWS V14.01,2013-02-19 00:18:00,
2013-02-18 19:19:00,56.9,50.1,30.06,North,5,3.0,8.0,78,0.01,,---,0.01,VWS V14.01,2013-02-19 00:19:00,
2013-02-18 19:20:00,56.8,50.0,30.06,North,5,0.0,8.0,78,0.01,,---,0.01,VWS V14.01,2013-02-19 00:20:00,
2013-02-18 19:21:00,56.7,50.3,30.06,NNW,344,1.0,8.0,79,0.01,,---,0.01,VWS V14.01,2013-02-19 00:21:00,
2013-02-18 19:22:00,56.6,50.2,30.06,North,9,0.0,8.0,79,0.01,,---,0.01,VWS V14.01,2013-02-19 00:22:00,
2013-02-18 19:23:00,56.4,50.0,30.06,North,10,0.0,8.0,79,0.01,,---,0.01,VWS V14.01,2013-02-19 00:23:00,
2013-02-18 19:24:00,56.3,50.2,30.06,North,10,0.0,8.0,80,0.02,,---,0.02,VWS V14.01,2013-02-19 00:24:00,
2013-02-18 19:25:00,56.2,50.1,30.05,North,5,4.0,8.0,80,0.02,,---,0.02,VWS V14.01,2013-02-19 00:25:00,
2013-02-18 19:26:00,56.1,50.4,30.05,NNW,340,2.0,8.0,81,0.02,,---,0.02,VWS V14.01,2013-02-19 00:26:00,
2013-02-18 19:27:00,56.0,50.3,30.05,North,5,3.0,8.0,81,0.02,,---,0.02,VWS V14.01,2013-02-19 00:27:00,
2013-02-18 19:28:00,55.9,50.2,30.06,NNE,13,0.0,8.0,81,0.02,,---,0.02,VWS V14.01,2013-02-19 00:28:00,
2013-02-18 19:29:00,55.9,50.5,30.05,NNE,25,0.0,8.0,82,0.02,,---,0.02,VWS V14.01,2013-02-19 00:29:00,
2013-02-18 19:30:00,55.8,50.4,30.05,NNW,344,0.0,8.0,82,0.02,,---,0.02,VWS V14.01,2013-02-19 00:30:00,
2013-02-18 19:31:00,55.8,50.4,30.05,North,355,3.0,4.0,82,0.02,,---,0.02,VWS V14.01,2013-02-19 00:31:00,
2013-02-18 19:32:00,55.7,50.6,30.05,NE,49,0.0,5.0,83,0.02,,---,0.02,VWS V14.01,2013-02-19 00:32:00,
2013-02-18 19:33:00,55.7,50.6,30.05,NNE,21,2.0,5.0,83,0.02,,---,0.02,VWS V14.01,2013-02-19 00:33:00,
2013-02-18 19:34:00,55.7,50.6,30.05,NE,39,0.0,6.0,83,0.02,,---,0.02,VWS V14.01,2013-02-19 00:34:00,
2013-02-18 19:35:00,55.7,50.6,30.05,NNW,346,5.0,8.0,83,0.02,,---,0.02,VWS V14.01,2013-02-19 00:35:00,
2013-02-18 19:36:00,55.7,50.6,30.05,NNE,19,1.0,8.0,83,0.02,,---,0.02,VWS V14.01,2013-02-19 00:36:00,
2013-02-18 19:37:00,55.7,50.6,30.05,North,5,3.0,8.0,83,0.02,,---,0.02,VWS V14.01,2013-02-19 00:37:00,
2013-02-18 19:38:00,55.7,51.0,30.05,NE,44,4.0,8.0,84,0.02,,---,0.02,VWS V14.01,2013-02-19 00:38:00,
2013-02-18 19:39:00,55.7,51.0,30.05,North,5,0.0,8.0,84,0.02,,---,0.02,VWS V14.01,2013-02-19 00:39:00,
2013-02-18 19:40:00,55.7,51.0,30.05,NNE,27,6.0,8.0,84,0.02,,---,0.02,VWS V14.01,2013-02-19 00:40:00,
2013-02-18 19:41:00,55.7,51.0,30.05,NE,37,4.0,8.0,84,0.02,,---,0.02,VWS V14.01,2013-02-19 00:41:00,
2013-02-18 19:42:00,55.7,51.0,30.04,NNW,345,2.0,8.0,84,0.02,,---,0.02,VWS V14.01,2013-02-19 00:42:00,
2013-02-18 19:43:00,55.7,51.0,30.04,NNW,348,0.0,8.0,84,0.02,,---,0.02,VWS V14.01,2013-02-19 00:43:00,
2013-02-18 19:44:00,55.7,51.0,30.04,North,360,8.0,8.0,84,0.02,,---,0.02,VWS V14.01,2013-02-19 00:44:00,
2013-02-18 19:45:00,55.7,51.0,30.05,North,10,5.0,9.0,84,0.02,,---,0.02,VWS V14.01,2013-02-19 00:45:00,
2013-02-18 19:46:00,55.7,51.0,30.05,NNE,21,6.0,9.0,84,0.02,,---,0.02,VWS V14.01,2013-02-19 00:46:00,
2013-02-18 19:47:00,55.7,51.0,30.04,NE,44,0.0,9.0,84,0.02,,---,0.02,VWS V14.01,2013-02-19 00:47:00,
2013-02-18 19:48:00,55.7,51.3,30.04,NNE,20,5.0,9.0,85,0.02,,---,0.02,VWS V14.01,2013-02-19 00:48:00,
2013-02-18 19:49:00,55.7,51.3,30.04,NNW,329,6.0,9.0,85,0.02,,---,0.02,VWS V14.01,2013-02-19 00:49:00,
2013-02-18 19:50:00,55.7,51.0,30.04,NNE,13,2.0,9.0,84,0.02,,---,0.02,VWS V14.01,2013-02-19 00:50:00,
2013-02-18 19:51:00,55.7,51.3,30.04,North,350,1.0,9.0,85,0.02,,---,0.02,VWS V14.01,2013-02-19 00:51:00,
2013-02-18 19:52:00,55.7,51.3,30.04,NNW,346,6.0,9.0,85,0.02,,---,0.02,VWS V14.01,2013-02-19 00:52:00,
2013-02-18 19:53:00,55.7,51.3,30.04,NNE,25,4.0,9.0,85,0.02,,---,0.02,VWS V14.01,2013-02-19 00:53:00,
2013-02-18 19:54:00,55.7,51.3,30.04,North,355,9.0,9.0,85,0.02,,---,0.02,VWS V14.01,2013-02-19 00:54:00,
2013-02-18 19:55:00,55.7,51.3,30.04,NNW,347,9.0,10.0,85,0.02,,---,0.02,VWS V14.01,2013-02-19 00:55:00,
2013-02-18 19:56:00,55.7,51.3,30.03,North,11,2.0,10.0,85,0.02,,---,0.02,VWS V14.01,2013-02-19 00:56:00,
2013-02-18 19:57:00,55.7,51.3,30.03,NNE,13,8.0,10.0,85,0.02,,---,0.02,VWS V14.01,2013-02-19 00:57:00,
2013-02-18 19:58:00,55.7,51.3,30.03,North,349,7.0,11.0,85,0.02,,---,0.02,VWS V14.01,2013-02-19 00:58:00,
2013-02-18 19:59:00,55.8,51.4,30.03,North,350,5.0,11.0,85,0.02,,---,0.02,VWS V14.01,2013-02-19 00:59:00,
2013-02-18 20:00:00,55.8,51.4,30.03,North,5,6.0,11.0,85,0.02,,---,0.02,VWS V14.01,2013-02-19 01:00:00,
2013-02-18 20:01:00,55.8,51.0,30.03,NW,314,7.0,9.0,84,0.02,,---,0.02,VWS V14.01,2013-02-19 01:01:00,
2013-02-18 20:02:00,55.9,51.5,30.03,NW,309,3.0,9.0,85,0.02,,---,0.02,VWS V14.01,2013-02-19 01:02:00,
2013-02-18 20:03:00,55.9,51.5,30.03,NNW,341,4.0,9.0,85,0.02,,---,0.02,VWS V14.01,2013-02-19 01:03:00,
2013-02-18 20:04:00,56.0,51.6,30.03,North,355,5.0,14.0,85,0.02,,---,0.02,VWS V14.01,2013-02-19 01:04:00,
2013-02-18 20:05:00,56.0,51.2,30.03,North,355,23.0,23.0,84,0.02,,---,0.02,VWS V14.01,2013-02-19 01:05:00,
2013-02-18 20:06:00,56.1,51.3,30.03,NE,37,9.0,23.0,84,0.02,,---,0.02,VWS V14.01,2013-02-19 01:06:00,
2013-02-18 20:07:00,56.2,51.4,30.03,NNE,16,5.0,23.0,84,0.02,,---,0.02,VWS V14.01,2013-02-19 01:07:00,
2013-02-18 20:08:00,56.2,51.4,30.03,North,5,6.0,23.0,84,0.02,,---,0.02,VWS V14.01,2013-02-19 01:08:00,
2013-02-18 20:09:00,56.2,51.4,30.03,NNE,25,8.0,23.0,84,0.02,,---,0.02,VWS V14.01,2013-02-19 01:09:00,
2013-02-18 20:10:00,56.2,51.4,30.03,North,355,4.0,23.0,84,0.02,,---,0.02,VWS V14.01,2013-02-19 01:10:00,
2013-02-18 20:11:00,56.2,51.4,30.03,NNE,22,8.0,23.0,84,0.02,,---,0.02,VWS V14.01,2013-02-19 01:11:00,
2013-02-18 20:12:00,56.2,51.4,30.03,NNW,340,0.0,23.0,84,0.02,,---,0.02,VWS V14.01,2013-02-19 01:12:00,
2013-02-18 20:13:00,56.2,51.4,30.03,NNW,329,9.0,23.0,84,0.02,,---,0.02,VWS V14.01,2013-02-19 01:13:00,
2013-02-18 20:14:00,56.2,51.4,30.03,NNW,338,8.0,23.0,84,0.02,,---,0.02,VWS V14.01,2013-02-19 01:14:00,
2013-02-18 20:15:00,56.2,51.4,30.03,North,5,6.0,23.0,84,0.02,,---,0.02,VWS V14.01,2013-02-19 01:15:00,
2013-02-18 20:16:00,56.2,51.4,30.03,North,355,9.0,23.0,84,0.02,,---,0.02,VWS V14.01,2013-02-19 01:16:00,
2013-02-18 20:17:00,56.2,51.4,30.03,NNE,20,8.0,23.0,84,0.02,,---,0.02,VWS V14.01,2013-02-19 01:17:00,
2013-02-18 20:18:00,56.1,51.3,30.02,NNE,22,4.0,23.0,84,0.02,,---,0.02,VWS V14.01,2013-02-19 01:18:00,
2013-02-18 20:19:00,56.1,51.3,30.02,NNE,17,4.0,23.0,84,0.02,,---,0.02,VWS V14.01,2013-02-19 01:19:00,
2013-02-18 20:20:00,56.1,51.3,30.02,North,5,5.0,23.0,84,0.02,,---,0.02,VWS V14.01,2013-02-19 01:20:00,
2013-02-18 20:21:00,56.1,51.7,30.02,NNW,338,0.0,23.0,85,0.02,,---,0.02,VWS V14.01,2013-02-19 01:21:00,
2013-02-18 20:22:00,56.1,51.7,30.02,NNW,339,9.0,23.0,85,0.02,,---,0.02,VWS V14.01,2013-02-19 01:22:00,
2013-02-18 20:23:00,56.0,51.6,30.02,NNE,26,11.0,23.0,85,0.02,,---,0.02,VWS V14.01,2013-02-19 01:23:00,
2013-02-18 20:24:00,56.0,51.6,30.02,NW,316,3.0,23.0,85,0.02,,---,0.02,VWS V14.01,2013-02-19 01:24:00,
2013-02-18 20:25:00,56.0,51.6,30.01,NE,36,2.0,23.0,85,0.02,,---,0.02,VWS V14.01,2013-02-19 01:25:00,
2013-02-18 20:26:00,56.0,51.6,30.01,North,351,5.0,23.0,85,0.03,,---,0.03,VWS V14.01,2013-02-19 01:26:00,
2013-02-18 20:27:00,55.9,51.5,30.01,North,355,4.0,23.0,85,0.03,,---,0.03,VWS V14.01,2013-02-19 01:27:00,
2013-02-18 20:28:00,55.9,51.8,30.01,NNW,332,12.0,23.0,86,0.03,,---,0.03,VWS V14.01,2013-02-19 01:28:00,
2013-02-18 20:29:00,55.9,51.8,30.01,NNW,340,10.0,23.0,86,0.03,,---,0.03,VWS V14.01,2013-02-19 01:29:00,
2013-02-18 20:30:00,55.9,51.8,30.01,North,360,4.0,23.0,86,0.03,,---,0.03,VWS V14.01,2013-02-19 01:30:00,
2013-02-18 20:31:00,55.9,51.8,30.01,North,5,4.0,6.0,86,0.01,,---,0.03,VWS V14.01,2013-02-19 01:31:00,
2013-02-18 20:32:00,55.8,51.7,30.01,NW,322,11.0,11.0,86,0.01,,---,0.03,VWS V14.01,2013-02-19 01:32:00,
2013-02-18 20:33:00,55.8,51.7,30.01,NNW,334,7.0,17.0,86,0.01,,---,0.03,VWS V14.01,2013-02-19 01:33:00,
2013-02-18 20:34:00,55.8,51.7,30.01,NNE,13,3.0,17.0,86,0.01,,---,0.03,VWS V14.01,2013-02-19 01:34:00,
2013-02-18 20:35:00,55.7,51.6,30.01,NNW,344,5.0,17.0,86,0.01,,---,0.03,VWS V14.01,2013-02-19 01:35:00,
2013-02-18 20:36:00,55.7,51.6,30.01,NW,320,4.0,17.0,86,0.01,,---,0.03,VWS V14.01,2013-02-19 01:36:00,
2013-02-18 20:37:00,55.7,51.6,30.01,NNW,342,7.0,17.0,86,0.01,,---,0.03,VWS V14.01,2013-02-19 01:37:00,
2013-02-18 20:38:00,55.6,51.5,30.01,North,349,4.0,17.0,86,0.01,,---,0.03,VWS V14.01,2013-02-19 01:38:00,
2013-02-18 20:39:00,55.6,51.8,30.00,NW,309,8.0,17.0,87,0.01,,---,0.03,VWS V14.01,2013-02-19 01:39:00,
2013-02-18 20:40:00,55.6,51.8,30.00,NW,304,8.0,17.0,87,0.01,,---,0.03,VWS V14.01,2013-02-19 01:40:00,
2013-02-18 20:41:00,55.5,51.7,30.00,West,279,9.0,17.0,87,0.01,,---,0.03,VWS V14.01,2013-02-19 01:41:00,
2013-02-18 20:42:00,55.5,51.7,30.00,NNW,337,8.0,17.0,87,0.01,,---,0.03,VWS V14.01,2013-02-19 01:42:00,
2013-02-18 20:43:00,55.5,51.7,30.00,North,350,6.0,17.0,87,0.01,,---,0.03,VWS V14.01,2013-02-19 01:43:00,
2013-02-18 20:44:00,55.5,51.7,30.00,North,360,11.0,17.0,87,0.01,,---,0.03,VWS V14.01,2013-02-19 01:44:00,
2013-02-18 20:45:00,55.4,51.6,30.00,NNW,348,8.0,17.0,87,0.01,,---,0.03,VWS V14.01,2013-02-19 01:45:00,
2013-02-18 20:46:00,55.4,51.6,30.00,North,9,6.0,17.0,87,0.02,,---,0.04,VWS V14.01,2013-02-19 01:46:00,
2013-02-18 20:47:00,55.4,51.6,30.00,NNW,345,2.0,17.0,87,0.02,,---,0.04,VWS V14.01,2013-02-19 01:47:00,
2013-02-18 20:48:00,55.4,51.6,30.00,North,5,6.0,17.0,87,0.02,,---,0.04,VWS V14.01,2013-02-19 01:48:00,
2013-02-18 20:49:00,55.4,51.9,30.00,NNW,340,8.0,17.0,88,0.02,,---,0.04,VWS V14.01,2013-02-19 01:49:00,
2013-02-18 20:50:00,55.4,51.9,30.00,NNW,346,11.0,17.0,88,0.02,,---,0.04,VWS V14.01,2013-02-19 01:50:00,
2013-02-18 20:51:00,55.3,51.8,30.00,North,5,3.0,17.0,88,0.02,,---,0.04,VWS V14.01,2013-02-19 01:51:00,
2013-02-18 20:52:00,55.4,51.9,30.00,NE,37,6.0,17.0,88,0.02,,---,0.04,VWS V14.01,2013-02-19 01:52:00,
2013-02-18 20:53:00,55.4,51.9,30.00,NW,324,7.0,17.0,88,0.02,,---,0.04,VWS V14.01,2013-02-19 01:53:00,
2013-02-18 20:54:00,55.4,51.9,30.00,North,351,4.0,17.0,88,0.02,,---,0.04,VWS V14.01,2013-02-19 01:54:00,
2013-02-18 20:55:00,55.4,51.9,30.00,North,5,2.0,17.0,88,0.02,,---,0.04,VWS V14.01,2013-02-19 01:55:00,
2013-02-18 20:56:00,55.4,51.9,30.00,NNE,20,4.0,17.0,88,0.02,,---,0.04,VWS V14.01,2013-02-19 01:56:00,
2013-02-18 20:57:00,55.4,51.9,30.00,NNW,340,8.0,17.0,88,0.02,,---,0.04,VWS V14.01,2013-02-19 01:57:00,
2013-02-18 20:58:00,55.4,51.9,30.00,North,360,0.0,17.0,88,0.02,,---,0.04,VWS V14.01,2013-02-19 01:58:00,
2013-02-18 20:59:00,55.4,51.9,30.00,NNW,344,3.0,17.0,88,0.02,,---,0.04,VWS V14.01,2013-02-19 01:59:00,
2013-02-18 21:00:00,55.4,51.9,29.99,NNW,343,3.0,17.0,88,0.02,,---,0.04,VWS V14.01,2013-02-19 02:00:00,
2013-02-18 21:01:00,55.4,51.9,29.99,North,11,4.0,6.0,88,0.02,,---,0.04,VWS V14.01,2013-02-19 02:01:00,
2013-02-18 21:02:00,55.4,51.9,29.99,NNW,327,3.0,7.0,88,0.02,,---,0.04,VWS V14.01,2013-02-19 02:02:00,
2013-02-18 21:03:00,55.4,51.9,29.99,NNW,348,7.0,7.0,88,0.02,,---,0.04,VWS V14.01,2013-02-19 02:03:00,
2013-02-18 21:04:00,55.5,52.0,29.99,NNW,336,7.0,12.0,88,0.02,,---,0.04,VWS V14.01,2013-02-19 02:04:00,
2013-02-18 21:05:00,55.5,52.0,29.99,NNW,338,5.0,12.0,88,0.02,,---,0.04,VWS V14.01,2013-02-19 02:05:00,
2013-02-18 21:06:00,55.5,51.7,29.99,NNW,338,5.0,12.0,87,0.02,,---,0.04,VWS V14.01,2013-02-19 02:06:00,
2013-02-18 21:07:00,55.5,51.7,29.99,NNW,327,2.0,12.0,87,0.02,,---,0.04,VWS V14.01,2013-02-19 02:07:00,
2013-02-18 21:08:00,55.5,51.7,29.99,North,355,11.0,12.0,87,0.02,,---,0.04,VWS V14.01,2013-02-19 02:08:00,
2013-02-18 21:09:00,55.6,51.8,29.99,NNW,329,6.0,12.0,87,0.02,,---,0.04,VWS V14.01,2013-02-19 02:09:00,
2013-02-18 21:10:00,55.6,51.8,29.99,NW,323,0.0,12.0,87,0.02,,---,0.04,VWS V14.01,2013-02-19 02:10:00,
2013-02-18 21:11:00,55.6,52.1,29.99,North,355,3.0,12.0,88,0.02,,---,0.04,VWS V14.01,2013-02-19 02:11:00,
2013-02-18 21:12:00,55.6,52.1,29.99,NW,323,2.0,12.0,88,0.02,,---,0.04,VWS V14.01,2013-02-19 02:12:00,
2013-02-18 21:13:00,55.6,52.1,29.99,NW,323,0.0,12.0,88,0.02,,---,0.04,VWS V14.01,2013-02-19 02:13:00,
2013-02-18 21:14:00,55.6,52.1,29.99,NW,323,0.0,12.0,88,0.02,,---,0.04,VWS V14.01,2013-02-19 02:14:00,
2013-02-18 21:15:00,55.6,52.1,29.99,NW,323,0.0,12.0,88,0.02,,---,0.04,VWS V14.01,2013-02-19 02:15:00,
2013-02-18 21:16:00,55.6,52.1,29.99,NW,323,0.0,12.0,88,0.02,,---,0.04,VWS V14.01,2013-02-19 02:16:00,
2013-02-18 21:17:00,55.6,52.1,29.99,NW,323,0.0,12.0,88,0.02,,---,0.04,VWS V14.01,2013-02-19 02:17:00,
2013-02-18 21:18:00,55.6,52.1,29.99,NW,323,0.0,12.0,88,0.02,,---,0.04,VWS V14.01,2013-02-19 02:18:00,
2013-02-18 21:19:00,55.6,52.1,29.99,NW,323,0.0,12.0,88,0.02,,---,0.04,VWS V14.01,2013-02-19 02:19:00,
2013-02-18 21:20:00,55.6,52.1,29.99,NW,323,0.0,12.0,88,0.02,,---,0.04,VWS V14.01,2013-02-19 02:20:00,
2013-02-18 21:21:00,55.6,52.1,29.99,NW,323,0.0,12.0,88,0.02,,---,0.04,VWS V14.01,2013-02-19 02:21:00,
2013-02-18 21:22:00,55.6,52.1,29.99,NW,323,0.0,12.0,88,0.02,,---,0.04,VWS V14.01,2013-02-19 02:22:00,
2013-02-18 21:23:00,55.8,52.3,29.99,North,355,0.0,12.0,88,0.02,,---,0.04,VWS V14.01,2013-02-19 02:23:00,
2013-02-18 21:24:00,55.8,52.3,29.99,NNW,348,6.0,12.0,88,0.02,,---,0.04,VWS V14.01,2013-02-19 02:24:00,
2013-02-18 21:25:00,55.8,52.3,29.99,North,5,6.0,12.0,88,0.02,,---,0.04,VWS V14.01,2013-02-19 02:25:00,
2013-02-18 21:26:00,55.8,52.3,29.99,NNW,344,4.0,12.0,88,0.02,,---,0.04,VWS V14.01,2013-02-19 02:26:00,
2013-02-18 21:27:00,55.8,52.3,29.99,NNE,15,3.0,12.0,88,0.02,,---,0.04,VWS V14.01,2013-02-19 02:27:00,
2013-02-18 21:28:00,55.8,52.3,29.99,NNW,329,6.0,12.0,88,0.02,,---,0.04,VWS V14.01,2013-02-19 02:28:00,
2013-02-18 21:29:00,55.8,52.3,29.99,North,350,4.0,12.0,88,0.02,,---,0.04,VWS V14.01,2013-02-19 02:29:00,
2013-02-18 21:30:00,55.8,52.3,29.99,NW,305,13.0,13.0,88,0.01,,---,0.04,VWS V14.01,2013-02-19 02:30:00,
2013-02-18 21:31:00,55.8,52.3,29.99,NNW,336,6.0,13.0,88,0.01,,---,0.04,VWS V14.01,2013-02-19 02:31:00,
2013-02-18 21:32:00,55.7,52.2,29.99,NNW,345,6.0,13.0,88,0.01,,---,0.04,VWS V14.01,2013-02-19 02:32:00,
2013-02-18 21:33:00,55.7,52.2,29.98,North,350,0.0,13.0,88,0.01,,---,0.04,VWS V14.01,2013-02-19 02:33:00,
2013-02-18 21:34:00,55.7,52.5,29.98,NNW,331,8.0,13.0,89,0.01,,---,0.04,VWS V14.01,2013-02-19 02:34:00,
2013-02-18 21:35:00,55.7,52.5,29.98,NW,319,7.0,13.0,89,0.01,,---,0.04,VWS V14.01,2013-02-19 02:35:00,
2013-02-18 21:36:00,55.7,52.5,29.98,NNW,345,5.0,13.0,89,0.01,,---,0.04,VWS V14.01,2013-02-19 02:36:00,
2013-02-18 21:37:00,55.7,52.5,29.98,NNW,347,9.0,13.0,89,0.01,,---,0.04,VWS V14.01,2013-02-19 02:37:00,
2013-02-18 21:38:00,55.7,52.5,29.98,WNW,301,9.0,13.0,89,0.01,,---,0.04,VWS V14.01,2013-02-19 02:38:00,
2013-02-18 21:39:00,55.7,52.5,29.98,North,9,10.0,13.0,89,0.01,,---,0.04,VWS V14.01,2013-02-19 02:39:00,
2013-02-18 21:40:00,55.7,52.5,29.98,NNW,329,6.0,13.0,89,0.01,,---,0.04,VWS V14.01,2013-02-19 02:40:00,
2013-02-18 21:41:00,55.7,52.5,29.98,NNW,346,3.0,13.0,89,0.01,,---,0.04,VWS V14.01,2013-02-19 02:41:00,
2013-02-18 21:42:00,55.7,52.5,29.98,North,5,5.0,13.0,89,0.01,,---,0.04,VWS V14.01,2013-02-19 02:42:00,
2013-02-18 21:43:00,55.7,52.5,29.98,NNW,346,7.0,13.0,89,0.01,,---,0.04,VWS V14.01,2013-02-19 02:43:00,
2013-02-18 21:44:00,55.7,52.5,29.98,NNW,334,3.0,13.0,89,0.01,,---,0.04,VWS V14.01,2013-02-19 02:44:00,
2013-02-18 21:45:00,55.7,52.8,29.97,NNW,334,10.0,13.0,90,0.01,,---,0.04,VWS V14.01,2013-02-19 02:45:00,
2013-02-18 21:46:00,55.7,52.8,29.97,NW,310,8.0,13.0,90,0.01,,---,0.04,VWS V14.01,2013-02-19 02:46:00,
2013-02-18 21:47:00,55.7,52.8,29.97,NNW,347,10.0,13.0,90,0.01,,---,0.04,VWS V14.01,2013-02-19 02:47:00,
2013-02-18 21:48:00,55.7,52.8,29.97,NW,310,7.0,13.0,90,0.01,,---,0.04,VWS V14.01,2013-02-19 02:48:00,
2013-02-18 21:49:00,55.7,52.8,29.97,NW,306,5.0,13.0,90,0.01,,---,0.04,VWS V14.01,2013-02-19 02:49:00,
2013-02-18 21:50:00,55.7,52.8,29.97,NE,50,6.0,13.0,90,0.01,,---,0.04,VWS V14.01,2013-02-19 02:50:00,
2013-02-18 21:51:00,55.7,52.8,29.97,North,355,5.0,13.0,90,0.01,,---,0.04,VWS V14.01,2013-02-19 02:51:00,
2013-02-18 21:52:00,55.8,52.9,29.97,NNW,344,8.0,13.0,90,0.01,,---,0.04,VWS V14.01,2013-02-19 02:52:00,
2013-02-18 21:53:00,55.8,52.9,29.97,NW,309,3.0,13.0,90,0.01,,---,0.04,VWS V14.01,2013-02-19 02:53:00,
2013-02-18 21:54:00,55.7,52.8,29.97,NW,312,6.0,13.0,90,0.01,,---,0.04,VWS V14.01,2013-02-19 02:54:00,
2013-02-18 21:55:00,55.8,52.9,29.97,NW,321,7.0,13.0,90,0.01,,---,0.04,VWS V14.01,2013-02-19 02:55:00,
2013-02-18 21:56:00,55.8,52.9,29.97,NNW,337,9.0,13.0,90,0.01,,---,0.04,VWS V14.01,2013-02-19 02:56:00,
2013-02-18 21:57:00,55.8,52.9,29.97,NNW,329,5.0,13.0,90,0.01,,---,0.04,VWS V14.01,2013-02-19 02:57:00,
2013-02-18 21:58:00,55.8,52.9,29.97,NNW,341,5.0,13.0,90,0.01,,---,0.04,VWS V14.01,2013-02-19 02:58:00,
2013-02-18 21:59:00,55.8,52.9,29.96,North,360,7.0,13.0,90,0.01,,---,0.04,VWS V14.01,2013-02-19 02:59:00,
2013-02-18 22:00:00,55.8,52.9,29.96,NNW,340,6.0,13.0,90,0.01,,---,0.04,VWS V14.01,2013-02-19 03:00:00,
2013-02-18 22:01:00,55.8,52.9,29.96,NNW,329,9.0,10.0,90,0.00,,---,0.04,VWS V14.01,2013-02-19 03:01:00,
2013-02-18 22:02:00,55.8,52.9,29.96,NNW,333,9.0,13.0,90,0.00,,---,0.04,VWS V14.01,2013-02-19 03:02:00,
2013-02-18 22:03:00,55.8,52.9,29.96,NNW,342,8.0,13.0,90,0.00,,---,0.04,VWS V14.01,2013-02-19 03:03:00,
2013-02-18 22:04:00,55.8,52.9,29.96,NW,319,3.0,13.0,90,0.00,,---,0.04,VWS V14.01,2013-02-19 03:04:00,
2013-02-18 22:05:00,55.8,53.2,29.96,NW,319,7.0,13.0,91,0.00,,---,0.04,VWS V14.01,2013-02-19 03:05:00,
2013-02-18 22:06:00,55.8,53.2,29.96,NW,317,7.0,13.0,91,0.00,,---,0.04,VWS V14.01,2013-02-19 03:06:00,
2013-02-18 22:07:00,55.8,53.2,29.97,North,360,8.0,13.0,91,0.00,,---,0.04,VWS V14.01,2013-02-19 03:07:00,
2013-02-18 22:08:00,55.8,53.2,29.97,WNW,300,5.0,13.0,91,0.00,,---,0.04,VWS V14.01,2013-02-19 03:08:00,
2013-02-18 22:09:00,55.8,53.2,29.97,NNW,346,3.0,13.0,91,0.00,,---,0.04,VWS V14.01,2013-02-19 03:09:00,
2013-02-18 22:10:00,55.8,53.2,29.97,NW,321,3.0,13.0,91,0.00,,---,0.04,VWS V14.01,2013-02-19 03:10:00,
2013-02-18 22:11:00,55.8,53.2,29.97,NNE,12,1.0,13.0,91,0.00,,---,0.04,VWS V14.01,2013-02-19 03:11:00,
2013-02-18 22:12:00,55.8,53.2,29.96,North,9,3.0,13.0,91,0.00,,---,0.04,VWS V14.01,2013-02-19 03:12:00,
2013-02-18 22:13:00,55.8,53.2,29.96,North,360,3.0,13.0,91,0.00,,---,0.04,VWS V14.01,2013-02-19 03:13:00,
2013-02-18 22:14:00,55.8,53.2,29.97,NNE,15,5.0,13.0,91,0.00,,---,0.04,VWS V14.01,2013-02-19 03:14:00,
2013-02-18 22:15:00,55.8,53.2,29.97,NNE,20,6.0,13.0,91,0.00,,---,0.04,VWS V14.01,2013-02-19 03:15:00,
2013-02-18 22:16:00,55.8,53.2,29.97,North,5,10.0,13.0,91,0.00,,---,0.04,VWS V14.01,2013-02-19 03:16:00,
2013-02-18 22:17:00,55.8,53.2,29.97,North,5,7.0,13.0,91,0.00,,---,0.04,VWS V14.01,2013-02-19 03:17:00,
2013-02-18 22:18:00,55.8,53.2,29.96,NNW,341,2.0,13.0,91,0.00,,---,0.04,VWS V14.01,2013-02-19 03:18:00,
2013-02-18 22:19:00,55.8,53.2,29.96,North,355,4.0,13.0,91,0.00,,---,0.04,VWS V14.01,2013-02-19 03:19:00,
2013-02-18 22:20:00,55.8,53.2,29.96,NNE,22,2.0,13.0,91,0.00,,---,0.04,VWS V14.01,2013-02-19 03:20:00,
2013-02-18 22:21:00,55.8,53.2,29.96,NNW,337,8.0,13.0,91,0.00,,---,0.04,VWS V14.01,2013-02-19 03:21:00,
2013-02-18 22:22:00,55.8,53.2,29.96,NNW,341,8.0,13.0,91,0.00,,---,0.04,VWS V14.01,2013-02-19 03:22:00,
2013-02-18 22:23:00,55.8,53.2,29.96,North,5,4.0,13.0,91,0.00,,---,0.04,VWS V14.01,2013-02-19 03:23:00,
2013-02-18 22:24:00,55.8,53.2,29.97,North,355,10.0,13.0,91,0.00,,---,0.04,VWS V14.01,2013-02-19 03:24:00,
2013-02-18 22:25:00,55.8,53.2,29.97,North,5,5.0,13.0,91,0.00,,---,0.04,VWS V14.01,2013-02-19 03:25:00,
2013-02-18 22:26:00,55.8,53.2,29.97,NNE,19,5.0,13.0,91,0.01,,---,0.05,VWS V14.01,2013-02-19 03:26:00,
2013-02-18 22:27:00,55.8,53.2,29.97,NE,46,12.0,13.0,91,0.01,,---,0.05,VWS V14.01,2013-02-19 03:27:00,
2013-02-18 22:28:00,55.8,53.2,29.97,NNW,348,6.0,13.0,91,0.01,,---,0.05,VWS V14.01,2013-02-19 03:28:00,
2013-02-18 22:29:00,55.8,53.2,29.97,North,5,5.0,13.0,91,0.01,,---,0.05,VWS V14.01,2013-02-19 03:29:00,
2013-02-18 22:30:00,55.8,53.2,29.97,NE,38,4.0,13.0,91,0.01,,---,0.05,VWS V14.01,2013-02-19 03:30:00,
2013-02-18 22:31:00,55.8,53.2,29.97,North,355,4.0,6.0,91,0.01,,---,0.05,VWS V14.01,2013-02-19 03:31:00,
2013-02-18 22:32:00,55.7,53.1,29.97,NNW,339,4.0,6.0,91,0.01,,---,0.05,VWS V14.01,2013-02-19 03:32:00,
2013-02-18 22:33:00,55.7,53.1,29.96,North,9,4.0,7.0,91,0.01,,---,0.05,VWS V14.01,2013-02-19 03:33:00,
2013-02-18 22:34:00,55.7,53.1,29.97,NNE,18,4.0,7.0,91,0.01,,---,0.05,VWS V14.01,2013-02-19 03:34:00,
2013-02-18 22:35:00,55.7,53.1,29.97,North,9,0.0,7.0,91,0.01,,---,0.05,VWS V14.01,2013-02-19 03:35:00,
2013-02-18 22:36:00,55.7,53.4,29.97,NE,34,1.0,7.0,92,0.01,,---,0.05,VWS V14.01,2013-02-19 03:36:00,
2013-02-18 22:37:00,55.7,53.4,29.97,North,355,4.0,7.0,92,0.01,,---,0.05,VWS V14.01,2013-02-19 03:37:00,
2013-02-18 22:38:00,55.7,53.4,29.97,North,360,10.0,11.0,92,0.01,,---,0.05,VWS V14.01,2013-02-19 03:38:00,
2013-02-18 22:39:00,55.7,53.4,29.97,North,11,9.0,12.0,92,0.02,,---,0.06,VWS V14.01,2013-02-19 03:39:00,
2013-02-18 22:40:00,55.7,53.4,29.96,NNW,348,6.0,12.0,92,0.02,,---,0.06,VWS V14.01,2013-02-19 03:40:00,
2013-02-18 22:41:00,55.7,53.4,29.97,North,10,6.0,12.0,92,0.02,,---,0.06,VWS V14.01,2013-02-19 03:41:00,
2013-02-18 22:42:00,55.7,53.4,29.97,North,355,2.0,12.0,92,0.02,,---,0.06,VWS V14.01,2013-02-19 03:42:00,
2013-02-18 22:43:00,55.7,53.4,29.97,NNE,26,11.0,14.0,92,0.02,,---,0.06,VWS V14.01,2013-02-19 03:43:00,
2013-02-18 22:44:00,55.7,53.4,29.96,NW,306,12.0,14.0,92,0.02,,---,0.06,VWS V14.01,2013-02-19 03:44:00,
2013-02-18 22:45:00,55.7,53.4,29.96,NNW,335,5.0,14.0,92,0.02,,---,0.06,VWS V14.01,2013-02-19 03:45:00,
2013-02-18 22:46:00,55.7,53.4,29.96,North,5,8.0,14.0,92,0.02,,---,0.06,VWS V14.01,2013-02-19 03:46:00,
2013-02-18 22:47:00,55.7,53.4,29.96,NNW,337,8.0,14.0,92,0.02,,---,0.06,VWS V14.01,2013-02-19 03:47:00,
2013-02-18 22:48:00,55.7,53.4,29.96,North,360,5.0,14.0,92,0.02,,---,0.06,VWS V14.01,2013-02-19 03:48:00,
2013-02-18 22:49:00,55.8,53.5,29.96,NNE,15,5.0,14.0,92,0.02,,---,0.06,VWS V14.01,2013-02-19 03:49:00,
2013-02-18 22:50:00,55.7,53.4,29.96,NNE,21,8.0,14.0,92,0.02,,---,0.06,VWS V14.01,2013-02-19 03:50:00,
2013-02-18 22:51:00,55.8,53.5,29.96,North,355,6.0,14.0,92,0.02,,---,0.06,VWS V14.01,2013-02-19 03:51:00,
2013-02-18 22:52:00,55.8,53.5,29.96,North,355,6.0,14.0,92,0.02,,---,0.06,VWS V14.01,2013-02-19 03:52:00,
2013-02-18 22:53:00,55.8,53.5,29.96,NNW,341,6.0,14.0,92,0.02,,---,0.06,VWS V14.01,2013-02-19 03:53:00,
2013-02-18 22:54:00,55.8,53.5,29.96,North,5,1.0,14.0,92,0.03,,---,0.07,VWS V14.01,2013-02-19 03:54:00,
2013-02-18 22:55:00,55.8,53.5,29.96,NNE,17,0.0,14.0,92,0.03,,---,0.07,VWS V14.01,2013-02-19 03:55:00,
2013-02-18 22:56:00,55.8,53.5,29.96,North,5,5.0,14.0,92,0.03,,---,0.07,VWS V14.01,2013-02-19 03:56:00,
2013-02-18 22:57:00,55.8,53.5,29.96,North,360,3.0,14.0,92,0.03,,---,0.07,VWS V14.01,2013-02-19 03:57:00,
2013-02-18 22:58:00,55.8,53.5,29.97,NNW,340,6.0,14.0,92,0.03,,---,0.07,VWS V14.01,2013-02-19 03:58:00,
2013-02-18 22:59:00,55.7,53.4,29.97,North,355,3.0,14.0,92,0.03,,---,0.07,VWS V14.01,2013-02-19 03:59:00,
2013-02-18 23:00:00,55.7,53.4,29.97,NNW,336,7.0,14.0,92,0.03,,---,0.07,VWS V14.01,2013-02-19 04:00:00,
2013-02-18 23:01:00,55.7,53.4,29.97,North,351,2.0,6.0,92,0.03,,---,0.07,VWS V14.01,2013-02-19 04:01:00,
2013-02-18 23:02:00,55.7,53.4,29.97,NNW,335,0.0,11.0,92,0.03,,---,0.07,VWS V14.01,2013-02-19 04:02:00,
2013-02-18 23:03:00,55.7,53.4,29.96,NNE,17,0.0,11.0,92,0.03,,---,0.07,VWS V14.01,2013-02-19 04:03:00,
2013-02-18 23:04:00,55.7,53.4,29.96,North,5,7.0,11.0,92,0.03,,---,0.07,VWS V14.01,2013-02-19 04:04:00,
2013-02-18 23:05:00,55.7,53.4,29.96,NNE,16,5.0,11.0,92,0.03,,---,0.07,VWS V14.01,2013-02-19 04:05:00,
2013-02-18 23:06:00,55.7,53.4,29.96,North,5,1.0,11.0,92,0.03,,---,0.07,VWS V14.01,2013-02-19 04:06:00,
2013-02-18 23:07:00,55.7,53.4,29.96,NNW,344,5.0,11.0,92,0.03,,---,0.07,VWS V14.01,2013-02-19 04:07:00,
2013-02-18 23:08:00,55.7,53.4,29.97,NNE,32,5.0,11.0,92,0.03,,---,0.07,VWS V14.01,2013-02-19 04:08:00,
2013-02-18 23:09:00,55.7,53.4,29.97,NNE,13,6.0,11.0,92,0.03,,---,0.07,VWS V14.01,2013-02-19 04:09:00,
2013-02-18 23:10:00,55.7,53.7,29.96,NNW,340,1.0,11.0,93,0.03,,---,0.07,VWS V14.01,2013-02-19 04:10:00,
2013-02-18 23:11:00,55.7,53.7,29.96,NNW,337,0.0,11.0,93,0.04,,---,0.08,VWS V14.01,2013-02-19 04:11:00,
2013-02-18 23:12:00,55.7,53.7,29.96,NE,38,4.0,11.0,93,0.04,,---,0.08,VWS V14.01,2013-02-19 04:12:00,
2013-02-18 23:13:00,55.7,53.7,29.96,North,355,5.0,11.0,93,0.04,,---,0.08,VWS V14.01,2013-02-19 04:13:00,
2013-02-18 23:14:00,55.7,53.7,29.96,NE,47,3.0,11.0,93,0.04,,---,0.08,VWS V14.01,2013-02-19 04:14:00,
2013-02-18 23:15:00,55.7,53.7,29.96,North,360,3.0,11.0,93,0.04,,---,0.08,VWS V14.01,2013-02-19 04:15:00,
2013-02-18 23:16:00,55.7,53.7,29.96,NNE,13,6.0,11.0,93,0.04,,---,0.08,VWS V14.01,2013-02-19 04:16:00,
2013-02-18 23:17:00,55.7,53.7,29.96,NNE,29,3.0,11.0,93,0.04,,---,0.08,VWS V14.01,2013-02-19 04:17:00,
2013-02-18 23:18:00,55.7,53.7,29.96,ENE,59,3.0,11.0,93,0.04,,---,0.08,VWS V14.01,2013-02-19 04:18:00,
2013-02-18 23:19:00,55.7,53.7,29.96,East,94,0.0,11.0,93,0.04,,---,0.08,VWS V14.01,2013-02-19 04:19:00,
2013-02-18 23:20:00,55.7,53.7,29.96,NNE,17,1.0,11.0,93,0.04,,---,0.08,VWS V14.01,2013-02-19 04:20:00,
2013-02-18 23:21:00,55.7,53.7,29.96,NNE,19,7.0,11.0,93,0.04,,---,0.08,VWS V14.01,2013-02-19 04:21:00,
2013-02-18 23:22:00,55.7,53.7,29.96,ENE,63,4.0,11.0,93,0.04,,---,0.08,VWS V14.01,2013-02-19 04:22:00,
2013-02-18 23:23:00,55.7,53.7,29.96,NE,37,2.0,11.0,93,0.04,,---,0.08,VWS V14.01,2013-02-19 04:23:00,
2013-02-18 23:24:00,55.7,53.7,29.96,NNE,25,2.0,11.0,93,0.04,,---,0.08,VWS V14.01,2013-02-19 04:24:00,
2013-02-18 23:25:00,55.7,53.7,29.96,NNE,26,0.0,11.0,93,0.04,,---,0.08,VWS V14.01,2013-02-19 04:25:00,
2013-02-18 23:26:00,55.7,53.7,29.96,NNW,343,2.0,11.0,93,0.04,,---,0.08,VWS V14.01,2013-02-19 04:26:00,
2013-02-18 23:27:00,55.6,53.6,29.96,NW,306,2.0,11.0,93,0.04,,---,0.08,VWS V14.01,2013-02-19 04:27:00,
2013-02-18 23:28:00,55.6,53.6,29.96,NW,317,1.0,11.0,93,0.04,,---,0.08,VWS V14.01,2013-02-19 04:28:00,
2013-02-18 23:29:00,55.6,53.6,29.96,NNW,343,0.0,11.0,93,0.04,,---,0.08,VWS V14.01,2013-02-19 04:29:00,
2013-02-18 23:30:00,55.7,53.7,29.96,NE,35,7.0,11.0,93,0.04,,---,0.08,VWS V14.01,2013-02-19 04:30:00,
2013-02-18 23:31:00,55.7,53.7,29.96,NNW,341,3.0,9.0,93,0.03,,---,0.08,VWS V14.01,2013-02-19 04:31:00,
2013-02-18 23:32:00,55.6,53.6,29.96,NE,38,2.0,9.0,93,0.03,,---,0.08,VWS V14.01,2013-02-19 04:32:00,
2013-02-18 23:33:00,55.7,53.7,29.96,NE,51,7.0,9.0,93,0.04,,---,0.09,VWS V14.01,2013-02-19 04:33:00,
2013-02-18 23:34:00,55.6,53.6,29.96,NE,45,5.0,10.0,93,0.04,,---,0.09,VWS V14.01,2013-02-19 04:34:00,
2013-02-18 23:35:00,55.7,53.7,29.96,North,355,0.0,10.0,93,0.04,,---,0.09,VWS V14.01,2013-02-19 04:35:00,
2013-02-18 23:36:00,55.7,53.7,29.96,East,80,1.0,10.0,93,0.04,,---,0.09,VWS V14.01,2013-02-19 04:36:00,
2013-02-18 23:37:00,55.7,53.7,29.96,NW,323,0.0,10.0,93,0.04,,---,0.09,VWS V14.01,2013-02-19 04:37:00,
2013-02-18 23:38:00,55.7,53.7,29.96,North,11,1.0,10.0,93,0.04,,---,0.09,VWS V14.01,2013-02-19 04:38:00,
2013-02-18 23:39:00,55.7,53.7,29.96,NE,42,1.0,10.0,93,0.04,,---,0.09,VWS V14.01,2013-02-19 04:39:00,
2013-02-18 23:40:00,55.7,53.7,29.96,ENE,59,4.0,10.0,93,0.04,,---,0.09,VWS V14.01,2013-02-19 04:40:00,
2013-02-18 23:41:00,55.7,53.7,29.96,North,355,4.0,10.0,93,0.04,,---,0.09,VWS V14.01,2013-02-19 04:41:00,
2013-02-18 23:42:00,55.7,53.7,29.96,North,5,0.0,10.0,93,0.04,,---,0.09,VWS V14.01,2013-02-19 04:42:00,
2013-02-18 23:43:00,55.7,53.7,29.96,NE,44,7.0,10.0,93,0.04,,---,0.09,VWS V14.01,2013-02-19 04:43:00,
2013-02-18 23:44:00,55.7,53.7,29.96,North,350,4.0,10.0,93,0.04,,---,0.09,VWS V14.01,2013-02-19 04:44:00,
2013-02-18 23:45:00,55.7,53.7,29.96,NNE,33,6.0,10.0,93,0.04,,---,0.09,VWS V14.01,2013-02-19 04:45:00,
2013-02-18 23:46:00,55.7,53.7,29.96,North,5,9.0,10.0,93,0.04,,---,0.09,VWS V14.01,2013-02-19 04:46:00,
2013-02-18 23:47:00,55.7,53.7,29.96,North,350,6.0,10.0,93,0.04,,---,0.09,VWS V14.01,2013-02-19 04:47:00,
2013-02-18 23:48:00,55.7,53.7,29.96,NE,34,0.0,10.0,93,0.04,,---,0.09,VWS V14.01,2013-02-19 04:48:00,
2013-02-18 23:49:00,55.7,53.7,29.96,ENE,59,9.0,12.0,93,0.04,,---,0.09,VWS V14.01,2013-02-19 04:49:00,
2013-02-18 23:50:00,55.7,53.7,29.96,NE,53,6.0,12.0,93,0.04,,---,0.09,VWS V14.01,2013-02-19 04:50:00,
2013-02-18 23:51:00,55.7,53.7,29.96,NNE,19,6.0,12.0,93,0.04,,---,0.09,VWS V14.01,2013-02-19 04:51:00,
2013-02-18 23:52:00,55.7,53.7,29.96,North,355,0.0,12.0,93,0.04,,---,0.09,VWS V14.01,2013-02-19 04:52:00,
2013-02-18 23:53:00,55.7,53.7,29.96,SSW,205,4.0,12.0,93,0.04,,---,0.09,VWS V14.01,2013-02-19 04:53:00,
2013-02-18 23:54:00,55.7,53.7,29.96,North,11,6.0,12.0,93,0.04,,---,0.09,VWS V14.01,2013-02-19 04:54:00,
2013-02-18 23:55:00,55.6,53.6,29.96,NE,41,4.0,12.0,93,0.04,,---,0.09,VWS V14.01,2013-02-19 04:55:00,
2013-02-18 23:56:00,55.7,53.7,29.96,NNE,17,3.0,12.0,93,0.04,,---,0.09,VWS V14.01,2013-02-19 04:56:00,
2013-02-18 23:57:00,55.7,53.7,29.96,NNE,26,3.0,12.0,93,0.04,,---,0.09,VWS V14.01,2013-02-19 04:57:00,
2013-02-18 23:58:00,55.7,53.7,29.96,NE,46,6.0,12.0,93,0.04,,---,0.09,VWS V14.01,2013-02-19 04:58:00,
2013-02-18 23:59:00,55.7,53.7,29.96,NNE,16,6.0,12.0,93,0.04,,---,0.09,VWS V14.01,2013-02-19 04:59:00,